<?xml version="1.0" encoding="UTF-8" standalone="no" ?>
<gpx xmlns="http://www.topografix.com/GPX/1/1" xmlns:xsi="http://www.w3.org/2001/XMLSchema-instance" xsi:schemaLocation="http://www.topografix.com/GPX/1/1 http://www.topografix.com/GPX/1/1/gpx.xsd" version="1.1" creator="VisuGPX - https://www.visugpx.com">
  <metadata>
    <name>Balade au dessus de Valentigney et Mandeure.</name>
    <desc><![CDATA[Point de vue au belvédère au dessus de Mandeure. Passage par piste BMX]]></desc>
  </metadata>
  <trk>
    <name><![CDATA[PROMENADE GUIGUI 40]]></name>
    <trkseg>
      <trkpt lat="47.45629" lon="6.8273">
        <ele>341.41</ele>
        <time>2013-11-11T08:15:28Z</time>
      </trkpt>
      <trkpt lat="47.45627" lon="6.82736">
        <ele>360.15</ele>
        <time>2013-11-11T08:16:00Z</time>
      </trkpt>
      <trkpt lat="47.45627" lon="6.8273">
        <ele>358.71</ele>
        <time>2013-11-11T08:16:31Z</time>
      </trkpt>
      <trkpt lat="47.4563" lon="6.82724">
        <ele>356.79</ele>
        <time>2013-11-11T08:17:08Z</time>
      </trkpt>
      <trkpt lat="47.45631" lon="6.82726">
        <ele>357.75</ele>
        <time>2013-11-11T08:17:29Z</time>
      </trkpt>
      <trkpt lat="47.4563" lon="6.82725">
        <ele>357.27</ele>
        <time>2013-11-11T08:18:02Z</time>
      </trkpt>
      <trkpt lat="47.45634" lon="6.82729">
        <ele>357.75</ele>
        <time>2013-11-11T08:18:17Z</time>
      </trkpt>
      <trkpt lat="47.45635" lon="6.82728">
        <ele>358.23</ele>
        <time>2013-11-11T08:18:33Z</time>
      </trkpt>
      <trkpt lat="47.45636" lon="6.82728">
        <ele>358.23</ele>
        <time>2013-11-11T08:18:35Z</time>
      </trkpt>
      <trkpt lat="47.4564" lon="6.82722">
        <ele>357.75</ele>
        <time>2013-11-11T08:18:40Z</time>
      </trkpt>
      <trkpt lat="47.45642" lon="6.82716">
        <ele>355.83</ele>
        <time>2013-11-11T08:18:54Z</time>
      </trkpt>
      <trkpt lat="47.45643" lon="6.82712">
        <ele>351.98</ele>
        <time>2013-11-11T08:19:06Z</time>
      </trkpt>
      <trkpt lat="47.45649" lon="6.82673">
        <ele>350.06</ele>
        <time>2013-11-11T08:19:18Z</time>
      </trkpt>
      <trkpt lat="47.45645" lon="6.82633">
        <ele>349.1</ele>
        <time>2013-11-11T08:19:30Z</time>
      </trkpt>
      <trkpt lat="47.45619" lon="6.8258">
        <ele>349.1</ele>
        <time>2013-11-11T08:19:44Z</time>
      </trkpt>
      <trkpt lat="47.45615" lon="6.82576">
        <ele>349.1</ele>
        <time>2013-11-11T08:19:45Z</time>
      </trkpt>
      <trkpt lat="47.45611" lon="6.82573">
        <ele>349.1</ele>
        <time>2013-11-11T08:19:46Z</time>
      </trkpt>
      <trkpt lat="47.45603" lon="6.82567">
        <ele>349.1</ele>
        <time>2013-11-11T08:19:48Z</time>
      </trkpt>
      <trkpt lat="47.45564" lon="6.82546">
        <ele>348.62</ele>
        <time>2013-11-11T08:19:57Z</time>
      </trkpt>
      <trkpt lat="47.4556" lon="6.82543">
        <ele>348.62</ele>
        <time>2013-11-11T08:19:58Z</time>
      </trkpt>
      <trkpt lat="47.45555" lon="6.8254">
        <ele>348.62</ele>
        <time>2013-11-11T08:19:59Z</time>
      </trkpt>
      <trkpt lat="47.45546" lon="6.82536">
        <ele>348.62</ele>
        <time>2013-11-11T08:20:01Z</time>
      </trkpt>
      <trkpt lat="47.45481" lon="6.82494">
        <ele>351.02</ele>
        <time>2013-11-11T08:20:17Z</time>
      </trkpt>
      <trkpt lat="47.45477" lon="6.82492">
        <ele>351.02</ele>
        <time>2013-11-11T08:20:18Z</time>
      </trkpt>
      <trkpt lat="47.45415" lon="6.82456">
        <ele>353.42</ele>
        <time>2013-11-11T08:20:34Z</time>
      </trkpt>
      <trkpt lat="47.45384" lon="6.82441">
        <ele>354.38</ele>
        <time>2013-11-11T08:20:43Z</time>
      </trkpt>
      <trkpt lat="47.45383" lon="6.82436">
        <ele>354.38</ele>
        <time>2013-11-11T08:20:44Z</time>
      </trkpt>
      <trkpt lat="47.45383" lon="6.8243">
        <ele>354.86</ele>
        <time>2013-11-11T08:20:45Z</time>
      </trkpt>
      <trkpt lat="47.45385" lon="6.82381">
        <ele>355.83</ele>
        <time>2013-11-11T08:20:56Z</time>
      </trkpt>
      <trkpt lat="47.45384" lon="6.82379">
        <ele>355.83</ele>
        <time>2013-11-11T08:20:57Z</time>
      </trkpt>
      <trkpt lat="47.45383" lon="6.82377">
        <ele>356.31</ele>
        <time>2013-11-11T08:20:58Z</time>
      </trkpt>
      <trkpt lat="47.45382" lon="6.82374">
        <ele>356.31</ele>
        <time>2013-11-11T08:20:59Z</time>
      </trkpt>
      <trkpt lat="47.45381" lon="6.82371">
        <ele>356.79</ele>
        <time>2013-11-11T08:21:00Z</time>
      </trkpt>
      <trkpt lat="47.45359" lon="6.82349">
        <ele>359.67</ele>
        <time>2013-11-11T08:21:11Z</time>
      </trkpt>
      <trkpt lat="47.45337" lon="6.82343">
        <ele>362.07</ele>
        <time>2013-11-11T08:21:20Z</time>
      </trkpt>
      <trkpt lat="47.45307" lon="6.82334">
        <ele>367.84</ele>
        <time>2013-11-11T08:21:32Z</time>
      </trkpt>
      <trkpt lat="47.45298" lon="6.82332">
        <ele>370.73</ele>
        <time>2013-11-11T08:21:37Z</time>
      </trkpt>
      <trkpt lat="47.45296" lon="6.82333">
        <ele>371.21</ele>
        <time>2013-11-11T08:21:38Z</time>
      </trkpt>
      <trkpt lat="47.45294" lon="6.82335">
        <ele>371.21</ele>
        <time>2013-11-11T08:21:39Z</time>
      </trkpt>
      <trkpt lat="47.45293" lon="6.82337">
        <ele>372.17</ele>
        <time>2013-11-11T08:21:40Z</time>
      </trkpt>
      <trkpt lat="47.45286" lon="6.82352">
        <ele>374.09</ele>
        <time>2013-11-11T08:21:45Z</time>
      </trkpt>
      <trkpt lat="47.4527" lon="6.82401">
        <ele>373.61</ele>
        <time>2013-11-11T08:21:55Z</time>
      </trkpt>
      <trkpt lat="47.45256" lon="6.82417">
        <ele>372.17</ele>
        <time>2013-11-11T08:21:59Z</time>
      </trkpt>
      <trkpt lat="47.45223" lon="6.82479">
        <ele>367.84</ele>
        <time>2013-11-11T08:22:09Z</time>
      </trkpt>
      <trkpt lat="47.45213" lon="6.82512">
        <ele>366.4</ele>
        <time>2013-11-11T08:22:13Z</time>
      </trkpt>
      <trkpt lat="47.45192" lon="6.82602">
        <ele>364</ele>
        <time>2013-11-11T08:22:24Z</time>
      </trkpt>
      <trkpt lat="47.45178" lon="6.82615">
        <ele>364.48</ele>
        <time>2013-11-11T08:22:28Z</time>
      </trkpt>
      <trkpt lat="47.4516" lon="6.82617">
        <ele>364</ele>
        <time>2013-11-11T08:22:32Z</time>
      </trkpt>
      <trkpt lat="47.45147" lon="6.8261">
        <ele>363.04</ele>
        <time>2013-11-11T08:22:35Z</time>
      </trkpt>
      <trkpt lat="47.45097" lon="6.82564">
        <ele>358.71</ele>
        <time>2013-11-11T08:22:46Z</time>
      </trkpt>
      <trkpt lat="47.45082" lon="6.82529">
        <ele>358.23</ele>
        <time>2013-11-11T08:22:51Z</time>
      </trkpt>
      <trkpt lat="47.45036" lon="6.82471">
        <ele>359.19</ele>
        <time>2013-11-11T08:23:02Z</time>
      </trkpt>
      <trkpt lat="47.45016" lon="6.82444">
        <ele>360.63</ele>
        <time>2013-11-11T08:23:07Z</time>
      </trkpt>
      <trkpt lat="47.44991" lon="6.82382">
        <ele>363.52</ele>
        <time>2013-11-11T08:23:18Z</time>
      </trkpt>
      <trkpt lat="47.44976" lon="6.82335">
        <ele>363.52</ele>
        <time>2013-11-11T08:23:28Z</time>
      </trkpt>
      <trkpt lat="47.44961" lon="6.82301">
        <ele>361.59</ele>
        <time>2013-11-11T08:23:34Z</time>
      </trkpt>
      <trkpt lat="47.44939" lon="6.82235">
        <ele>353.42</ele>
        <time>2013-11-11T08:23:44Z</time>
      </trkpt>
      <trkpt lat="47.44933" lon="6.82223">
        <ele>352.46</ele>
        <time>2013-11-11T08:23:46Z</time>
      </trkpt>
      <trkpt lat="47.44912" lon="6.82155">
        <ele>347.65</ele>
        <time>2013-11-11T08:23:58Z</time>
      </trkpt>
      <trkpt lat="47.4491" lon="6.82099">
        <ele>346.21</ele>
        <time>2013-11-11T08:24:10Z</time>
      </trkpt>
      <trkpt lat="47.44921" lon="6.82044">
        <ele>351.98</ele>
        <time>2013-11-11T08:24:24Z</time>
      </trkpt>
      <trkpt lat="47.44944" lon="6.81995">
        <ele>360.63</ele>
        <time>2013-11-11T08:24:38Z</time>
      </trkpt>
      <trkpt lat="47.44971" lon="6.81938">
        <ele>365.44</ele>
        <time>2013-11-11T08:24:52Z</time>
      </trkpt>
      <trkpt lat="47.44991" lon="6.81912">
        <ele>368.32</ele>
        <time>2013-11-11T08:25:02Z</time>
      </trkpt>
      <trkpt lat="47.45008" lon="6.81891">
        <ele>369.76</ele>
        <time>2013-11-11T08:25:11Z</time>
      </trkpt>
      <trkpt lat="47.45024" lon="6.81859">
        <ele>370.73</ele>
        <time>2013-11-11T08:25:23Z</time>
      </trkpt>
      <trkpt lat="47.45035" lon="6.81842">
        <ele>374.57</ele>
        <time>2013-11-11T08:25:36Z</time>
      </trkpt>
      <trkpt lat="47.45038" lon="6.81836">
        <ele>376.97</ele>
        <time>2013-11-11T08:25:51Z</time>
      </trkpt>
      <trkpt lat="47.45039" lon="6.81823">
        <ele>378.42</ele>
        <time>2013-11-11T08:25:58Z</time>
      </trkpt>
      <trkpt lat="47.45049" lon="6.81806">
        <ele>377.94</ele>
        <time>2013-11-11T08:26:09Z</time>
      </trkpt>
      <trkpt lat="47.45053" lon="6.81797">
        <ele>377.94</ele>
        <time>2013-11-11T08:26:14Z</time>
      </trkpt>
      <trkpt lat="47.45058" lon="6.81787">
        <ele>376.97</ele>
        <time>2013-11-11T08:26:19Z</time>
      </trkpt>
      <trkpt lat="47.45061" lon="6.8178">
        <ele>376.97</ele>
        <time>2013-11-11T08:26:23Z</time>
      </trkpt>
      <trkpt lat="47.45064" lon="6.81768">
        <ele>377.45</ele>
        <time>2013-11-11T08:26:30Z</time>
      </trkpt>
      <trkpt lat="47.45074" lon="6.81751">
        <ele>380.34</ele>
        <time>2013-11-11T08:26:37Z</time>
      </trkpt>
      <trkpt lat="47.45082" lon="6.81723">
        <ele>383.7</ele>
        <time>2013-11-11T08:26:46Z</time>
      </trkpt>
      <trkpt lat="47.45086" lon="6.81697">
        <ele>384.18</ele>
        <time>2013-11-11T08:26:56Z</time>
      </trkpt>
      <trkpt lat="47.45091" lon="6.81682">
        <ele>383.7</ele>
        <time>2013-11-11T08:27:02Z</time>
      </trkpt>
      <trkpt lat="47.4509" lon="6.81667">
        <ele>381.78</ele>
        <time>2013-11-11T08:27:08Z</time>
      </trkpt>
      <trkpt lat="47.45095" lon="6.81644">
        <ele>380.34</ele>
        <time>2013-11-11T08:27:17Z</time>
      </trkpt>
      <trkpt lat="47.45101" lon="6.81636">
        <ele>380.82</ele>
        <time>2013-11-11T08:27:23Z</time>
      </trkpt>
      <trkpt lat="47.4511" lon="6.81626">
        <ele>379.86</ele>
        <time>2013-11-11T08:27:35Z</time>
      </trkpt>
      <trkpt lat="47.45117" lon="6.81625">
        <ele>378.9</ele>
        <time>2013-11-11T08:27:43Z</time>
      </trkpt>
      <trkpt lat="47.45132" lon="6.81626">
        <ele>379.86</ele>
        <time>2013-11-11T08:27:57Z</time>
      </trkpt>
      <trkpt lat="47.45135" lon="6.8163">
        <ele>379.38</ele>
        <time>2013-11-11T08:28:02Z</time>
      </trkpt>
      <trkpt lat="47.45142" lon="6.81639">
        <ele>379.38</ele>
        <time>2013-11-11T08:28:15Z</time>
      </trkpt>
      <trkpt lat="47.45143" lon="6.81648">
        <ele>377.94</ele>
        <time>2013-11-11T08:28:20Z</time>
      </trkpt>
      <trkpt lat="47.45152" lon="6.81658">
        <ele>376.97</ele>
        <time>2013-11-11T08:28:33Z</time>
      </trkpt>
      <trkpt lat="47.45166" lon="6.81656">
        <ele>378.42</ele>
        <time>2013-11-11T08:28:43Z</time>
      </trkpt>
      <trkpt lat="47.4518" lon="6.81656">
        <ele>379.86</ele>
        <time>2013-11-11T08:28:56Z</time>
      </trkpt>
      <trkpt lat="47.45202" lon="6.81661">
        <ele>378.9</ele>
        <time>2013-11-11T08:29:08Z</time>
      </trkpt>
      <trkpt lat="47.45209" lon="6.81659">
        <ele>378.42</ele>
        <time>2013-11-11T08:29:14Z</time>
      </trkpt>
      <trkpt lat="47.45223" lon="6.8165">
        <ele>379.38</ele>
        <time>2013-11-11T08:29:22Z</time>
      </trkpt>
      <trkpt lat="47.45244" lon="6.8164">
        <ele>382.74</ele>
        <time>2013-11-11T08:29:36Z</time>
      </trkpt>
      <trkpt lat="47.45255" lon="6.81634">
        <ele>382.74</ele>
        <time>2013-11-11T08:29:48Z</time>
      </trkpt>
      <trkpt lat="47.45267" lon="6.81622">
        <ele>383.7</ele>
        <time>2013-11-11T08:30:01Z</time>
      </trkpt>
      <trkpt lat="47.45276" lon="6.81616">
        <ele>385.15</ele>
        <time>2013-11-11T08:30:06Z</time>
      </trkpt>
      <trkpt lat="47.45282" lon="6.81613">
        <ele>384.66</ele>
        <time>2013-11-11T08:30:10Z</time>
      </trkpt>
      <trkpt lat="47.45296" lon="6.8162">
        <ele>380.34</ele>
        <time>2013-11-11T08:30:19Z</time>
      </trkpt>
      <trkpt lat="47.45297" lon="6.81648">
        <ele>376.49</ele>
        <time>2013-11-11T08:30:31Z</time>
      </trkpt>
      <trkpt lat="47.45298" lon="6.81651">
        <ele>376.01</ele>
        <time>2013-11-11T08:30:33Z</time>
      </trkpt>
      <trkpt lat="47.45306" lon="6.81658">
        <ele>374.57</ele>
        <time>2013-11-11T08:30:39Z</time>
      </trkpt>
      <trkpt lat="47.45326" lon="6.81682">
        <ele>370.24</ele>
        <time>2013-11-11T08:30:53Z</time>
      </trkpt>
      <trkpt lat="47.45337" lon="6.81689">
        <ele>368.8</ele>
        <time>2013-11-11T08:31:00Z</time>
      </trkpt>
      <trkpt lat="47.45344" lon="6.81694">
        <ele>368.32</ele>
        <time>2013-11-11T08:31:04Z</time>
      </trkpt>
      <trkpt lat="47.45355" lon="6.81697">
        <ele>367.36</ele>
        <time>2013-11-11T08:31:09Z</time>
      </trkpt>
      <trkpt lat="47.45364" lon="6.81703">
        <ele>366.4</ele>
        <time>2013-11-11T08:31:14Z</time>
      </trkpt>
      <trkpt lat="47.45373" lon="6.81721">
        <ele>364.96</ele>
        <time>2013-11-11T08:31:20Z</time>
      </trkpt>
      <trkpt lat="47.45376" lon="6.81723">
        <ele>364.96</ele>
        <time>2013-11-11T08:31:21Z</time>
      </trkpt>
      <trkpt lat="47.4541" lon="6.81729">
        <ele>365.44</ele>
        <time>2013-11-11T08:31:32Z</time>
      </trkpt>
      <trkpt lat="47.45455" lon="6.81726">
        <ele>366.88</ele>
        <time>2013-11-11T08:31:45Z</time>
      </trkpt>
      <trkpt lat="47.45517" lon="6.81729">
        <ele>367.36</ele>
        <time>2013-11-11T08:32:04Z</time>
      </trkpt>
      <trkpt lat="47.45525" lon="6.81732">
        <ele>367.36</ele>
        <time>2013-11-11T08:32:08Z</time>
      </trkpt>
      <trkpt lat="47.45526" lon="6.81732">
        <ele>367.36</ele>
        <time>2013-11-11T08:32:09Z</time>
      </trkpt>
      <trkpt lat="47.45528" lon="6.81731">
        <ele>366.88</ele>
        <time>2013-11-11T08:32:10Z</time>
      </trkpt>
      <trkpt lat="47.45529" lon="6.81729">
        <ele>367.36</ele>
        <time>2013-11-11T08:32:11Z</time>
      </trkpt>
      <trkpt lat="47.4553" lon="6.81726">
        <ele>367.36</ele>
        <time>2013-11-11T08:32:12Z</time>
      </trkpt>
      <trkpt lat="47.45531" lon="6.81717">
        <ele>367.84</ele>
        <time>2013-11-11T08:32:14Z</time>
      </trkpt>
      <trkpt lat="47.4553" lon="6.81712">
        <ele>368.32</ele>
        <time>2013-11-11T08:32:15Z</time>
      </trkpt>
      <trkpt lat="47.45528" lon="6.81708">
        <ele>368.32</ele>
        <time>2013-11-11T08:32:16Z</time>
      </trkpt>
      <trkpt lat="47.45505" lon="6.81636">
        <ele>367.84</ele>
        <time>2013-11-11T08:32:31Z</time>
      </trkpt>
      <trkpt lat="47.45509" lon="6.81581">
        <ele>367.36</ele>
        <time>2013-11-11T08:32:44Z</time>
      </trkpt>
      <trkpt lat="47.4553" lon="6.81575">
        <ele>369.76</ele>
        <time>2013-11-11T08:32:56Z</time>
      </trkpt>
      <trkpt lat="47.45544" lon="6.81569">
        <ele>371.21</ele>
        <time>2013-11-11T08:33:03Z</time>
      </trkpt>
      <trkpt lat="47.45546" lon="6.81569">
        <ele>371.69</ele>
        <time>2013-11-11T08:33:04Z</time>
      </trkpt>
      <trkpt lat="47.45575" lon="6.81565">
        <ele>374.09</ele>
        <time>2013-11-11T08:33:16Z</time>
      </trkpt>
      <trkpt lat="47.45607" lon="6.81565">
        <ele>376.01</ele>
        <time>2013-11-11T08:33:28Z</time>
      </trkpt>
      <trkpt lat="47.45625" lon="6.81568">
        <ele>376.01</ele>
        <time>2013-11-11T08:33:36Z</time>
      </trkpt>
      <trkpt lat="47.45631" lon="6.81573">
        <ele>377.94</ele>
        <time>2013-11-11T08:33:48Z</time>
      </trkpt>
      <trkpt lat="47.45634" lon="6.81577">
        <ele>377.94</ele>
        <time>2013-11-11T08:33:51Z</time>
      </trkpt>
      <trkpt lat="47.45635" lon="6.81579">
        <ele>378.42</ele>
        <time>2013-11-11T08:33:52Z</time>
      </trkpt>
      <trkpt lat="47.45636" lon="6.8158">
        <ele>378.42</ele>
        <time>2013-11-11T08:33:53Z</time>
      </trkpt>
      <trkpt lat="47.45639" lon="6.81581">
        <ele>379.38</ele>
        <time>2013-11-11T08:33:55Z</time>
      </trkpt>
      <trkpt lat="47.4564" lon="6.8158">
        <ele>379.86</ele>
        <time>2013-11-11T08:33:56Z</time>
      </trkpt>
      <trkpt lat="47.45641" lon="6.81579">
        <ele>380.34</ele>
        <time>2013-11-11T08:33:57Z</time>
      </trkpt>
      <trkpt lat="47.45642" lon="6.81577">
        <ele>380.82</ele>
        <time>2013-11-11T08:33:58Z</time>
      </trkpt>
      <trkpt lat="47.45642" lon="6.81575">
        <ele>380.82</ele>
        <time>2013-11-11T08:33:59Z</time>
      </trkpt>
      <trkpt lat="47.45643" lon="6.81574">
        <ele>381.3</ele>
        <time>2013-11-11T08:34:00Z</time>
      </trkpt>
      <trkpt lat="47.45644" lon="6.81572">
        <ele>381.3</ele>
        <time>2013-11-11T08:34:01Z</time>
      </trkpt>
      <trkpt lat="47.45645" lon="6.8157">
        <ele>381.3</ele>
        <time>2013-11-11T08:34:02Z</time>
      </trkpt>
      <trkpt lat="47.45645" lon="6.81568">
        <ele>381.78</ele>
        <time>2013-11-11T08:34:03Z</time>
      </trkpt>
      <trkpt lat="47.45646" lon="6.81566">
        <ele>381.78</ele>
        <time>2013-11-11T08:34:04Z</time>
      </trkpt>
      <trkpt lat="47.45647" lon="6.81563">
        <ele>382.26</ele>
        <time>2013-11-11T08:34:05Z</time>
      </trkpt>
      <trkpt lat="47.4566" lon="6.81531">
        <ele>387.07</ele>
        <time>2013-11-11T08:34:20Z</time>
      </trkpt>
      <trkpt lat="47.4567" lon="6.815">
        <ele>392.84</ele>
        <time>2013-11-11T08:34:32Z</time>
      </trkpt>
      <trkpt lat="47.45684" lon="6.81468">
        <ele>396.68</ele>
        <time>2013-11-11T08:34:44Z</time>
      </trkpt>
      <trkpt lat="47.45698" lon="6.81443">
        <ele>401.01</ele>
        <time>2013-11-11T08:34:56Z</time>
      </trkpt>
      <trkpt lat="47.45718" lon="6.8142">
        <ele>407.26</ele>
        <time>2013-11-11T08:35:09Z</time>
      </trkpt>
      <trkpt lat="47.45743" lon="6.81402">
        <ele>415.43</ele>
        <time>2013-11-11T08:35:25Z</time>
      </trkpt>
      <trkpt lat="47.45765" lon="6.81394">
        <ele>420.23</ele>
        <time>2013-11-11T08:35:39Z</time>
      </trkpt>
      <trkpt lat="47.4578" lon="6.81393">
        <ele>421.68</ele>
        <time>2013-11-11T08:35:48Z</time>
      </trkpt>
      <trkpt lat="47.45788" lon="6.81393">
        <ele>422.16</ele>
        <time>2013-11-11T08:35:53Z</time>
      </trkpt>
      <trkpt lat="47.45789" lon="6.81393">
        <ele>422.16</ele>
        <time>2013-11-11T08:35:54Z</time>
      </trkpt>
      <trkpt lat="47.4581" lon="6.81393">
        <ele>424.08</ele>
        <time>2013-11-11T08:36:08Z</time>
      </trkpt>
      <trkpt lat="47.45819" lon="6.8139">
        <ele>426</ele>
        <time>2013-11-11T08:36:13Z</time>
      </trkpt>
      <trkpt lat="47.45821" lon="6.8139">
        <ele>426.48</ele>
        <time>2013-11-11T08:36:14Z</time>
      </trkpt>
      <trkpt lat="47.45822" lon="6.81389">
        <ele>426.48</ele>
        <time>2013-11-11T08:36:15Z</time>
      </trkpt>
      <trkpt lat="47.45824" lon="6.8139">
        <ele>426.96</ele>
        <time>2013-11-11T08:36:16Z</time>
      </trkpt>
      <trkpt lat="47.45826" lon="6.8139">
        <ele>427.44</ele>
        <time>2013-11-11T08:36:17Z</time>
      </trkpt>
      <trkpt lat="47.45828" lon="6.8139">
        <ele>427.44</ele>
        <time>2013-11-11T08:36:18Z</time>
      </trkpt>
      <trkpt lat="47.4583" lon="6.81391">
        <ele>427.92</ele>
        <time>2013-11-11T08:36:19Z</time>
      </trkpt>
      <trkpt lat="47.45832" lon="6.81391">
        <ele>428.89</ele>
        <time>2013-11-11T08:36:20Z</time>
      </trkpt>
      <trkpt lat="47.4586" lon="6.81383">
        <ele>434.17</ele>
        <time>2013-11-11T08:36:34Z</time>
      </trkpt>
      <trkpt lat="47.45866" lon="6.81381">
        <ele>435.61</ele>
        <time>2013-11-11T08:36:37Z</time>
      </trkpt>
      <trkpt lat="47.45868" lon="6.81381">
        <ele>436.1</ele>
        <time>2013-11-11T08:36:38Z</time>
      </trkpt>
      <trkpt lat="47.45869" lon="6.81382">
        <ele>436.58</ele>
        <time>2013-11-11T08:36:39Z</time>
      </trkpt>
      <trkpt lat="47.45871" lon="6.81381">
        <ele>437.06</ele>
        <time>2013-11-11T08:36:40Z</time>
      </trkpt>
      <trkpt lat="47.45873" lon="6.81381">
        <ele>437.06</ele>
        <time>2013-11-11T08:36:41Z</time>
      </trkpt>
      <trkpt lat="47.459" lon="6.81372">
        <ele>439.94</ele>
        <time>2013-11-11T08:36:54Z</time>
      </trkpt>
      <trkpt lat="47.45925" lon="6.81354">
        <ele>443.79</ele>
        <time>2013-11-11T08:37:06Z</time>
      </trkpt>
      <trkpt lat="47.45932" lon="6.81346">
        <ele>446.19</ele>
        <time>2013-11-11T08:37:11Z</time>
      </trkpt>
      <trkpt lat="47.45933" lon="6.81343">
        <ele>446.67</ele>
        <time>2013-11-11T08:37:12Z</time>
      </trkpt>
      <trkpt lat="47.45954" lon="6.81311">
        <ele>445.23</ele>
        <time>2013-11-11T08:37:25Z</time>
      </trkpt>
      <trkpt lat="47.45969" lon="6.81293">
        <ele>445.23</ele>
        <time>2013-11-11T08:37:34Z</time>
      </trkpt>
      <trkpt lat="47.45969" lon="6.8129">
        <ele>445.71</ele>
        <time>2013-11-11T08:37:35Z</time>
      </trkpt>
      <trkpt lat="47.4597" lon="6.81287">
        <ele>446.19</ele>
        <time>2013-11-11T08:37:36Z</time>
      </trkpt>
      <trkpt lat="47.4597" lon="6.81283">
        <ele>446.67</ele>
        <time>2013-11-11T08:37:37Z</time>
      </trkpt>
      <trkpt lat="47.45971" lon="6.8128">
        <ele>447.63</ele>
        <time>2013-11-11T08:37:38Z</time>
      </trkpt>
      <trkpt lat="47.45972" lon="6.81276">
        <ele>448.11</ele>
        <time>2013-11-11T08:37:39Z</time>
      </trkpt>
      <trkpt lat="47.45974" lon="6.81271">
        <ele>449.07</ele>
        <time>2013-11-11T08:37:40Z</time>
      </trkpt>
      <trkpt lat="47.45975" lon="6.81267">
        <ele>450.03</ele>
        <time>2013-11-11T08:37:41Z</time>
      </trkpt>
      <trkpt lat="47.45992" lon="6.81204">
        <ele>453.88</ele>
        <time>2013-11-11T08:37:53Z</time>
      </trkpt>
      <trkpt lat="47.4601" lon="6.8114">
        <ele>448.59</ele>
        <time>2013-11-11T08:38:02Z</time>
      </trkpt>
      <trkpt lat="47.46021" lon="6.81102">
        <ele>445.23</ele>
        <time>2013-11-11T08:38:08Z</time>
      </trkpt>
      <trkpt lat="47.46018" lon="6.81089">
        <ele>442.82</ele>
        <time>2013-11-11T08:38:12Z</time>
      </trkpt>
      <trkpt lat="47.46016" lon="6.81086">
        <ele>442.34</ele>
        <time>2013-11-11T08:38:13Z</time>
      </trkpt>
      <trkpt lat="47.46013" lon="6.81084">
        <ele>441.86</ele>
        <time>2013-11-11T08:38:14Z</time>
      </trkpt>
      <trkpt lat="47.45997" lon="6.81068">
        <ele>436.58</ele>
        <time>2013-11-11T08:38:22Z</time>
      </trkpt>
      <trkpt lat="47.45967" lon="6.81039">
        <ele>429.85</ele>
        <time>2013-11-11T08:38:32Z</time>
      </trkpt>
      <trkpt lat="47.45956" lon="6.81026">
        <ele>422.64</ele>
        <time>2013-11-11T08:38:38Z</time>
      </trkpt>
      <trkpt lat="47.45955" lon="6.81024">
        <ele>421.68</ele>
        <time>2013-11-11T08:38:39Z</time>
      </trkpt>
      <trkpt lat="47.45955" lon="6.81021">
        <ele>421.19</ele>
        <time>2013-11-11T08:38:40Z</time>
      </trkpt>
      <trkpt lat="47.45956" lon="6.81017">
        <ele>420.71</ele>
        <time>2013-11-11T08:38:41Z</time>
      </trkpt>
      <trkpt lat="47.45957" lon="6.81013">
        <ele>420.23</ele>
        <time>2013-11-11T08:38:42Z</time>
      </trkpt>
      <trkpt lat="47.45958" lon="6.81009">
        <ele>419.27</ele>
        <time>2013-11-11T08:38:43Z</time>
      </trkpt>
      <trkpt lat="47.45958" lon="6.81004">
        <ele>418.79</ele>
        <time>2013-11-11T08:38:44Z</time>
      </trkpt>
      <trkpt lat="47.45958" lon="6.80999">
        <ele>417.35</ele>
        <time>2013-11-11T08:38:45Z</time>
      </trkpt>
      <trkpt lat="47.45959" lon="6.80994">
        <ele>416.87</ele>
        <time>2013-11-11T08:38:46Z</time>
      </trkpt>
      <trkpt lat="47.4596" lon="6.80989">
        <ele>415.91</ele>
        <time>2013-11-11T08:38:47Z</time>
      </trkpt>
      <trkpt lat="47.45961" lon="6.80983">
        <ele>415.43</ele>
        <time>2013-11-11T08:38:48Z</time>
      </trkpt>
      <trkpt lat="47.45963" lon="6.80978">
        <ele>414.95</ele>
        <time>2013-11-11T08:38:49Z</time>
      </trkpt>
      <trkpt lat="47.4597" lon="6.80949">
        <ele>412.06</ele>
        <time>2013-11-11T08:38:54Z</time>
      </trkpt>
      <trkpt lat="47.45975" lon="6.80932">
        <ele>410.14</ele>
        <time>2013-11-11T08:38:58Z</time>
      </trkpt>
      <trkpt lat="47.4597" lon="6.80906">
        <ele>403.89</ele>
        <time>2013-11-11T08:39:12Z</time>
      </trkpt>
      <trkpt lat="47.4597" lon="6.80888">
        <ele>403.41</ele>
        <time>2013-11-11T08:39:24Z</time>
      </trkpt>
      <trkpt lat="47.4597" lon="6.80874">
        <ele>404.37</ele>
        <time>2013-11-11T08:39:38Z</time>
      </trkpt>
      <trkpt lat="47.4597" lon="6.80861">
        <ele>405.81</ele>
        <time>2013-11-11T08:39:50Z</time>
      </trkpt>
      <trkpt lat="47.45971" lon="6.80851">
        <ele>405.81</ele>
        <time>2013-11-11T08:40:06Z</time>
      </trkpt>
      <trkpt lat="47.45971" lon="6.80843">
        <ele>408.22</ele>
        <time>2013-11-11T08:40:30Z</time>
      </trkpt>
      <trkpt lat="47.45973" lon="6.80844">
        <ele>405.33</ele>
        <time>2013-11-11T08:40:56Z</time>
      </trkpt>
      <trkpt lat="47.45971" lon="6.80844">
        <ele>401.97</ele>
        <time>2013-11-11T08:41:23Z</time>
      </trkpt>
      <trkpt lat="47.45971" lon="6.8084">
        <ele>400.53</ele>
        <time>2013-11-11T08:41:31Z</time>
      </trkpt>
      <trkpt lat="47.45971" lon="6.80839">
        <ele>400.05</ele>
        <time>2013-11-11T08:41:32Z</time>
      </trkpt>
      <trkpt lat="47.45972" lon="6.80836">
        <ele>400.05</ele>
        <time>2013-11-11T08:41:33Z</time>
      </trkpt>
      <trkpt lat="47.45973" lon="6.80824">
        <ele>400.53</ele>
        <time>2013-11-11T08:41:39Z</time>
      </trkpt>
      <trkpt lat="47.45977" lon="6.80804">
        <ele>403.89</ele>
        <time>2013-11-11T08:41:52Z</time>
      </trkpt>
      <trkpt lat="47.45978" lon="6.808">
        <ele>403.89</ele>
        <time>2013-11-11T08:41:54Z</time>
      </trkpt>
      <trkpt lat="47.45979" lon="6.80798">
        <ele>403.89</ele>
        <time>2013-11-11T08:41:55Z</time>
      </trkpt>
      <trkpt lat="47.45979" lon="6.80795">
        <ele>403.89</ele>
        <time>2013-11-11T08:41:56Z</time>
      </trkpt>
      <trkpt lat="47.45988" lon="6.80755">
        <ele>404.37</ele>
        <time>2013-11-11T08:42:10Z</time>
      </trkpt>
      <trkpt lat="47.45995" lon="6.80718">
        <ele>408.7</ele>
        <time>2013-11-11T08:42:24Z</time>
      </trkpt>
      <trkpt lat="47.45994" lon="6.80715">
        <ele>408.7</ele>
        <time>2013-11-11T08:42:25Z</time>
      </trkpt>
      <trkpt lat="47.45996" lon="6.80711">
        <ele>406.29</ele>
        <time>2013-11-11T08:42:37Z</time>
      </trkpt>
      <trkpt lat="47.46003" lon="6.80686">
        <ele>407.26</ele>
        <time>2013-11-11T08:42:51Z</time>
      </trkpt>
      <trkpt lat="47.46016" lon="6.80644">
        <ele>409.66</ele>
        <time>2013-11-11T08:43:03Z</time>
      </trkpt>
      <trkpt lat="47.46026" lon="6.8061">
        <ele>410.62</ele>
        <time>2013-11-11T08:43:14Z</time>
      </trkpt>
      <trkpt lat="47.46027" lon="6.80599">
        <ele>412.54</ele>
        <time>2013-11-11T08:43:20Z</time>
      </trkpt>
      <trkpt lat="47.46026" lon="6.80598">
        <ele>412.54</ele>
        <time>2013-11-11T08:43:21Z</time>
      </trkpt>
      <trkpt lat="47.46026" lon="6.80595">
        <ele>412.54</ele>
        <time>2013-11-11T08:43:22Z</time>
      </trkpt>
      <trkpt lat="47.46026" lon="6.80592">
        <ele>412.54</ele>
        <time>2013-11-11T08:43:23Z</time>
      </trkpt>
      <trkpt lat="47.46026" lon="6.80589">
        <ele>413.02</ele>
        <time>2013-11-11T08:43:24Z</time>
      </trkpt>
      <trkpt lat="47.4603" lon="6.80563">
        <ele>414.47</ele>
        <time>2013-11-11T08:43:31Z</time>
      </trkpt>
      <trkpt lat="47.46033" lon="6.80522">
        <ele>419.75</ele>
        <time>2013-11-11T08:43:42Z</time>
      </trkpt>
      <trkpt lat="47.4604" lon="6.80485">
        <ele>423.6</ele>
        <time>2013-11-11T08:43:55Z</time>
      </trkpt>
      <trkpt lat="47.46044" lon="6.80466">
        <ele>425.52</ele>
        <time>2013-11-11T08:44:03Z</time>
      </trkpt>
      <trkpt lat="47.46049" lon="6.80456">
        <ele>425.52</ele>
        <time>2013-11-11T08:44:06Z</time>
      </trkpt>
      <trkpt lat="47.4605" lon="6.80453">
        <ele>426</ele>
        <time>2013-11-11T08:44:07Z</time>
      </trkpt>
      <trkpt lat="47.4605" lon="6.80413">
        <ele>425.52</ele>
        <time>2013-11-11T08:44:21Z</time>
      </trkpt>
      <trkpt lat="47.46048" lon="6.80391">
        <ele>423.6</ele>
        <time>2013-11-11T08:44:30Z</time>
      </trkpt>
      <trkpt lat="47.46041" lon="6.80355">
        <ele>424.56</ele>
        <time>2013-11-11T08:44:45Z</time>
      </trkpt>
      <trkpt lat="47.46035" lon="6.80311">
        <ele>424.08</ele>
        <time>2013-11-11T08:44:59Z</time>
      </trkpt>
      <trkpt lat="47.46035" lon="6.80308">
        <ele>424.08</ele>
        <time>2013-11-11T08:45:00Z</time>
      </trkpt>
      <trkpt lat="47.46034" lon="6.80305">
        <ele>424.08</ele>
        <time>2013-11-11T08:45:01Z</time>
      </trkpt>
      <trkpt lat="47.46034" lon="6.80302">
        <ele>423.6</ele>
        <time>2013-11-11T08:45:02Z</time>
      </trkpt>
      <trkpt lat="47.4603" lon="6.80272">
        <ele>419.27</ele>
        <time>2013-11-11T08:45:15Z</time>
      </trkpt>
      <trkpt lat="47.46026" lon="6.80234">
        <ele>417.35</ele>
        <time>2013-11-11T08:45:30Z</time>
      </trkpt>
      <trkpt lat="47.46019" lon="6.80186">
        <ele>415.91</ele>
        <time>2013-11-11T08:45:44Z</time>
      </trkpt>
      <trkpt lat="47.46011" lon="6.8013">
        <ele>413.98</ele>
        <time>2013-11-11T08:45:59Z</time>
      </trkpt>
      <trkpt lat="47.46001" lon="6.80059">
        <ele>413.5</ele>
        <time>2013-11-11T08:46:13Z</time>
      </trkpt>
      <trkpt lat="47.45998" lon="6.79964">
        <ele>408.7</ele>
        <time>2013-11-11T08:46:26Z</time>
      </trkpt>
      <trkpt lat="47.46002" lon="6.79892">
        <ele>405.81</ele>
        <time>2013-11-11T08:46:34Z</time>
      </trkpt>
      <trkpt lat="47.46003" lon="6.79885">
        <ele>405.33</ele>
        <time>2013-11-11T08:46:35Z</time>
      </trkpt>
      <trkpt lat="47.46018" lon="6.79837">
        <ele>404.85</ele>
        <time>2013-11-11T08:46:45Z</time>
      </trkpt>
      <trkpt lat="47.46037" lon="6.79796">
        <ele>408.22</ele>
        <time>2013-11-11T08:46:55Z</time>
      </trkpt>
      <trkpt lat="47.46044" lon="6.79738">
        <ele>404.85</ele>
        <time>2013-11-11T08:47:05Z</time>
      </trkpt>
      <trkpt lat="47.46045" lon="6.79655">
        <ele>399.08</ele>
        <time>2013-11-11T08:47:18Z</time>
      </trkpt>
      <trkpt lat="47.46045" lon="6.79647">
        <ele>398.6</ele>
        <time>2013-11-11T08:47:19Z</time>
      </trkpt>
      <trkpt lat="47.46046" lon="6.7964">
        <ele>398.6</ele>
        <time>2013-11-11T08:47:20Z</time>
      </trkpt>
      <trkpt lat="47.46057" lon="6.79569">
        <ele>397.16</ele>
        <time>2013-11-11T08:47:33Z</time>
      </trkpt>
      <trkpt lat="47.46066" lon="6.79495">
        <ele>398.12</ele>
        <time>2013-11-11T08:47:47Z</time>
      </trkpt>
      <trkpt lat="47.46074" lon="6.79431">
        <ele>398.6</ele>
        <time>2013-11-11T08:48:01Z</time>
      </trkpt>
      <trkpt lat="47.4607" lon="6.79329">
        <ele>398.12</ele>
        <time>2013-11-11T08:48:18Z</time>
      </trkpt>
      <trkpt lat="47.46057" lon="6.79259">
        <ele>396.68</ele>
        <time>2013-11-11T08:48:29Z</time>
      </trkpt>
      <trkpt lat="47.46042" lon="6.79177">
        <ele>394.76</ele>
        <time>2013-11-11T08:48:42Z</time>
      </trkpt>
      <trkpt lat="47.46041" lon="6.7917">
        <ele>394.76</ele>
        <time>2013-11-11T08:48:43Z</time>
      </trkpt>
      <trkpt lat="47.46039" lon="6.79164">
        <ele>394.28</ele>
        <time>2013-11-11T08:48:44Z</time>
      </trkpt>
      <trkpt lat="47.46037" lon="6.79157">
        <ele>394.28</ele>
        <time>2013-11-11T08:48:45Z</time>
      </trkpt>
      <trkpt lat="47.46036" lon="6.7915">
        <ele>393.8</ele>
        <time>2013-11-11T08:48:46Z</time>
      </trkpt>
      <trkpt lat="47.46034" lon="6.79143">
        <ele>393.32</ele>
        <time>2013-11-11T08:48:47Z</time>
      </trkpt>
      <trkpt lat="47.46028" lon="6.79117">
        <ele>391.87</ele>
        <time>2013-11-11T08:48:51Z</time>
      </trkpt>
      <trkpt lat="47.46027" lon="6.79111">
        <ele>391.39</ele>
        <time>2013-11-11T08:48:52Z</time>
      </trkpt>
      <trkpt lat="47.46023" lon="6.7909">
        <ele>389.95</ele>
        <time>2013-11-11T08:48:55Z</time>
      </trkpt>
      <trkpt lat="47.46005" lon="6.79035">
        <ele>387.55</ele>
        <time>2013-11-11T08:49:02Z</time>
      </trkpt>
      <trkpt lat="47.46003" lon="6.79027">
        <ele>387.07</ele>
        <time>2013-11-11T08:49:03Z</time>
      </trkpt>
      <trkpt lat="47.4597" lon="6.78937">
        <ele>384.18</ele>
        <time>2013-11-11T08:49:14Z</time>
      </trkpt>
      <trkpt lat="47.45928" lon="6.78818">
        <ele>381.3</ele>
        <time>2013-11-11T08:49:28Z</time>
      </trkpt>
      <trkpt lat="47.45926" lon="6.7881">
        <ele>380.82</ele>
        <time>2013-11-11T08:49:29Z</time>
      </trkpt>
      <trkpt lat="47.45882" lon="6.78683">
        <ele>376.49</ele>
        <time>2013-11-11T08:49:44Z</time>
      </trkpt>
      <trkpt lat="47.45837" lon="6.78543">
        <ele>372.17</ele>
        <time>2013-11-11T08:50:01Z</time>
      </trkpt>
      <trkpt lat="47.45813" lon="6.78454">
        <ele>371.21</ele>
        <time>2013-11-11T08:50:14Z</time>
      </trkpt>
      <trkpt lat="47.4581" lon="6.7844">
        <ele>372.17</ele>
        <time>2013-11-11T08:50:19Z</time>
      </trkpt>
      <trkpt lat="47.4581" lon="6.78437">
        <ele>372.17</ele>
        <time>2013-11-11T08:50:20Z</time>
      </trkpt>
      <trkpt lat="47.4581" lon="6.78436">
        <ele>373.61</ele>
        <time>2013-11-11T08:50:33Z</time>
      </trkpt>
      <trkpt lat="47.4581" lon="6.78437">
        <ele>375.05</ele>
        <time>2013-11-11T08:51:05Z</time>
      </trkpt>
      <trkpt lat="47.45809" lon="6.78438">
        <ele>377.94</ele>
        <time>2013-11-11T08:51:28Z</time>
      </trkpt>
      <trkpt lat="47.45808" lon="6.78437">
        <ele>377.94</ele>
        <time>2013-11-11T08:51:29Z</time>
      </trkpt>
      <trkpt lat="47.45803" lon="6.78431">
        <ele>377.45</ele>
        <time>2013-11-11T08:51:32Z</time>
      </trkpt>
      <trkpt lat="47.45793" lon="6.78414">
        <ele>376.49</ele>
        <time>2013-11-11T08:51:36Z</time>
      </trkpt>
      <trkpt lat="47.4579" lon="6.7841">
        <ele>376.01</ele>
        <time>2013-11-11T08:51:37Z</time>
      </trkpt>
      <trkpt lat="47.45785" lon="6.78406">
        <ele>375.53</ele>
        <time>2013-11-11T08:51:38Z</time>
      </trkpt>
      <trkpt lat="47.45774" lon="6.78399">
        <ele>374.57</ele>
        <time>2013-11-11T08:51:40Z</time>
      </trkpt>
      <trkpt lat="47.45768" lon="6.78396">
        <ele>373.61</ele>
        <time>2013-11-11T08:51:41Z</time>
      </trkpt>
      <trkpt lat="47.45685" lon="6.78386">
        <ele>367.36</ele>
        <time>2013-11-11T08:51:54Z</time>
      </trkpt>
      <trkpt lat="47.45601" lon="6.78418">
        <ele>362.55</ele>
        <time>2013-11-11T08:52:08Z</time>
      </trkpt>
      <trkpt lat="47.45505" lon="6.78469">
        <ele>358.23</ele>
        <time>2013-11-11T08:52:26Z</time>
      </trkpt>
      <trkpt lat="47.45468" lon="6.78491">
        <ele>355.83</ele>
        <time>2013-11-11T08:52:33Z</time>
      </trkpt>
      <trkpt lat="47.45457" lon="6.78498">
        <ele>354.86</ele>
        <time>2013-11-11T08:52:36Z</time>
      </trkpt>
      <trkpt lat="47.45456" lon="6.78501">
        <ele>354.86</ele>
        <time>2013-11-11T08:52:37Z</time>
      </trkpt>
      <trkpt lat="47.45432" lon="6.78533">
        <ele>351.98</ele>
        <time>2013-11-11T08:52:47Z</time>
      </trkpt>
      <trkpt lat="47.45429" lon="6.78535">
        <ele>351.5</ele>
        <time>2013-11-11T08:52:48Z</time>
      </trkpt>
      <trkpt lat="47.45398" lon="6.78568">
        <ele>345.73</ele>
        <time>2013-11-11T08:52:59Z</time>
      </trkpt>
      <trkpt lat="47.45399" lon="6.78589">
        <ele>345.25</ele>
        <time>2013-11-11T08:53:03Z</time>
      </trkpt>
      <trkpt lat="47.45401" lon="6.78594">
        <ele>345.25</ele>
        <time>2013-11-11T08:53:04Z</time>
      </trkpt>
      <trkpt lat="47.45404" lon="6.786">
        <ele>345.73</ele>
        <time>2013-11-11T08:53:05Z</time>
      </trkpt>
      <trkpt lat="47.45407" lon="6.78606">
        <ele>346.21</ele>
        <time>2013-11-11T08:53:06Z</time>
      </trkpt>
      <trkpt lat="47.4541" lon="6.78612">
        <ele>346.21</ele>
        <time>2013-11-11T08:53:07Z</time>
      </trkpt>
      <trkpt lat="47.45413" lon="6.78618">
        <ele>346.21</ele>
        <time>2013-11-11T08:53:08Z</time>
      </trkpt>
      <trkpt lat="47.45417" lon="6.78624">
        <ele>346.69</ele>
        <time>2013-11-11T08:53:09Z</time>
      </trkpt>
      <trkpt lat="47.45454" lon="6.78694">
        <ele>347.17</ele>
        <time>2013-11-11T08:53:21Z</time>
      </trkpt>
      <trkpt lat="47.45484" lon="6.78751">
        <ele>347.17</ele>
        <time>2013-11-11T08:53:31Z</time>
      </trkpt>
      <trkpt lat="47.45484" lon="6.78757">
        <ele>347.17</ele>
        <time>2013-11-11T08:53:32Z</time>
      </trkpt>
      <trkpt lat="47.45482" lon="6.78763">
        <ele>347.17</ele>
        <time>2013-11-11T08:53:33Z</time>
      </trkpt>
      <trkpt lat="47.45479" lon="6.78768">
        <ele>346.69</ele>
        <time>2013-11-11T08:53:34Z</time>
      </trkpt>
      <trkpt lat="47.45475" lon="6.78773">
        <ele>346.69</ele>
        <time>2013-11-11T08:53:35Z</time>
      </trkpt>
      <trkpt lat="47.45466" lon="6.78784">
        <ele>345.73</ele>
        <time>2013-11-11T08:53:37Z</time>
      </trkpt>
      <trkpt lat="47.45452" lon="6.78802">
        <ele>345.25</ele>
        <time>2013-11-11T08:53:40Z</time>
      </trkpt>
      <trkpt lat="47.45448" lon="6.78807">
        <ele>344.77</ele>
        <time>2013-11-11T08:53:41Z</time>
      </trkpt>
      <trkpt lat="47.45444" lon="6.78812">
        <ele>344.77</ele>
        <time>2013-11-11T08:53:42Z</time>
      </trkpt>
      <trkpt lat="47.45417" lon="6.78845">
        <ele>342.85</ele>
        <time>2013-11-11T08:53:48Z</time>
      </trkpt>
      <trkpt lat="47.45408" lon="6.78854">
        <ele>342.37</ele>
        <time>2013-11-11T08:53:50Z</time>
      </trkpt>
      <trkpt lat="47.45395" lon="6.78873">
        <ele>341.41</ele>
        <time>2013-11-11T08:53:54Z</time>
      </trkpt>
      <trkpt lat="47.45392" lon="6.78878">
        <ele>341.41</ele>
        <time>2013-11-11T08:53:55Z</time>
      </trkpt>
      <trkpt lat="47.4539" lon="6.78884">
        <ele>340.92</ele>
        <time>2013-11-11T08:53:56Z</time>
      </trkpt>
      <trkpt lat="47.45386" lon="6.78888">
        <ele>340.92</ele>
        <time>2013-11-11T08:53:57Z</time>
      </trkpt>
      <trkpt lat="47.45383" lon="6.78891">
        <ele>340.92</ele>
        <time>2013-11-11T08:53:58Z</time>
      </trkpt>
      <trkpt lat="47.45376" lon="6.78897">
        <ele>340.92</ele>
        <time>2013-11-11T08:54:00Z</time>
      </trkpt>
      <trkpt lat="47.45373" lon="6.78902">
        <ele>340.92</ele>
        <time>2013-11-11T08:54:01Z</time>
      </trkpt>
      <trkpt lat="47.45369" lon="6.78907">
        <ele>340.92</ele>
        <time>2013-11-11T08:54:02Z</time>
      </trkpt>
      <trkpt lat="47.45364" lon="6.78911">
        <ele>340.44</ele>
        <time>2013-11-11T08:54:03Z</time>
      </trkpt>
      <trkpt lat="47.4536" lon="6.78916">
        <ele>340.44</ele>
        <time>2013-11-11T08:54:04Z</time>
      </trkpt>
      <trkpt lat="47.45357" lon="6.78921">
        <ele>340.44</ele>
        <time>2013-11-11T08:54:05Z</time>
      </trkpt>
      <trkpt lat="47.45354" lon="6.78926">
        <ele>340.44</ele>
        <time>2013-11-11T08:54:06Z</time>
      </trkpt>
      <trkpt lat="47.45351" lon="6.78932">
        <ele>340.44</ele>
        <time>2013-11-11T08:54:07Z</time>
      </trkpt>
      <trkpt lat="47.45348" lon="6.78937">
        <ele>340.44</ele>
        <time>2013-11-11T08:54:08Z</time>
      </trkpt>
      <trkpt lat="47.45341" lon="6.78947">
        <ele>339.96</ele>
        <time>2013-11-11T08:54:10Z</time>
      </trkpt>
      <trkpt lat="47.45338" lon="6.78951">
        <ele>339.96</ele>
        <time>2013-11-11T08:54:11Z</time>
      </trkpt>
      <trkpt lat="47.45311" lon="6.78982">
        <ele>339.48</ele>
        <time>2013-11-11T08:54:20Z</time>
      </trkpt>
      <trkpt lat="47.45302" lon="6.78994">
        <ele>338.52</ele>
        <time>2013-11-11T08:54:23Z</time>
      </trkpt>
      <trkpt lat="47.45293" lon="6.79008">
        <ele>338.52</ele>
        <time>2013-11-11T08:54:26Z</time>
      </trkpt>
      <trkpt lat="47.45281" lon="6.7903">
        <ele>339</ele>
        <time>2013-11-11T08:54:30Z</time>
      </trkpt>
      <trkpt lat="47.45278" lon="6.79036">
        <ele>339.48</ele>
        <time>2013-11-11T08:54:31Z</time>
      </trkpt>
      <trkpt lat="47.45274" lon="6.79046">
        <ele>339.48</ele>
        <time>2013-11-11T08:54:33Z</time>
      </trkpt>
      <trkpt lat="47.45273" lon="6.79052">
        <ele>339.96</ele>
        <time>2013-11-11T08:54:34Z</time>
      </trkpt>
      <trkpt lat="47.45261" lon="6.79093">
        <ele>342.37</ele>
        <time>2013-11-11T08:54:41Z</time>
      </trkpt>
      <trkpt lat="47.45254" lon="6.7911">
        <ele>343.33</ele>
        <time>2013-11-11T08:54:44Z</time>
      </trkpt>
      <trkpt lat="47.45252" lon="6.79115">
        <ele>343.81</ele>
        <time>2013-11-11T08:54:45Z</time>
      </trkpt>
      <trkpt lat="47.4525" lon="6.7912">
        <ele>344.29</ele>
        <time>2013-11-11T08:54:46Z</time>
      </trkpt>
      <trkpt lat="47.45247" lon="6.79125">
        <ele>344.29</ele>
        <time>2013-11-11T08:54:47Z</time>
      </trkpt>
      <trkpt lat="47.45244" lon="6.79129">
        <ele>344.29</ele>
        <time>2013-11-11T08:54:48Z</time>
      </trkpt>
      <trkpt lat="47.45241" lon="6.79131">
        <ele>343.81</ele>
        <time>2013-11-11T08:54:49Z</time>
      </trkpt>
      <trkpt lat="47.45238" lon="6.79132">
        <ele>343.81</ele>
        <time>2013-11-11T08:54:50Z</time>
      </trkpt>
      <trkpt lat="47.45234" lon="6.79132">
        <ele>343.33</ele>
        <time>2013-11-11T08:54:51Z</time>
      </trkpt>
      <trkpt lat="47.45232" lon="6.79132">
        <ele>343.33</ele>
        <time>2013-11-11T08:54:52Z</time>
      </trkpt>
      <trkpt lat="47.4523" lon="6.79133">
        <ele>343.81</ele>
        <time>2013-11-11T08:54:53Z</time>
      </trkpt>
      <trkpt lat="47.45228" lon="6.79135">
        <ele>343.81</ele>
        <time>2013-11-11T08:54:54Z</time>
      </trkpt>
      <trkpt lat="47.45227" lon="6.79137">
        <ele>343.81</ele>
        <time>2013-11-11T08:54:55Z</time>
      </trkpt>
      <trkpt lat="47.45226" lon="6.79139">
        <ele>344.29</ele>
        <time>2013-11-11T08:54:56Z</time>
      </trkpt>
      <trkpt lat="47.45225" lon="6.79142">
        <ele>344.29</ele>
        <time>2013-11-11T08:54:57Z</time>
      </trkpt>
      <trkpt lat="47.45223" lon="6.79145">
        <ele>344.29</ele>
        <time>2013-11-11T08:54:58Z</time>
      </trkpt>
      <trkpt lat="47.45209" lon="6.79206">
        <ele>345.73</ele>
        <time>2013-11-11T08:55:09Z</time>
      </trkpt>
      <trkpt lat="47.45201" lon="6.79234">
        <ele>346.21</ele>
        <time>2013-11-11T08:55:14Z</time>
      </trkpt>
      <trkpt lat="47.45198" lon="6.79237">
        <ele>345.73</ele>
        <time>2013-11-11T08:55:15Z</time>
      </trkpt>
      <trkpt lat="47.45195" lon="6.7924">
        <ele>345.73</ele>
        <time>2013-11-11T08:55:16Z</time>
      </trkpt>
      <trkpt lat="47.45193" lon="6.79246">
        <ele>345.25</ele>
        <time>2013-11-11T08:55:17Z</time>
      </trkpt>
      <trkpt lat="47.45191" lon="6.79252">
        <ele>345.25</ele>
        <time>2013-11-11T08:55:18Z</time>
      </trkpt>
      <trkpt lat="47.45189" lon="6.79259">
        <ele>345.25</ele>
        <time>2013-11-11T08:55:19Z</time>
      </trkpt>
      <trkpt lat="47.45161" lon="6.79382">
        <ele>347.17</ele>
        <time>2013-11-11T08:55:36Z</time>
      </trkpt>
      <trkpt lat="47.45135" lon="6.79499">
        <ele>348.62</ele>
        <time>2013-11-11T08:55:53Z</time>
      </trkpt>
      <trkpt lat="47.45132" lon="6.79512">
        <ele>349.1</ele>
        <time>2013-11-11T08:55:55Z</time>
      </trkpt>
      <trkpt lat="47.45125" lon="6.79548">
        <ele>349.1</ele>
        <time>2013-11-11T08:56:04Z</time>
      </trkpt>
      <trkpt lat="47.45125" lon="6.79549">
        <ele>348.62</ele>
        <time>2013-11-11T08:56:05Z</time>
      </trkpt>
      <trkpt lat="47.45127" lon="6.79549">
        <ele>348.62</ele>
        <time>2013-11-11T08:56:06Z</time>
      </trkpt>
      <trkpt lat="47.45129" lon="6.79547">
        <ele>348.62</ele>
        <time>2013-11-11T08:56:07Z</time>
      </trkpt>
      <trkpt lat="47.45129" lon="6.79542">
        <ele>348.62</ele>
        <time>2013-11-11T08:56:08Z</time>
      </trkpt>
      <trkpt lat="47.45128" lon="6.79539">
        <ele>348.62</ele>
        <time>2013-11-11T08:56:09Z</time>
      </trkpt>
      <trkpt lat="47.45126" lon="6.79536">
        <ele>348.62</ele>
        <time>2013-11-11T08:56:10Z</time>
      </trkpt>
      <trkpt lat="47.45121" lon="6.79535">
        <ele>348.13</ele>
        <time>2013-11-11T08:56:13Z</time>
      </trkpt>
      <trkpt lat="47.45089" lon="6.79578">
        <ele>345.73</ele>
        <time>2013-11-11T08:56:24Z</time>
      </trkpt>
      <trkpt lat="47.45086" lon="6.79582">
        <ele>345.73</ele>
        <time>2013-11-11T08:56:25Z</time>
      </trkpt>
      <trkpt lat="47.45055" lon="6.79621">
        <ele>346.21</ele>
        <time>2013-11-11T08:56:35Z</time>
      </trkpt>
      <trkpt lat="47.45051" lon="6.79622">
        <ele>346.21</ele>
        <time>2013-11-11T08:56:37Z</time>
      </trkpt>
      <trkpt lat="47.45049" lon="6.7962">
        <ele>345.73</ele>
        <time>2013-11-11T08:56:38Z</time>
      </trkpt>
      <trkpt lat="47.45045" lon="6.79612">
        <ele>345.73</ele>
        <time>2013-11-11T08:56:40Z</time>
      </trkpt>
      <trkpt lat="47.45042" lon="6.79607">
        <ele>345.73</ele>
        <time>2013-11-11T08:56:41Z</time>
      </trkpt>
      <trkpt lat="47.45034" lon="6.79591">
        <ele>345.73</ele>
        <time>2013-11-11T08:56:44Z</time>
      </trkpt>
      <trkpt lat="47.45015" lon="6.79561">
        <ele>345.73</ele>
        <time>2013-11-11T08:56:50Z</time>
      </trkpt>
      <trkpt lat="47.45012" lon="6.79557">
        <ele>345.73</ele>
        <time>2013-11-11T08:56:51Z</time>
      </trkpt>
      <trkpt lat="47.45009" lon="6.79555">
        <ele>345.73</ele>
        <time>2013-11-11T08:56:52Z</time>
      </trkpt>
      <trkpt lat="47.45006" lon="6.79554">
        <ele>345.73</ele>
        <time>2013-11-11T08:56:53Z</time>
      </trkpt>
      <trkpt lat="47.45002" lon="6.79555">
        <ele>345.73</ele>
        <time>2013-11-11T08:56:54Z</time>
      </trkpt>
      <trkpt lat="47.44999" lon="6.79558">
        <ele>345.25</ele>
        <time>2013-11-11T08:56:55Z</time>
      </trkpt>
      <trkpt lat="47.44997" lon="6.79561">
        <ele>345.25</ele>
        <time>2013-11-11T08:56:56Z</time>
      </trkpt>
      <trkpt lat="47.44995" lon="6.79565">
        <ele>344.77</ele>
        <time>2013-11-11T08:56:57Z</time>
      </trkpt>
      <trkpt lat="47.44964" lon="6.79591">
        <ele>343.81</ele>
        <time>2013-11-11T08:57:10Z</time>
      </trkpt>
      <trkpt lat="47.44932" lon="6.79591">
        <ele>343.33</ele>
        <time>2013-11-11T08:57:22Z</time>
      </trkpt>
      <trkpt lat="47.44923" lon="6.79589">
        <ele>342.85</ele>
        <time>2013-11-11T08:57:28Z</time>
      </trkpt>
      <trkpt lat="47.44922" lon="6.79587">
        <ele>342.85</ele>
        <time>2013-11-11T08:57:29Z</time>
      </trkpt>
      <trkpt lat="47.44918" lon="6.79592">
        <ele>341.41</ele>
        <time>2013-11-11T08:57:39Z</time>
      </trkpt>
      <trkpt lat="47.44919" lon="6.79593">
        <ele>341.89</ele>
        <time>2013-11-11T08:57:40Z</time>
      </trkpt>
      <trkpt lat="47.44919" lon="6.79594">
        <ele>341.89</ele>
        <time>2013-11-11T08:57:41Z</time>
      </trkpt>
      <trkpt lat="47.4492" lon="6.79595">
        <ele>341.89</ele>
        <time>2013-11-11T08:57:42Z</time>
      </trkpt>
      <trkpt lat="47.44921" lon="6.79594">
        <ele>342.37</ele>
        <time>2013-11-11T08:57:43Z</time>
      </trkpt>
      <trkpt lat="47.44923" lon="6.79594">
        <ele>342.85</ele>
        <time>2013-11-11T08:57:44Z</time>
      </trkpt>
      <trkpt lat="47.44924" lon="6.79595">
        <ele>342.85</ele>
        <time>2013-11-11T08:57:45Z</time>
      </trkpt>
      <trkpt lat="47.44921" lon="6.79594">
        <ele>341.89</ele>
        <time>2013-11-11T08:58:00Z</time>
      </trkpt>
      <trkpt lat="47.44923" lon="6.79597">
        <ele>343.81</ele>
        <time>2013-11-11T08:58:18Z</time>
      </trkpt>
      <trkpt lat="47.44922" lon="6.79599">
        <ele>345.25</ele>
        <time>2013-11-11T08:58:49Z</time>
      </trkpt>
      <trkpt lat="47.44924" lon="6.796">
        <ele>344.29</ele>
        <time>2013-11-11T08:59:22Z</time>
      </trkpt>
      <trkpt lat="47.44922" lon="6.79597">
        <ele>346.21</ele>
        <time>2013-11-11T08:59:50Z</time>
      </trkpt>
      <trkpt lat="47.44922" lon="6.79597">
        <ele>346.21</ele>
        <time>2013-11-11T08:59:56Z</time>
      </trkpt>
      <trkpt lat="47.44925" lon="6.79585">
        <ele>346.21</ele>
        <time>2013-11-11T09:00:03Z</time>
      </trkpt>
      <trkpt lat="47.44923" lon="6.79582">
        <ele>346.21</ele>
        <time>2013-11-11T09:00:05Z</time>
      </trkpt>
      <trkpt lat="47.44923" lon="6.7958">
        <ele>345.73</ele>
        <time>2013-11-11T09:00:06Z</time>
      </trkpt>
      <trkpt lat="47.44922" lon="6.79579">
        <ele>345.73</ele>
        <time>2013-11-11T09:00:07Z</time>
      </trkpt>
      <trkpt lat="47.44909" lon="6.79543">
        <ele>346.21</ele>
        <time>2013-11-11T09:00:19Z</time>
      </trkpt>
      <trkpt lat="47.44905" lon="6.79532">
        <ele>345.25</ele>
        <time>2013-11-11T09:00:23Z</time>
      </trkpt>
      <trkpt lat="47.44899" lon="6.7952">
        <ele>344.77</ele>
        <time>2013-11-11T09:00:28Z</time>
      </trkpt>
      <trkpt lat="47.44894" lon="6.79484">
        <ele>344.29</ele>
        <time>2013-11-11T09:00:41Z</time>
      </trkpt>
      <trkpt lat="47.44894" lon="6.79481">
        <ele>344.29</ele>
        <time>2013-11-11T09:00:42Z</time>
      </trkpt>
      <trkpt lat="47.44896" lon="6.79466">
        <ele>343.33</ele>
        <time>2013-11-11T09:00:48Z</time>
      </trkpt>
      <trkpt lat="47.44894" lon="6.79456">
        <ele>341.89</ele>
        <time>2013-11-11T09:01:00Z</time>
      </trkpt>
      <trkpt lat="47.4489" lon="6.79451">
        <ele>340.92</ele>
        <time>2013-11-11T09:01:07Z</time>
      </trkpt>
      <trkpt lat="47.44887" lon="6.79449">
        <ele>340.92</ele>
        <time>2013-11-11T09:01:09Z</time>
      </trkpt>
      <trkpt lat="47.44885" lon="6.79448">
        <ele>340.92</ele>
        <time>2013-11-11T09:01:10Z</time>
      </trkpt>
      <trkpt lat="47.44883" lon="6.79446">
        <ele>340.44</ele>
        <time>2013-11-11T09:01:11Z</time>
      </trkpt>
      <trkpt lat="47.44881" lon="6.79445">
        <ele>340.92</ele>
        <time>2013-11-11T09:01:12Z</time>
      </trkpt>
      <trkpt lat="47.44878" lon="6.79442">
        <ele>340.92</ele>
        <time>2013-11-11T09:01:13Z</time>
      </trkpt>
      <trkpt lat="47.44876" lon="6.7944">
        <ele>340.92</ele>
        <time>2013-11-11T09:01:14Z</time>
      </trkpt>
      <trkpt lat="47.44874" lon="6.79438">
        <ele>340.92</ele>
        <time>2013-11-11T09:01:15Z</time>
      </trkpt>
      <trkpt lat="47.44871" lon="6.79437">
        <ele>340.92</ele>
        <time>2013-11-11T09:01:16Z</time>
      </trkpt>
      <trkpt lat="47.44869" lon="6.79435">
        <ele>340.92</ele>
        <time>2013-11-11T09:01:17Z</time>
      </trkpt>
      <trkpt lat="47.44867" lon="6.79434">
        <ele>340.92</ele>
        <time>2013-11-11T09:01:18Z</time>
      </trkpt>
      <trkpt lat="47.44864" lon="6.79432">
        <ele>340.92</ele>
        <time>2013-11-11T09:01:19Z</time>
      </trkpt>
      <trkpt lat="47.4483" lon="6.79404">
        <ele>340.92</ele>
        <time>2013-11-11T09:01:32Z</time>
      </trkpt>
      <trkpt lat="47.44806" lon="6.79385">
        <ele>340.92</ele>
        <time>2013-11-11T09:01:39Z</time>
      </trkpt>
      <trkpt lat="47.4475" lon="6.79349">
        <ele>340.92</ele>
        <time>2013-11-11T09:01:53Z</time>
      </trkpt>
      <trkpt lat="47.44746" lon="6.79347">
        <ele>341.41</ele>
        <time>2013-11-11T09:01:54Z</time>
      </trkpt>
      <trkpt lat="47.44675" lon="6.79307">
        <ele>340.92</ele>
        <time>2013-11-11T09:02:11Z</time>
      </trkpt>
      <trkpt lat="47.44622" lon="6.79279">
        <ele>340.92</ele>
        <time>2013-11-11T09:02:24Z</time>
      </trkpt>
      <trkpt lat="47.44542" lon="6.79245">
        <ele>341.41</ele>
        <time>2013-11-11T09:02:43Z</time>
      </trkpt>
      <trkpt lat="47.44458" lon="6.79207">
        <ele>342.85</ele>
        <time>2013-11-11T09:03:02Z</time>
      </trkpt>
      <trkpt lat="47.44387" lon="6.79172">
        <ele>341.41</ele>
        <time>2013-11-11T09:03:17Z</time>
      </trkpt>
      <trkpt lat="47.44321" lon="6.79141">
        <ele>343.33</ele>
        <time>2013-11-11T09:03:32Z</time>
      </trkpt>
      <trkpt lat="47.44308" lon="6.79134">
        <ele>343.81</ele>
        <time>2013-11-11T09:03:35Z</time>
      </trkpt>
      <trkpt lat="47.44236" lon="6.79095">
        <ele>344.77</ele>
        <time>2013-11-11T09:03:52Z</time>
      </trkpt>
      <trkpt lat="47.44156" lon="6.79065">
        <ele>343.33</ele>
        <time>2013-11-11T09:04:10Z</time>
      </trkpt>
      <trkpt lat="47.44082" lon="6.79051">
        <ele>342.37</ele>
        <time>2013-11-11T09:04:26Z</time>
      </trkpt>
      <trkpt lat="47.43987" lon="6.79046">
        <ele>340.92</ele>
        <time>2013-11-11T09:04:45Z</time>
      </trkpt>
      <trkpt lat="47.43905" lon="6.7906">
        <ele>339.96</ele>
        <time>2013-11-11T09:05:01Z</time>
      </trkpt>
      <trkpt lat="47.43829" lon="6.79073">
        <ele>340.44</ele>
        <time>2013-11-11T09:05:17Z</time>
      </trkpt>
      <trkpt lat="47.4379" lon="6.79086">
        <ele>341.89</ele>
        <time>2013-11-11T09:05:30Z</time>
      </trkpt>
      <trkpt lat="47.4376" lon="6.79097">
        <ele>348.13</ele>
        <time>2013-11-11T09:05:43Z</time>
      </trkpt>
      <trkpt lat="47.43723" lon="6.79109">
        <ele>356.79</ele>
        <time>2013-11-11T09:05:56Z</time>
      </trkpt>
      <trkpt lat="47.4368" lon="6.79122">
        <ele>364.96</ele>
        <time>2013-11-11T09:06:08Z</time>
      </trkpt>
      <trkpt lat="47.43628" lon="6.79138">
        <ele>372.65</ele>
        <time>2013-11-11T09:06:22Z</time>
      </trkpt>
      <trkpt lat="47.43591" lon="6.79157">
        <ele>374.09</ele>
        <time>2013-11-11T09:06:33Z</time>
      </trkpt>
      <trkpt lat="47.43555" lon="6.79184">
        <ele>371.69</ele>
        <time>2013-11-11T09:06:46Z</time>
      </trkpt>
      <trkpt lat="47.43525" lon="6.792">
        <ele>368.32</ele>
        <time>2013-11-11T09:06:57Z</time>
      </trkpt>
      <trkpt lat="47.435" lon="6.79212">
        <ele>366.88</ele>
        <time>2013-11-11T09:07:08Z</time>
      </trkpt>
      <trkpt lat="47.43463" lon="6.79227">
        <ele>365.92</ele>
        <time>2013-11-11T09:07:20Z</time>
      </trkpt>
      <trkpt lat="47.43415" lon="6.7924">
        <ele>366.88</ele>
        <time>2013-11-11T09:07:32Z</time>
      </trkpt>
      <trkpt lat="47.43397" lon="6.79248">
        <ele>365.92</ele>
        <time>2013-11-11T09:07:36Z</time>
      </trkpt>
      <trkpt lat="47.43367" lon="6.79256">
        <ele>365.44</ele>
        <time>2013-11-11T09:07:42Z</time>
      </trkpt>
      <trkpt lat="47.43332" lon="6.79257">
        <ele>365.92</ele>
        <time>2013-11-11T09:07:50Z</time>
      </trkpt>
      <trkpt lat="47.43328" lon="6.79256">
        <ele>366.4</ele>
        <time>2013-11-11T09:07:51Z</time>
      </trkpt>
      <trkpt lat="47.43285" lon="6.79253">
        <ele>366.4</ele>
        <time>2013-11-11T09:08:02Z</time>
      </trkpt>
      <trkpt lat="47.43244" lon="6.79257">
        <ele>368.8</ele>
        <time>2013-11-11T09:08:13Z</time>
      </trkpt>
      <trkpt lat="47.43223" lon="6.79246">
        <ele>369.76</ele>
        <time>2013-11-11T09:08:18Z</time>
      </trkpt>
      <trkpt lat="47.4321" lon="6.79233">
        <ele>369.76</ele>
        <time>2013-11-11T09:08:21Z</time>
      </trkpt>
      <trkpt lat="47.43196" lon="6.79226">
        <ele>370.24</ele>
        <time>2013-11-11T09:08:24Z</time>
      </trkpt>
      <trkpt lat="47.43192" lon="6.79225">
        <ele>370.24</ele>
        <time>2013-11-11T09:08:25Z</time>
      </trkpt>
      <trkpt lat="47.43118" lon="6.79213">
        <ele>366.4</ele>
        <time>2013-11-11T09:08:37Z</time>
      </trkpt>
      <trkpt lat="47.43082" lon="6.792">
        <ele>364.48</ele>
        <time>2013-11-11T09:08:43Z</time>
      </trkpt>
      <trkpt lat="47.43065" lon="6.79197">
        <ele>363.52</ele>
        <time>2013-11-11T09:08:46Z</time>
      </trkpt>
      <trkpt lat="47.43059" lon="6.79194">
        <ele>363.04</ele>
        <time>2013-11-11T09:08:47Z</time>
      </trkpt>
      <trkpt lat="47.42995" lon="6.79171">
        <ele>362.07</ele>
        <time>2013-11-11T09:08:57Z</time>
      </trkpt>
      <trkpt lat="47.42983" lon="6.79169">
        <ele>362.07</ele>
        <time>2013-11-11T09:08:59Z</time>
      </trkpt>
      <trkpt lat="47.42965" lon="6.7917">
        <ele>362.55</ele>
        <time>2013-11-11T09:09:02Z</time>
      </trkpt>
      <trkpt lat="47.42921" lon="6.79179">
        <ele>361.11</ele>
        <time>2013-11-11T09:09:09Z</time>
      </trkpt>
      <trkpt lat="47.42855" lon="6.79186">
        <ele>366.88</ele>
        <time>2013-11-11T09:09:21Z</time>
      </trkpt>
      <trkpt lat="47.42825" lon="6.79192">
        <ele>366.88</ele>
        <time>2013-11-11T09:09:27Z</time>
      </trkpt>
      <trkpt lat="47.42767" lon="6.7919">
        <ele>364.48</ele>
        <time>2013-11-11T09:09:40Z</time>
      </trkpt>
      <trkpt lat="47.42762" lon="6.79189">
        <ele>364</ele>
        <time>2013-11-11T09:09:41Z</time>
      </trkpt>
      <trkpt lat="47.42758" lon="6.79189">
        <ele>363.52</ele>
        <time>2013-11-11T09:09:42Z</time>
      </trkpt>
      <trkpt lat="47.42734" lon="6.7919">
        <ele>363.04</ele>
        <time>2013-11-11T09:09:47Z</time>
      </trkpt>
      <trkpt lat="47.42658" lon="6.79197">
        <ele>359.67</ele>
        <time>2013-11-11T09:10:02Z</time>
      </trkpt>
      <trkpt lat="47.42587" lon="6.79208">
        <ele>357.27</ele>
        <time>2013-11-11T09:10:15Z</time>
      </trkpt>
      <trkpt lat="47.42552" lon="6.79217">
        <ele>358.71</ele>
        <time>2013-11-11T09:10:24Z</time>
      </trkpt>
      <trkpt lat="47.42543" lon="6.7922">
        <ele>358.71</ele>
        <time>2013-11-11T09:10:26Z</time>
      </trkpt>
      <trkpt lat="47.42501" lon="6.79234">
        <ele>359.67</ele>
        <time>2013-11-11T09:10:35Z</time>
      </trkpt>
      <trkpt lat="47.42459" lon="6.79243">
        <ele>360.63</ele>
        <time>2013-11-11T09:10:47Z</time>
      </trkpt>
      <trkpt lat="47.42412" lon="6.79243">
        <ele>365.44</ele>
        <time>2013-11-11T09:11:00Z</time>
      </trkpt>
      <trkpt lat="47.42376" lon="6.79228">
        <ele>368.8</ele>
        <time>2013-11-11T09:11:11Z</time>
      </trkpt>
      <trkpt lat="47.42342" lon="6.79218">
        <ele>364.96</ele>
        <time>2013-11-11T09:11:24Z</time>
      </trkpt>
      <trkpt lat="47.42303" lon="6.79209">
        <ele>362.55</ele>
        <time>2013-11-11T09:11:35Z</time>
      </trkpt>
      <trkpt lat="47.42299" lon="6.79208">
        <ele>362.55</ele>
        <time>2013-11-11T09:11:36Z</time>
      </trkpt>
      <trkpt lat="47.42221" lon="6.79187">
        <ele>363.52</ele>
        <time>2013-11-11T09:11:51Z</time>
      </trkpt>
      <trkpt lat="47.42207" lon="6.79179">
        <ele>364.48</ele>
        <time>2013-11-11T09:11:54Z</time>
      </trkpt>
      <trkpt lat="47.42186" lon="6.79161">
        <ele>365.44</ele>
        <time>2013-11-11T09:11:59Z</time>
      </trkpt>
      <trkpt lat="47.42161" lon="6.79149">
        <ele>365.92</ele>
        <time>2013-11-11T09:12:04Z</time>
      </trkpt>
      <trkpt lat="47.42097" lon="6.79139">
        <ele>366.88</ele>
        <time>2013-11-11T09:12:15Z</time>
      </trkpt>
      <trkpt lat="47.42028" lon="6.79137">
        <ele>364</ele>
        <time>2013-11-11T09:12:28Z</time>
      </trkpt>
      <trkpt lat="47.41971" lon="6.7915">
        <ele>363.04</ele>
        <time>2013-11-11T09:12:40Z</time>
      </trkpt>
      <trkpt lat="47.419" lon="6.79163">
        <ele>364</ele>
        <time>2013-11-11T09:12:55Z</time>
      </trkpt>
      <trkpt lat="47.4185" lon="6.79181">
        <ele>361.59</ele>
        <time>2013-11-11T09:13:09Z</time>
      </trkpt>
      <trkpt lat="47.4185" lon="6.79186">
        <ele>360.15</ele>
        <time>2013-11-11T09:13:22Z</time>
      </trkpt>
      <trkpt lat="47.41847" lon="6.79185">
        <ele>357.75</ele>
        <time>2013-11-11T09:13:35Z</time>
      </trkpt>
      <trkpt lat="47.41849" lon="6.79182">
        <ele>358.23</ele>
        <time>2013-11-11T09:13:41Z</time>
      </trkpt>
      <trkpt lat="47.41844" lon="6.79186">
        <ele>358.23</ele>
        <time>2013-11-11T09:13:47Z</time>
      </trkpt>
      <trkpt lat="47.41844" lon="6.79188">
        <ele>359.67</ele>
        <time>2013-11-11T09:13:56Z</time>
      </trkpt>
      <trkpt lat="47.41843" lon="6.79193">
        <ele>360.15</ele>
        <time>2013-11-11T09:13:58Z</time>
      </trkpt>
      <trkpt lat="47.41845" lon="6.79197">
        <ele>361.59</ele>
        <time>2013-11-11T09:14:14Z</time>
      </trkpt>
      <trkpt lat="47.41844" lon="6.79197">
        <ele>362.07</ele>
        <time>2013-11-11T09:14:26Z</time>
      </trkpt>
      <trkpt lat="47.41841" lon="6.79195">
        <ele>365.92</ele>
        <time>2013-11-11T09:14:41Z</time>
      </trkpt>
      <trkpt lat="47.41839" lon="6.79201">
        <ele>365.44</ele>
        <time>2013-11-11T09:15:01Z</time>
      </trkpt>
      <trkpt lat="47.41839" lon="6.79198">
        <ele>364.48</ele>
        <time>2013-11-11T09:15:30Z</time>
      </trkpt>
      <trkpt lat="47.4184" lon="6.79195">
        <ele>363.52</ele>
        <time>2013-11-11T09:16:08Z</time>
      </trkpt>
      <trkpt lat="47.41837" lon="6.79189">
        <ele>361.11</ele>
        <time>2013-11-11T09:16:23Z</time>
      </trkpt>
      <trkpt lat="47.4182" lon="6.79193">
        <ele>364.96</ele>
        <time>2013-11-11T09:16:35Z</time>
      </trkpt>
      <trkpt lat="47.41807" lon="6.79199">
        <ele>367.84</ele>
        <time>2013-11-11T09:16:47Z</time>
      </trkpt>
      <trkpt lat="47.41799" lon="6.79207">
        <ele>366.4</ele>
        <time>2013-11-11T09:17:04Z</time>
      </trkpt>
      <trkpt lat="47.41796" lon="6.79208">
        <ele>365.92</ele>
        <time>2013-11-11T09:17:41Z</time>
      </trkpt>
      <trkpt lat="47.41795" lon="6.79208">
        <ele>366.88</ele>
        <time>2013-11-11T09:18:12Z</time>
      </trkpt>
      <trkpt lat="47.41793" lon="6.79216">
        <ele>367.84</ele>
        <time>2013-11-11T09:18:25Z</time>
      </trkpt>
      <trkpt lat="47.41785" lon="6.79228">
        <ele>370.73</ele>
        <time>2013-11-11T09:18:38Z</time>
      </trkpt>
      <trkpt lat="47.41784" lon="6.79229">
        <ele>371.21</ele>
        <time>2013-11-11T09:18:39Z</time>
      </trkpt>
      <trkpt lat="47.4178" lon="6.79236">
        <ele>372.65</ele>
        <time>2013-11-11T09:18:44Z</time>
      </trkpt>
      <trkpt lat="47.41774" lon="6.79252">
        <ele>374.57</ele>
        <time>2013-11-11T09:18:58Z</time>
      </trkpt>
      <trkpt lat="47.41769" lon="6.79264">
        <ele>377.94</ele>
        <time>2013-11-11T09:19:11Z</time>
      </trkpt>
      <trkpt lat="47.41769" lon="6.79266">
        <ele>377.94</ele>
        <time>2013-11-11T09:19:26Z</time>
      </trkpt>
      <trkpt lat="47.41772" lon="6.79262">
        <ele>377.45</ele>
        <time>2013-11-11T09:19:44Z</time>
      </trkpt>
      <trkpt lat="47.41766" lon="6.79265">
        <ele>377.45</ele>
        <time>2013-11-11T09:19:59Z</time>
      </trkpt>
      <trkpt lat="47.41756" lon="6.79259">
        <ele>379.38</ele>
        <time>2013-11-11T09:20:06Z</time>
      </trkpt>
      <trkpt lat="47.41736" lon="6.79249">
        <ele>381.78</ele>
        <time>2013-11-11T09:20:20Z</time>
      </trkpt>
      <trkpt lat="47.41721" lon="6.79241">
        <ele>385.15</ele>
        <time>2013-11-11T09:20:35Z</time>
      </trkpt>
      <trkpt lat="47.41708" lon="6.79221">
        <ele>389.47</ele>
        <time>2013-11-11T09:20:48Z</time>
      </trkpt>
      <trkpt lat="47.41695" lon="6.79202">
        <ele>391.39</ele>
        <time>2013-11-11T09:21:00Z</time>
      </trkpt>
      <trkpt lat="47.41682" lon="6.79188">
        <ele>389.95</ele>
        <time>2013-11-11T09:21:18Z</time>
      </trkpt>
      <trkpt lat="47.41676" lon="6.79177">
        <ele>392.36</ele>
        <time>2013-11-11T09:21:29Z</time>
      </trkpt>
      <trkpt lat="47.41673" lon="6.79172">
        <ele>391.87</ele>
        <time>2013-11-11T09:21:57Z</time>
      </trkpt>
      <trkpt lat="47.41672" lon="6.79168">
        <ele>391.87</ele>
        <time>2013-11-11T09:22:14Z</time>
      </trkpt>
      <trkpt lat="47.41671" lon="6.79168">
        <ele>390.91</ele>
        <time>2013-11-11T09:22:17Z</time>
      </trkpt>
      <trkpt lat="47.41679" lon="6.79183">
        <ele>389.47</ele>
        <time>2013-11-11T09:22:29Z</time>
      </trkpt>
      <trkpt lat="47.41691" lon="6.79201">
        <ele>388.51</ele>
        <time>2013-11-11T09:22:41Z</time>
      </trkpt>
      <trkpt lat="47.41694" lon="6.79205">
        <ele>387.55</ele>
        <time>2013-11-11T09:22:44Z</time>
      </trkpt>
      <trkpt lat="47.41704" lon="6.79217">
        <ele>386.59</ele>
        <time>2013-11-11T09:22:51Z</time>
      </trkpt>
      <trkpt lat="47.41708" lon="6.79222">
        <ele>385.63</ele>
        <time>2013-11-11T09:22:56Z</time>
      </trkpt>
      <trkpt lat="47.41714" lon="6.79228">
        <ele>386.11</ele>
        <time>2013-11-11T09:23:01Z</time>
      </trkpt>
      <trkpt lat="47.41726" lon="6.79236">
        <ele>389.47</ele>
        <time>2013-11-11T09:23:12Z</time>
      </trkpt>
      <trkpt lat="47.41747" lon="6.79253">
        <ele>388.99</ele>
        <time>2013-11-11T09:23:24Z</time>
      </trkpt>
      <trkpt lat="47.41748" lon="6.79255">
        <ele>388.51</ele>
        <time>2013-11-11T09:23:25Z</time>
      </trkpt>
      <trkpt lat="47.41754" lon="6.79289">
        <ele>387.55</ele>
        <time>2013-11-11T09:23:39Z</time>
      </trkpt>
      <trkpt lat="47.41754" lon="6.79291">
        <ele>387.07</ele>
        <time>2013-11-11T09:23:40Z</time>
      </trkpt>
      <trkpt lat="47.4175" lon="6.79313">
        <ele>386.59</ele>
        <time>2013-11-11T09:23:51Z</time>
      </trkpt>
      <trkpt lat="47.41748" lon="6.7933">
        <ele>387.07</ele>
        <time>2013-11-11T09:23:56Z</time>
      </trkpt>
      <trkpt lat="47.41747" lon="6.79344">
        <ele>386.59</ele>
        <time>2013-11-11T09:24:01Z</time>
      </trkpt>
      <trkpt lat="47.4174" lon="6.79369">
        <ele>384.18</ele>
        <time>2013-11-11T09:24:15Z</time>
      </trkpt>
      <trkpt lat="47.41736" lon="6.79387">
        <ele>385.15</ele>
        <time>2013-11-11T09:24:29Z</time>
      </trkpt>
      <trkpt lat="47.41733" lon="6.794">
        <ele>389.47</ele>
        <time>2013-11-11T09:24:42Z</time>
      </trkpt>
      <trkpt lat="47.41733" lon="6.79415">
        <ele>392.36</ele>
        <time>2013-11-11T09:24:54Z</time>
      </trkpt>
      <trkpt lat="47.41731" lon="6.79419">
        <ele>393.32</ele>
        <time>2013-11-11T09:25:02Z</time>
      </trkpt>
      <trkpt lat="47.41727" lon="6.7943">
        <ele>394.76</ele>
        <time>2013-11-11T09:25:15Z</time>
      </trkpt>
      <trkpt lat="47.41728" lon="6.79448">
        <ele>400.53</ele>
        <time>2013-11-11T09:25:30Z</time>
      </trkpt>
      <trkpt lat="47.4172" lon="6.79468">
        <ele>400.53</ele>
        <time>2013-11-11T09:25:46Z</time>
      </trkpt>
      <trkpt lat="47.41718" lon="6.79476">
        <ele>400.53</ele>
        <time>2013-11-11T09:26:00Z</time>
      </trkpt>
      <trkpt lat="47.41717" lon="6.7948">
        <ele>401.01</ele>
        <time>2013-11-11T09:26:16Z</time>
      </trkpt>
      <trkpt lat="47.41717" lon="6.79485">
        <ele>401.49</ele>
        <time>2013-11-11T09:26:18Z</time>
      </trkpt>
      <trkpt lat="47.41719" lon="6.79495">
        <ele>401.01</ele>
        <time>2013-11-11T09:26:23Z</time>
      </trkpt>
      <trkpt lat="47.4172" lon="6.79519">
        <ele>400.05</ele>
        <time>2013-11-11T09:26:34Z</time>
      </trkpt>
      <trkpt lat="47.41718" lon="6.79534">
        <ele>403.89</ele>
        <time>2013-11-11T09:26:47Z</time>
      </trkpt>
      <trkpt lat="47.41715" lon="6.79543">
        <ele>410.62</ele>
        <time>2013-11-11T09:27:00Z</time>
      </trkpt>
      <trkpt lat="47.41714" lon="6.79558">
        <ele>413.02</ele>
        <time>2013-11-11T09:27:16Z</time>
      </trkpt>
      <trkpt lat="47.41714" lon="6.79564">
        <ele>417.83</ele>
        <time>2013-11-11T09:27:31Z</time>
      </trkpt>
      <trkpt lat="47.41709" lon="6.79574">
        <ele>419.27</ele>
        <time>2013-11-11T09:27:43Z</time>
      </trkpt>
      <trkpt lat="47.41703" lon="6.79583">
        <ele>420.23</ele>
        <time>2013-11-11T09:27:59Z</time>
      </trkpt>
      <trkpt lat="47.41699" lon="6.79578">
        <ele>422.16</ele>
        <time>2013-11-11T09:28:03Z</time>
      </trkpt>
      <trkpt lat="47.41687" lon="6.79565">
        <ele>428.89</ele>
        <time>2013-11-11T09:28:15Z</time>
      </trkpt>
      <trkpt lat="47.41682" lon="6.79558">
        <ele>431.77</ele>
        <time>2013-11-11T09:28:21Z</time>
      </trkpt>
      <trkpt lat="47.41674" lon="6.79542">
        <ele>437.54</ele>
        <time>2013-11-11T09:28:34Z</time>
      </trkpt>
      <trkpt lat="47.41661" lon="6.79526">
        <ele>440.9</ele>
        <time>2013-11-11T09:28:46Z</time>
      </trkpt>
      <trkpt lat="47.41654" lon="6.79528">
        <ele>442.82</ele>
        <time>2013-11-11T09:28:56Z</time>
      </trkpt>
      <trkpt lat="47.41655" lon="6.79539">
        <ele>444.27</ele>
        <time>2013-11-11T09:29:06Z</time>
      </trkpt>
      <trkpt lat="47.41663" lon="6.79557">
        <ele>444.27</ele>
        <time>2013-11-11T09:29:17Z</time>
      </trkpt>
      <trkpt lat="47.41666" lon="6.79564">
        <ele>445.71</ele>
        <time>2013-11-11T09:29:22Z</time>
      </trkpt>
      <trkpt lat="47.41671" lon="6.79586">
        <ele>442.82</ele>
        <time>2013-11-11T09:29:36Z</time>
      </trkpt>
      <trkpt lat="47.41671" lon="6.79602">
        <ele>442.34</ele>
        <time>2013-11-11T09:29:50Z</time>
      </trkpt>
      <trkpt lat="47.41676" lon="6.79623">
        <ele>443.79</ele>
        <time>2013-11-11T09:30:04Z</time>
      </trkpt>
      <trkpt lat="47.41678" lon="6.79634">
        <ele>445.23</ele>
        <time>2013-11-11T09:30:19Z</time>
      </trkpt>
      <trkpt lat="47.41677" lon="6.79638">
        <ele>446.67</ele>
        <time>2013-11-11T09:30:38Z</time>
      </trkpt>
      <trkpt lat="47.41676" lon="6.79637">
        <ele>446.67</ele>
        <time>2013-11-11T09:31:01Z</time>
      </trkpt>
      <trkpt lat="47.41677" lon="6.79646">
        <ele>447.15</ele>
        <time>2013-11-11T09:31:10Z</time>
      </trkpt>
      <trkpt lat="47.41679" lon="6.7966">
        <ele>450.52</ele>
        <time>2013-11-11T09:31:25Z</time>
      </trkpt>
      <trkpt lat="47.41686" lon="6.79677">
        <ele>449.07</ele>
        <time>2013-11-11T09:31:37Z</time>
      </trkpt>
      <trkpt lat="47.41692" lon="6.79696">
        <ele>450.52</ele>
        <time>2013-11-11T09:31:53Z</time>
      </trkpt>
      <trkpt lat="47.41698" lon="6.79711">
        <ele>452.92</ele>
        <time>2013-11-11T09:32:08Z</time>
      </trkpt>
      <trkpt lat="47.41704" lon="6.79731">
        <ele>455.8</ele>
        <time>2013-11-11T09:32:24Z</time>
      </trkpt>
      <trkpt lat="47.41708" lon="6.79747">
        <ele>458.69</ele>
        <time>2013-11-11T09:32:39Z</time>
      </trkpt>
      <trkpt lat="47.41711" lon="6.7976">
        <ele>459.65</ele>
        <time>2013-11-11T09:32:53Z</time>
      </trkpt>
      <trkpt lat="47.41718" lon="6.79778">
        <ele>461.57</ele>
        <time>2013-11-11T09:33:09Z</time>
      </trkpt>
      <trkpt lat="47.41724" lon="6.79793">
        <ele>463.01</ele>
        <time>2013-11-11T09:33:22Z</time>
      </trkpt>
      <trkpt lat="47.41729" lon="6.79804">
        <ele>465.42</ele>
        <time>2013-11-11T09:33:35Z</time>
      </trkpt>
      <trkpt lat="47.4173" lon="6.7981">
        <ele>466.38</ele>
        <time>2013-11-11T09:33:53Z</time>
      </trkpt>
      <trkpt lat="47.4173" lon="6.7981">
        <ele>465.9</ele>
        <time>2013-11-11T09:33:54Z</time>
      </trkpt>
      <trkpt lat="47.41735" lon="6.79822">
        <ele>464.45</ele>
        <time>2013-11-11T09:34:05Z</time>
      </trkpt>
      <trkpt lat="47.41747" lon="6.79844">
        <ele>469.26</ele>
        <time>2013-11-11T09:34:17Z</time>
      </trkpt>
      <trkpt lat="47.41756" lon="6.79861">
        <ele>472.14</ele>
        <time>2013-11-11T09:34:27Z</time>
      </trkpt>
      <trkpt lat="47.41763" lon="6.79875">
        <ele>475.03</ele>
        <time>2013-11-11T09:34:34Z</time>
      </trkpt>
      <trkpt lat="47.41768" lon="6.79891">
        <ele>477.43</ele>
        <time>2013-11-11T09:34:46Z</time>
      </trkpt>
      <trkpt lat="47.4177" lon="6.79899">
        <ele>478.39</ele>
        <time>2013-11-11T09:34:59Z</time>
      </trkpt>
      <trkpt lat="47.41775" lon="6.79909">
        <ele>479.84</ele>
        <time>2013-11-11T09:35:10Z</time>
      </trkpt>
      <trkpt lat="47.41778" lon="6.79917">
        <ele>480.8</ele>
        <time>2013-11-11T09:35:15Z</time>
      </trkpt>
      <trkpt lat="47.41785" lon="6.7993">
        <ele>482.72</ele>
        <time>2013-11-11T09:35:23Z</time>
      </trkpt>
      <trkpt lat="47.41791" lon="6.79946">
        <ele>481.76</ele>
        <time>2013-11-11T09:35:36Z</time>
      </trkpt>
      <trkpt lat="47.41792" lon="6.79947">
        <ele>481.76</ele>
        <time>2013-11-11T09:35:37Z</time>
      </trkpt>
      <trkpt lat="47.418" lon="6.79963">
        <ele>484.16</ele>
        <time>2013-11-11T09:35:51Z</time>
      </trkpt>
      <trkpt lat="47.41807" lon="6.79978">
        <ele>487.05</ele>
        <time>2013-11-11T09:36:07Z</time>
      </trkpt>
      <trkpt lat="47.41811" lon="6.79989">
        <ele>490.89</ele>
        <time>2013-11-11T09:36:18Z</time>
      </trkpt>
      <trkpt lat="47.41814" lon="6.79997">
        <ele>493.77</ele>
        <time>2013-11-11T09:36:26Z</time>
      </trkpt>
      <trkpt lat="47.41818" lon="6.80004">
        <ele>495.22</ele>
        <time>2013-11-11T09:36:32Z</time>
      </trkpt>
      <trkpt lat="47.41827" lon="6.80022">
        <ele>498.58</ele>
        <time>2013-11-11T09:36:46Z</time>
      </trkpt>
      <trkpt lat="47.41836" lon="6.80037">
        <ele>501.46</ele>
        <time>2013-11-11T09:37:00Z</time>
      </trkpt>
      <trkpt lat="47.41837" lon="6.80043">
        <ele>502.43</ele>
        <time>2013-11-11T09:37:16Z</time>
      </trkpt>
      <trkpt lat="47.41834" lon="6.80045">
        <ele>501.95</ele>
        <time>2013-11-11T09:37:43Z</time>
      </trkpt>
      <trkpt lat="47.41835" lon="6.80043">
        <ele>501.46</ele>
        <time>2013-11-11T09:38:06Z</time>
      </trkpt>
      <trkpt lat="47.41835" lon="6.8004">
        <ele>499.54</ele>
        <time>2013-11-11T09:38:36Z</time>
      </trkpt>
      <trkpt lat="47.4184" lon="6.80041">
        <ele>500.5</ele>
        <time>2013-11-11T09:39:05Z</time>
      </trkpt>
      <trkpt lat="47.41837" lon="6.80044">
        <ele>502.91</ele>
        <time>2013-11-11T09:39:31Z</time>
      </trkpt>
      <trkpt lat="47.41841" lon="6.80047">
        <ele>505.31</ele>
        <time>2013-11-11T09:39:55Z</time>
      </trkpt>
      <trkpt lat="47.41841" lon="6.80052">
        <ele>504.83</ele>
        <time>2013-11-11T09:40:25Z</time>
      </trkpt>
      <trkpt lat="47.4184" lon="6.80047">
        <ele>500.98</ele>
        <time>2013-11-11T09:40:44Z</time>
      </trkpt>
      <trkpt lat="47.41835" lon="6.80041">
        <ele>501.46</ele>
        <time>2013-11-11T09:41:06Z</time>
      </trkpt>
      <trkpt lat="47.41833" lon="6.80041">
        <ele>500.5</ele>
        <time>2013-11-11T09:41:28Z</time>
      </trkpt>
      <trkpt lat="47.41834" lon="6.80041">
        <ele>500.02</ele>
        <time>2013-11-11T09:41:29Z</time>
      </trkpt>
      <trkpt lat="47.41855" lon="6.80026">
        <ele>500.5</ele>
        <time>2013-11-11T09:41:45Z</time>
      </trkpt>
      <trkpt lat="47.41868" lon="6.80008">
        <ele>504.83</ele>
        <time>2013-11-11T09:41:58Z</time>
      </trkpt>
      <trkpt lat="47.41875" lon="6.79984">
        <ele>505.79</ele>
        <time>2013-11-11T09:42:11Z</time>
      </trkpt>
      <trkpt lat="47.41884" lon="6.79957">
        <ele>506.75</ele>
        <time>2013-11-11T09:42:25Z</time>
      </trkpt>
      <trkpt lat="47.41889" lon="6.7994">
        <ele>507.71</ele>
        <time>2013-11-11T09:42:34Z</time>
      </trkpt>
      <trkpt lat="47.41896" lon="6.79907">
        <ele>510.6</ele>
        <time>2013-11-11T09:42:50Z</time>
      </trkpt>
      <trkpt lat="47.41897" lon="6.79893">
        <ele>512.52</ele>
        <time>2013-11-11T09:42:57Z</time>
      </trkpt>
      <trkpt lat="47.41896" lon="6.79881">
        <ele>513.96</ele>
        <time>2013-11-11T09:43:03Z</time>
      </trkpt>
      <trkpt lat="47.41896" lon="6.79853">
        <ele>517.33</ele>
        <time>2013-11-11T09:43:15Z</time>
      </trkpt>
      <trkpt lat="47.41897" lon="6.79839">
        <ele>519.73</ele>
        <time>2013-11-11T09:43:21Z</time>
      </trkpt>
      <trkpt lat="47.41898" lon="6.79809">
        <ele>518.77</ele>
        <time>2013-11-11T09:43:33Z</time>
      </trkpt>
      <trkpt lat="47.41899" lon="6.79804">
        <ele>518.29</ele>
        <time>2013-11-11T09:43:35Z</time>
      </trkpt>
      <trkpt lat="47.41905" lon="6.79771">
        <ele>516.37</ele>
        <time>2013-11-11T09:43:49Z</time>
      </trkpt>
      <trkpt lat="47.41909" lon="6.79737">
        <ele>513</ele>
        <time>2013-11-11T09:44:03Z</time>
      </trkpt>
      <trkpt lat="47.41909" lon="6.79734">
        <ele>512.52</ele>
        <time>2013-11-11T09:44:04Z</time>
      </trkpt>
      <trkpt lat="47.41911" lon="6.79706">
        <ele>515.88</ele>
        <time>2013-11-11T09:44:18Z</time>
      </trkpt>
      <trkpt lat="47.41911" lon="6.79701">
        <ele>515.88</ele>
        <time>2013-11-11T09:44:20Z</time>
      </trkpt>
      <trkpt lat="47.41915" lon="6.7968">
        <ele>515.88</ele>
        <time>2013-11-11T09:44:30Z</time>
      </trkpt>
      <trkpt lat="47.41916" lon="6.79671">
        <ele>514.92</ele>
        <time>2013-11-11T09:44:34Z</time>
      </trkpt>
      <trkpt lat="47.41918" lon="6.79661">
        <ele>514.44</ele>
        <time>2013-11-11T09:44:38Z</time>
      </trkpt>
      <trkpt lat="47.4192" lon="6.79646">
        <ele>512.52</ele>
        <time>2013-11-11T09:44:52Z</time>
      </trkpt>
      <trkpt lat="47.41921" lon="6.7964">
        <ele>510.12</ele>
        <time>2013-11-11T09:45:00Z</time>
      </trkpt>
      <trkpt lat="47.41928" lon="6.79623">
        <ele>508.19</ele>
        <time>2013-11-11T09:45:11Z</time>
      </trkpt>
      <trkpt lat="47.41932" lon="6.79617">
        <ele>507.71</ele>
        <time>2013-11-11T09:45:26Z</time>
      </trkpt>
      <trkpt lat="47.41938" lon="6.79611">
        <ele>505.79</ele>
        <time>2013-11-11T09:45:43Z</time>
      </trkpt>
      <trkpt lat="47.41941" lon="6.79594">
        <ele>503.87</ele>
        <time>2013-11-11T09:45:55Z</time>
      </trkpt>
      <trkpt lat="47.41942" lon="6.79586">
        <ele>503.39</ele>
        <time>2013-11-11T09:46:12Z</time>
      </trkpt>
      <trkpt lat="47.41945" lon="6.79572">
        <ele>505.31</ele>
        <time>2013-11-11T09:46:38Z</time>
      </trkpt>
      <trkpt lat="47.41946" lon="6.79567">
        <ele>504.83</ele>
        <time>2013-11-11T09:46:41Z</time>
      </trkpt>
      <trkpt lat="47.4195" lon="6.79561">
        <ele>504.83</ele>
        <time>2013-11-11T09:46:46Z</time>
      </trkpt>
      <trkpt lat="47.41951" lon="6.79557">
        <ele>504.83</ele>
        <time>2013-11-11T09:46:48Z</time>
      </trkpt>
      <trkpt lat="47.41954" lon="6.79552">
        <ele>504.35</ele>
        <time>2013-11-11T09:46:52Z</time>
      </trkpt>
      <trkpt lat="47.41966" lon="6.79526">
        <ele>502.43</ele>
        <time>2013-11-11T09:47:07Z</time>
      </trkpt>
      <trkpt lat="47.41977" lon="6.79508">
        <ele>506.75</ele>
        <time>2013-11-11T09:47:22Z</time>
      </trkpt>
      <trkpt lat="47.41981" lon="6.79508">
        <ele>508.67</ele>
        <time>2013-11-11T09:47:48Z</time>
      </trkpt>
      <trkpt lat="47.41981" lon="6.79505">
        <ele>506.27</ele>
        <time>2013-11-11T09:48:08Z</time>
      </trkpt>
      <trkpt lat="47.4198" lon="6.79503">
        <ele>508.19</ele>
        <time>2013-11-11T09:48:26Z</time>
      </trkpt>
      <trkpt lat="47.41983" lon="6.79501">
        <ele>507.71</ele>
        <time>2013-11-11T09:48:37Z</time>
      </trkpt>
      <trkpt lat="47.41985" lon="6.79499">
        <ele>507.71</ele>
        <time>2013-11-11T09:48:40Z</time>
      </trkpt>
      <trkpt lat="47.4199" lon="6.79494">
        <ele>506.75</ele>
        <time>2013-11-11T09:48:45Z</time>
      </trkpt>
      <trkpt lat="47.42008" lon="6.7949">
        <ele>507.23</ele>
        <time>2013-11-11T09:48:58Z</time>
      </trkpt>
      <trkpt lat="47.4201" lon="6.79489">
        <ele>507.23</ele>
        <time>2013-11-11T09:49:00Z</time>
      </trkpt>
      <trkpt lat="47.42033" lon="6.79483">
        <ele>510.12</ele>
        <time>2013-11-11T09:49:14Z</time>
      </trkpt>
      <trkpt lat="47.42039" lon="6.79481">
        <ele>511.56</ele>
        <time>2013-11-11T09:49:17Z</time>
      </trkpt>
      <trkpt lat="47.42071" lon="6.79468">
        <ele>514.44</ele>
        <time>2013-11-11T09:49:29Z</time>
      </trkpt>
      <trkpt lat="47.42084" lon="6.79463">
        <ele>513.96</ele>
        <time>2013-11-11T09:49:32Z</time>
      </trkpt>
      <trkpt lat="47.42088" lon="6.79462">
        <ele>513.96</ele>
        <time>2013-11-11T09:49:33Z</time>
      </trkpt>
      <trkpt lat="47.42092" lon="6.7946">
        <ele>513.48</ele>
        <time>2013-11-11T09:49:34Z</time>
      </trkpt>
      <trkpt lat="47.42096" lon="6.79459">
        <ele>513.48</ele>
        <time>2013-11-11T09:49:35Z</time>
      </trkpt>
      <trkpt lat="47.42099" lon="6.79458">
        <ele>513.48</ele>
        <time>2013-11-11T09:49:36Z</time>
      </trkpt>
      <trkpt lat="47.42103" lon="6.79458">
        <ele>513</ele>
        <time>2013-11-11T09:49:37Z</time>
      </trkpt>
      <trkpt lat="47.42106" lon="6.79459">
        <ele>513</ele>
        <time>2013-11-11T09:49:38Z</time>
      </trkpt>
      <trkpt lat="47.42121" lon="6.79457">
        <ele>511.56</ele>
        <time>2013-11-11T09:49:43Z</time>
      </trkpt>
      <trkpt lat="47.42124" lon="6.79456">
        <ele>511.56</ele>
        <time>2013-11-11T09:49:44Z</time>
      </trkpt>
      <trkpt lat="47.42126" lon="6.79457">
        <ele>511.56</ele>
        <time>2013-11-11T09:49:45Z</time>
      </trkpt>
      <trkpt lat="47.4213" lon="6.79457">
        <ele>511.08</ele>
        <time>2013-11-11T09:49:46Z</time>
      </trkpt>
      <trkpt lat="47.42133" lon="6.79458">
        <ele>511.08</ele>
        <time>2013-11-11T09:49:47Z</time>
      </trkpt>
      <trkpt lat="47.42136" lon="6.79458">
        <ele>510.6</ele>
        <time>2013-11-11T09:49:48Z</time>
      </trkpt>
      <trkpt lat="47.4216" lon="6.79459">
        <ele>509.16</ele>
        <time>2013-11-11T09:49:56Z</time>
      </trkpt>
      <trkpt lat="47.42192" lon="6.7946">
        <ele>507.71</ele>
        <time>2013-11-11T09:50:07Z</time>
      </trkpt>
      <trkpt lat="47.42224" lon="6.79464">
        <ele>507.71</ele>
        <time>2013-11-11T09:50:17Z</time>
      </trkpt>
      <trkpt lat="47.42266" lon="6.79466">
        <ele>510.6</ele>
        <time>2013-11-11T09:50:30Z</time>
      </trkpt>
      <trkpt lat="47.42293" lon="6.79471">
        <ele>514.44</ele>
        <time>2013-11-11T09:50:41Z</time>
      </trkpt>
      <trkpt lat="47.42295" lon="6.79471">
        <ele>514.44</ele>
        <time>2013-11-11T09:50:42Z</time>
      </trkpt>
      <trkpt lat="47.42297" lon="6.79472">
        <ele>514.92</ele>
        <time>2013-11-11T09:50:43Z</time>
      </trkpt>
      <trkpt lat="47.42299" lon="6.79472">
        <ele>515.88</ele>
        <time>2013-11-11T09:50:44Z</time>
      </trkpt>
      <trkpt lat="47.42301" lon="6.79472">
        <ele>516.37</ele>
        <time>2013-11-11T09:50:45Z</time>
      </trkpt>
      <trkpt lat="47.42303" lon="6.79472">
        <ele>516.85</ele>
        <time>2013-11-11T09:50:46Z</time>
      </trkpt>
      <trkpt lat="47.42305" lon="6.79472">
        <ele>517.33</ele>
        <time>2013-11-11T09:50:47Z</time>
      </trkpt>
      <trkpt lat="47.42306" lon="6.79473">
        <ele>517.33</ele>
        <time>2013-11-11T09:50:48Z</time>
      </trkpt>
      <trkpt lat="47.42308" lon="6.79474">
        <ele>517.81</ele>
        <time>2013-11-11T09:50:49Z</time>
      </trkpt>
      <trkpt lat="47.4231" lon="6.79474">
        <ele>518.29</ele>
        <time>2013-11-11T09:50:50Z</time>
      </trkpt>
      <trkpt lat="47.42312" lon="6.79474">
        <ele>518.29</ele>
        <time>2013-11-11T09:50:51Z</time>
      </trkpt>
      <trkpt lat="47.42314" lon="6.79474">
        <ele>518.77</ele>
        <time>2013-11-11T09:50:52Z</time>
      </trkpt>
      <trkpt lat="47.42316" lon="6.79475">
        <ele>518.77</ele>
        <time>2013-11-11T09:50:53Z</time>
      </trkpt>
      <trkpt lat="47.42318" lon="6.79476">
        <ele>518.77</ele>
        <time>2013-11-11T09:50:54Z</time>
      </trkpt>
      <trkpt lat="47.4232" lon="6.79477">
        <ele>518.77</ele>
        <time>2013-11-11T09:50:55Z</time>
      </trkpt>
      <trkpt lat="47.42322" lon="6.79477">
        <ele>518.77</ele>
        <time>2013-11-11T09:50:56Z</time>
      </trkpt>
      <trkpt lat="47.42324" lon="6.79478">
        <ele>518.77</ele>
        <time>2013-11-11T09:50:57Z</time>
      </trkpt>
      <trkpt lat="47.42326" lon="6.79478">
        <ele>518.77</ele>
        <time>2013-11-11T09:50:58Z</time>
      </trkpt>
      <trkpt lat="47.42327" lon="6.79479">
        <ele>518.77</ele>
        <time>2013-11-11T09:50:59Z</time>
      </trkpt>
      <trkpt lat="47.42329" lon="6.7948">
        <ele>518.77</ele>
        <time>2013-11-11T09:51:00Z</time>
      </trkpt>
      <trkpt lat="47.42346" lon="6.79488">
        <ele>518.29</ele>
        <time>2013-11-11T09:51:11Z</time>
      </trkpt>
      <trkpt lat="47.42369" lon="6.79492">
        <ele>518.29</ele>
        <time>2013-11-11T09:51:21Z</time>
      </trkpt>
      <trkpt lat="47.42392" lon="6.79502">
        <ele>515.88</ele>
        <time>2013-11-11T09:51:32Z</time>
      </trkpt>
      <trkpt lat="47.42411" lon="6.79508">
        <ele>515.88</ele>
        <time>2013-11-11T09:51:43Z</time>
      </trkpt>
      <trkpt lat="47.42423" lon="6.79508">
        <ele>514.44</ele>
        <time>2013-11-11T09:51:54Z</time>
      </trkpt>
      <trkpt lat="47.42424" lon="6.79509">
        <ele>514.44</ele>
        <time>2013-11-11T09:51:55Z</time>
      </trkpt>
      <trkpt lat="47.42426" lon="6.7951">
        <ele>514.44</ele>
        <time>2013-11-11T09:51:56Z</time>
      </trkpt>
      <trkpt lat="47.42428" lon="6.79511">
        <ele>513.96</ele>
        <time>2013-11-11T09:51:57Z</time>
      </trkpt>
      <trkpt lat="47.42439" lon="6.79513">
        <ele>512.52</ele>
        <time>2013-11-11T09:52:08Z</time>
      </trkpt>
      <trkpt lat="47.42445" lon="6.79515">
        <ele>512.52</ele>
        <time>2013-11-11T09:52:12Z</time>
      </trkpt>
      <trkpt lat="47.42447" lon="6.79515">
        <ele>512.52</ele>
        <time>2013-11-11T09:52:13Z</time>
      </trkpt>
      <trkpt lat="47.42448" lon="6.79515">
        <ele>512.52</ele>
        <time>2013-11-11T09:52:14Z</time>
      </trkpt>
      <trkpt lat="47.4245" lon="6.79515">
        <ele>512.52</ele>
        <time>2013-11-11T09:52:15Z</time>
      </trkpt>
      <trkpt lat="47.42452" lon="6.79515">
        <ele>513</ele>
        <time>2013-11-11T09:52:16Z</time>
      </trkpt>
      <trkpt lat="47.42453" lon="6.79516">
        <ele>512.52</ele>
        <time>2013-11-11T09:52:17Z</time>
      </trkpt>
      <trkpt lat="47.42469" lon="6.7952">
        <ele>514.92</ele>
        <time>2013-11-11T09:52:30Z</time>
      </trkpt>
      <trkpt lat="47.42483" lon="6.79526">
        <ele>515.4</ele>
        <time>2013-11-11T09:52:40Z</time>
      </trkpt>
      <trkpt lat="47.42485" lon="6.79526">
        <ele>515.88</ele>
        <time>2013-11-11T09:52:41Z</time>
      </trkpt>
      <trkpt lat="47.42487" lon="6.79527">
        <ele>515.88</ele>
        <time>2013-11-11T09:52:42Z</time>
      </trkpt>
      <trkpt lat="47.42507" lon="6.79529">
        <ele>515.88</ele>
        <time>2013-11-11T09:52:54Z</time>
      </trkpt>
      <trkpt lat="47.42527" lon="6.7953">
        <ele>517.81</ele>
        <time>2013-11-11T09:53:04Z</time>
      </trkpt>
      <trkpt lat="47.42529" lon="6.7953">
        <ele>518.29</ele>
        <time>2013-11-11T09:53:05Z</time>
      </trkpt>
      <trkpt lat="47.42531" lon="6.7953">
        <ele>518.29</ele>
        <time>2013-11-11T09:53:06Z</time>
      </trkpt>
      <trkpt lat="47.42563" lon="6.79526">
        <ele>520.69</ele>
        <time>2013-11-11T09:53:19Z</time>
      </trkpt>
      <trkpt lat="47.42584" lon="6.79533">
        <ele>518.77</ele>
        <time>2013-11-11T09:53:26Z</time>
      </trkpt>
      <trkpt lat="47.42592" lon="6.79532">
        <ele>517.33</ele>
        <time>2013-11-11T09:53:31Z</time>
      </trkpt>
      <trkpt lat="47.42594" lon="6.79533">
        <ele>517.33</ele>
        <time>2013-11-11T09:53:32Z</time>
      </trkpt>
      <trkpt lat="47.42596" lon="6.79534">
        <ele>517.33</ele>
        <time>2013-11-11T09:53:33Z</time>
      </trkpt>
      <trkpt lat="47.42606" lon="6.79537">
        <ele>515.4</ele>
        <time>2013-11-11T09:53:45Z</time>
      </trkpt>
      <trkpt lat="47.42626" lon="6.79542">
        <ele>511.56</ele>
        <time>2013-11-11T09:53:57Z</time>
      </trkpt>
      <trkpt lat="47.42646" lon="6.79544">
        <ele>508.67</ele>
        <time>2013-11-11T09:54:10Z</time>
      </trkpt>
      <trkpt lat="47.42653" lon="6.79546">
        <ele>508.19</ele>
        <time>2013-11-11T09:54:13Z</time>
      </trkpt>
      <trkpt lat="47.42656" lon="6.79545">
        <ele>508.19</ele>
        <time>2013-11-11T09:54:14Z</time>
      </trkpt>
      <trkpt lat="47.42665" lon="6.79545">
        <ele>508.19</ele>
        <time>2013-11-11T09:54:18Z</time>
      </trkpt>
      <trkpt lat="47.42666" lon="6.79546">
        <ele>508.19</ele>
        <time>2013-11-11T09:54:19Z</time>
      </trkpt>
      <trkpt lat="47.42679" lon="6.79552">
        <ele>507.23</ele>
        <time>2013-11-11T09:54:29Z</time>
      </trkpt>
      <trkpt lat="47.42684" lon="6.79554">
        <ele>506.27</ele>
        <time>2013-11-11T09:54:33Z</time>
      </trkpt>
      <trkpt lat="47.42687" lon="6.79554">
        <ele>506.27</ele>
        <time>2013-11-11T09:54:34Z</time>
      </trkpt>
      <trkpt lat="47.42698" lon="6.79555">
        <ele>506.75</ele>
        <time>2013-11-11T09:54:41Z</time>
      </trkpt>
      <trkpt lat="47.42701" lon="6.79556">
        <ele>506.75</ele>
        <time>2013-11-11T09:54:42Z</time>
      </trkpt>
      <trkpt lat="47.42703" lon="6.79556">
        <ele>506.75</ele>
        <time>2013-11-11T09:54:43Z</time>
      </trkpt>
      <trkpt lat="47.42705" lon="6.79555">
        <ele>506.75</ele>
        <time>2013-11-11T09:54:44Z</time>
      </trkpt>
      <trkpt lat="47.42707" lon="6.79556">
        <ele>507.23</ele>
        <time>2013-11-11T09:54:45Z</time>
      </trkpt>
      <trkpt lat="47.42708" lon="6.79556">
        <ele>507.23</ele>
        <time>2013-11-11T09:54:46Z</time>
      </trkpt>
      <trkpt lat="47.4271" lon="6.79556">
        <ele>507.71</ele>
        <time>2013-11-11T09:54:47Z</time>
      </trkpt>
      <trkpt lat="47.42716" lon="6.79557">
        <ele>507.71</ele>
        <time>2013-11-11T09:54:50Z</time>
      </trkpt>
      <trkpt lat="47.42721" lon="6.79558">
        <ele>507.23</ele>
        <time>2013-11-11T09:54:53Z</time>
      </trkpt>
      <trkpt lat="47.42724" lon="6.79558">
        <ele>507.71</ele>
        <time>2013-11-11T09:54:55Z</time>
      </trkpt>
      <trkpt lat="47.42744" lon="6.79562">
        <ele>508.19</ele>
        <time>2013-11-11T09:55:07Z</time>
      </trkpt>
      <trkpt lat="47.42747" lon="6.79563">
        <ele>508.19</ele>
        <time>2013-11-11T09:55:09Z</time>
      </trkpt>
      <trkpt lat="47.4275" lon="6.79565">
        <ele>507.71</ele>
        <time>2013-11-11T09:55:20Z</time>
      </trkpt>
      <trkpt lat="47.42754" lon="6.79565">
        <ele>504.83</ele>
        <time>2013-11-11T09:55:31Z</time>
      </trkpt>
      <trkpt lat="47.42756" lon="6.79566">
        <ele>504.35</ele>
        <time>2013-11-11T09:55:32Z</time>
      </trkpt>
      <trkpt lat="47.42758" lon="6.79567">
        <ele>504.35</ele>
        <time>2013-11-11T09:55:33Z</time>
      </trkpt>
      <trkpt lat="47.42759" lon="6.79567">
        <ele>503.87</ele>
        <time>2013-11-11T09:55:34Z</time>
      </trkpt>
      <trkpt lat="47.42761" lon="6.79567">
        <ele>503.87</ele>
        <time>2013-11-11T09:55:35Z</time>
      </trkpt>
      <trkpt lat="47.42763" lon="6.79567">
        <ele>503.87</ele>
        <time>2013-11-11T09:55:36Z</time>
      </trkpt>
      <trkpt lat="47.42765" lon="6.79567">
        <ele>503.87</ele>
        <time>2013-11-11T09:55:37Z</time>
      </trkpt>
      <trkpt lat="47.42766" lon="6.79567">
        <ele>503.39</ele>
        <time>2013-11-11T09:55:38Z</time>
      </trkpt>
      <trkpt lat="47.42784" lon="6.79572">
        <ele>502.43</ele>
        <time>2013-11-11T09:55:51Z</time>
      </trkpt>
      <trkpt lat="47.42786" lon="6.79574">
        <ele>502.91</ele>
        <time>2013-11-11T09:55:52Z</time>
      </trkpt>
      <trkpt lat="47.42788" lon="6.79574">
        <ele>502.91</ele>
        <time>2013-11-11T09:55:53Z</time>
      </trkpt>
      <trkpt lat="47.42803" lon="6.79573">
        <ele>504.35</ele>
        <time>2013-11-11T09:56:04Z</time>
      </trkpt>
      <trkpt lat="47.42806" lon="6.7957">
        <ele>502.43</ele>
        <time>2013-11-11T09:56:21Z</time>
      </trkpt>
      <trkpt lat="47.42807" lon="6.79574">
        <ele>501.95</ele>
        <time>2013-11-11T09:56:35Z</time>
      </trkpt>
      <trkpt lat="47.42804" lon="6.79574">
        <ele>500.5</ele>
        <time>2013-11-11T09:57:11Z</time>
      </trkpt>
      <trkpt lat="47.42807" lon="6.79575">
        <ele>498.1</ele>
        <time>2013-11-11T09:57:46Z</time>
      </trkpt>
      <trkpt lat="47.42807" lon="6.79577">
        <ele>500.98</ele>
        <time>2013-11-11T09:58:26Z</time>
      </trkpt>
      <trkpt lat="47.42813" lon="6.79576">
        <ele>503.39</ele>
        <time>2013-11-11T09:58:46Z</time>
      </trkpt>
      <trkpt lat="47.42811" lon="6.79571">
        <ele>497.62</ele>
        <time>2013-11-11T09:59:16Z</time>
      </trkpt>
      <trkpt lat="47.42808" lon="6.79576">
        <ele>496.66</ele>
        <time>2013-11-11T09:59:40Z</time>
      </trkpt>
      <trkpt lat="47.42809" lon="6.79573">
        <ele>496.18</ele>
        <time>2013-11-11T10:00:18Z</time>
      </trkpt>
      <trkpt lat="47.42807" lon="6.79575">
        <ele>496.18</ele>
        <time>2013-11-11T10:00:57Z</time>
      </trkpt>
      <trkpt lat="47.42808" lon="6.79578">
        <ele>489.45</ele>
        <time>2013-11-11T10:01:40Z</time>
      </trkpt>
      <trkpt lat="47.42808" lon="6.79576">
        <ele>491.85</ele>
        <time>2013-11-11T10:02:06Z</time>
      </trkpt>
      <trkpt lat="47.42808" lon="6.79573">
        <ele>491.85</ele>
        <time>2013-11-11T10:02:25Z</time>
      </trkpt>
      <trkpt lat="47.42818" lon="6.79573">
        <ele>490.89</ele>
        <time>2013-11-11T10:02:45Z</time>
      </trkpt>
      <trkpt lat="47.42846" lon="6.79574">
        <ele>492.33</ele>
        <time>2013-11-11T10:02:54Z</time>
      </trkpt>
      <trkpt lat="47.42848" lon="6.79574">
        <ele>492.81</ele>
        <time>2013-11-11T10:02:55Z</time>
      </trkpt>
      <trkpt lat="47.4285" lon="6.79574">
        <ele>493.29</ele>
        <time>2013-11-11T10:02:56Z</time>
      </trkpt>
      <trkpt lat="47.42852" lon="6.79574">
        <ele>494.26</ele>
        <time>2013-11-11T10:02:57Z</time>
      </trkpt>
      <trkpt lat="47.42865" lon="6.79575">
        <ele>496.66</ele>
        <time>2013-11-11T10:03:03Z</time>
      </trkpt>
      <trkpt lat="47.42891" lon="6.79581">
        <ele>500.98</ele>
        <time>2013-11-11T10:03:14Z</time>
      </trkpt>
      <trkpt lat="47.429" lon="6.79582">
        <ele>502.91</ele>
        <time>2013-11-11T10:03:18Z</time>
      </trkpt>
      <trkpt lat="47.42908" lon="6.79583">
        <ele>504.35</ele>
        <time>2013-11-11T10:03:22Z</time>
      </trkpt>
      <trkpt lat="47.42911" lon="6.79584">
        <ele>504.83</ele>
        <time>2013-11-11T10:03:23Z</time>
      </trkpt>
      <trkpt lat="47.42913" lon="6.79584">
        <ele>504.83</ele>
        <time>2013-11-11T10:03:24Z</time>
      </trkpt>
      <trkpt lat="47.42916" lon="6.79584">
        <ele>505.31</ele>
        <time>2013-11-11T10:03:25Z</time>
      </trkpt>
      <trkpt lat="47.42918" lon="6.79584">
        <ele>505.79</ele>
        <time>2013-11-11T10:03:26Z</time>
      </trkpt>
      <trkpt lat="47.4292" lon="6.79585">
        <ele>505.79</ele>
        <time>2013-11-11T10:03:27Z</time>
      </trkpt>
      <trkpt lat="47.42922" lon="6.79586">
        <ele>506.27</ele>
        <time>2013-11-11T10:03:28Z</time>
      </trkpt>
      <trkpt lat="47.42924" lon="6.79587">
        <ele>506.27</ele>
        <time>2013-11-11T10:03:29Z</time>
      </trkpt>
      <trkpt lat="47.42925" lon="6.79587">
        <ele>506.27</ele>
        <time>2013-11-11T10:03:30Z</time>
      </trkpt>
      <trkpt lat="47.42927" lon="6.79587">
        <ele>506.27</ele>
        <time>2013-11-11T10:03:31Z</time>
      </trkpt>
      <trkpt lat="47.4293" lon="6.79587">
        <ele>506.27</ele>
        <time>2013-11-11T10:03:32Z</time>
      </trkpt>
      <trkpt lat="47.42932" lon="6.79586">
        <ele>506.27</ele>
        <time>2013-11-11T10:03:33Z</time>
      </trkpt>
      <trkpt lat="47.42939" lon="6.79584">
        <ele>506.75</ele>
        <time>2013-11-11T10:03:36Z</time>
      </trkpt>
      <trkpt lat="47.42942" lon="6.79585">
        <ele>506.75</ele>
        <time>2013-11-11T10:03:37Z</time>
      </trkpt>
      <trkpt lat="47.42964" lon="6.79587">
        <ele>507.23</ele>
        <time>2013-11-11T10:03:47Z</time>
      </trkpt>
      <trkpt lat="47.42967" lon="6.79588">
        <ele>507.23</ele>
        <time>2013-11-11T10:03:48Z</time>
      </trkpt>
      <trkpt lat="47.42969" lon="6.79588">
        <ele>507.23</ele>
        <time>2013-11-11T10:03:49Z</time>
      </trkpt>
      <trkpt lat="47.42971" lon="6.79588">
        <ele>507.23</ele>
        <time>2013-11-11T10:03:50Z</time>
      </trkpt>
      <trkpt lat="47.42973" lon="6.79588">
        <ele>507.23</ele>
        <time>2013-11-11T10:03:51Z</time>
      </trkpt>
      <trkpt lat="47.42992" lon="6.7958">
        <ele>509.64</ele>
        <time>2013-11-11T10:04:00Z</time>
      </trkpt>
      <trkpt lat="47.42997" lon="6.79579">
        <ele>510.12</ele>
        <time>2013-11-11T10:04:03Z</time>
      </trkpt>
      <trkpt lat="47.42999" lon="6.79578">
        <ele>510.12</ele>
        <time>2013-11-11T10:04:04Z</time>
      </trkpt>
      <trkpt lat="47.43017" lon="6.79572">
        <ele>505.79</ele>
        <time>2013-11-11T10:04:17Z</time>
      </trkpt>
      <trkpt lat="47.4302" lon="6.79574">
        <ele>500.02</ele>
        <time>2013-11-11T10:04:48Z</time>
      </trkpt>
      <trkpt lat="47.43021" lon="6.79573">
        <ele>499.54</ele>
        <time>2013-11-11T10:05:09Z</time>
      </trkpt>
      <trkpt lat="47.43022" lon="6.79571">
        <ele>498.58</ele>
        <time>2013-11-11T10:05:47Z</time>
      </trkpt>
      <trkpt lat="47.43021" lon="6.79574">
        <ele>495.22</ele>
        <time>2013-11-11T10:06:21Z</time>
      </trkpt>
      <trkpt lat="47.43021" lon="6.79571">
        <ele>496.18</ele>
        <time>2013-11-11T10:06:51Z</time>
      </trkpt>
      <trkpt lat="47.43019" lon="6.79573">
        <ele>496.66</ele>
        <time>2013-11-11T10:07:23Z</time>
      </trkpt>
      <trkpt lat="47.43019" lon="6.79573">
        <ele>498.58</ele>
        <time>2013-11-11T10:07:52Z</time>
      </trkpt>
      <trkpt lat="47.43022" lon="6.79573">
        <ele>496.18</ele>
        <time>2013-11-11T10:08:25Z</time>
      </trkpt>
      <trkpt lat="47.43023" lon="6.79576">
        <ele>497.14</ele>
        <time>2013-11-11T10:08:41Z</time>
      </trkpt>
      <trkpt lat="47.43023" lon="6.79577">
        <ele>497.14</ele>
        <time>2013-11-11T10:08:42Z</time>
      </trkpt>
      <trkpt lat="47.43026" lon="6.79582">
        <ele>496.66</ele>
        <time>2013-11-11T10:08:50Z</time>
      </trkpt>
      <trkpt lat="47.43009" lon="6.79586">
        <ele>496.18</ele>
        <time>2013-11-11T10:09:01Z</time>
      </trkpt>
      <trkpt lat="47.43008" lon="6.79588">
        <ele>496.18</ele>
        <time>2013-11-11T10:09:02Z</time>
      </trkpt>
      <trkpt lat="47.43006" lon="6.79592">
        <ele>496.66</ele>
        <time>2013-11-11T10:09:05Z</time>
      </trkpt>
      <trkpt lat="47.43006" lon="6.79594">
        <ele>496.66</ele>
        <time>2013-11-11T10:09:06Z</time>
      </trkpt>
      <trkpt lat="47.43006" lon="6.79597">
        <ele>496.66</ele>
        <time>2013-11-11T10:09:07Z</time>
      </trkpt>
      <trkpt lat="47.43009" lon="6.7962">
        <ele>496.66</ele>
        <time>2013-11-11T10:09:17Z</time>
      </trkpt>
      <trkpt lat="47.43009" lon="6.79622">
        <ele>496.66</ele>
        <time>2013-11-11T10:09:18Z</time>
      </trkpt>
      <trkpt lat="47.43009" lon="6.79624">
        <ele>496.18</ele>
        <time>2013-11-11T10:09:19Z</time>
      </trkpt>
      <trkpt lat="47.43008" lon="6.79626">
        <ele>496.18</ele>
        <time>2013-11-11T10:09:20Z</time>
      </trkpt>
      <trkpt lat="47.43006" lon="6.79628">
        <ele>496.18</ele>
        <time>2013-11-11T10:09:21Z</time>
      </trkpt>
      <trkpt lat="47.43004" lon="6.79629">
        <ele>496.18</ele>
        <time>2013-11-11T10:09:22Z</time>
      </trkpt>
      <trkpt lat="47.42981" lon="6.79641">
        <ele>496.18</ele>
        <time>2013-11-11T10:09:30Z</time>
      </trkpt>
      <trkpt lat="47.42978" lon="6.79643">
        <ele>496.18</ele>
        <time>2013-11-11T10:09:31Z</time>
      </trkpt>
      <trkpt lat="47.42975" lon="6.79645">
        <ele>496.18</ele>
        <time>2013-11-11T10:09:32Z</time>
      </trkpt>
      <trkpt lat="47.42973" lon="6.79648">
        <ele>496.18</ele>
        <time>2013-11-11T10:09:33Z</time>
      </trkpt>
      <trkpt lat="47.4297" lon="6.79651">
        <ele>496.66</ele>
        <time>2013-11-11T10:09:34Z</time>
      </trkpt>
      <trkpt lat="47.42968" lon="6.79653">
        <ele>496.66</ele>
        <time>2013-11-11T10:09:35Z</time>
      </trkpt>
      <trkpt lat="47.42966" lon="6.79656">
        <ele>497.14</ele>
        <time>2013-11-11T10:09:36Z</time>
      </trkpt>
      <trkpt lat="47.42965" lon="6.79659">
        <ele>497.14</ele>
        <time>2013-11-11T10:09:37Z</time>
      </trkpt>
      <trkpt lat="47.42964" lon="6.79661">
        <ele>497.14</ele>
        <time>2013-11-11T10:09:38Z</time>
      </trkpt>
      <trkpt lat="47.42963" lon="6.79663">
        <ele>497.14</ele>
        <time>2013-11-11T10:09:39Z</time>
      </trkpt>
      <trkpt lat="47.42962" lon="6.79665">
        <ele>497.14</ele>
        <time>2013-11-11T10:09:40Z</time>
      </trkpt>
      <trkpt lat="47.42962" lon="6.79668">
        <ele>497.14</ele>
        <time>2013-11-11T10:09:41Z</time>
      </trkpt>
      <trkpt lat="47.42961" lon="6.7967">
        <ele>496.66</ele>
        <time>2013-11-11T10:09:42Z</time>
      </trkpt>
      <trkpt lat="47.42959" lon="6.79671">
        <ele>496.66</ele>
        <time>2013-11-11T10:09:43Z</time>
      </trkpt>
      <trkpt lat="47.42956" lon="6.7967">
        <ele>496.66</ele>
        <time>2013-11-11T10:09:44Z</time>
      </trkpt>
      <trkpt lat="47.42955" lon="6.79666">
        <ele>496.66</ele>
        <time>2013-11-11T10:09:45Z</time>
      </trkpt>
      <trkpt lat="47.42956" lon="6.79663">
        <ele>496.66</ele>
        <time>2013-11-11T10:09:46Z</time>
      </trkpt>
      <trkpt lat="47.42959" lon="6.79662">
        <ele>497.14</ele>
        <time>2013-11-11T10:09:47Z</time>
      </trkpt>
      <trkpt lat="47.42962" lon="6.79663">
        <ele>497.14</ele>
        <time>2013-11-11T10:09:48Z</time>
      </trkpt>
      <trkpt lat="47.42964" lon="6.79666">
        <ele>497.62</ele>
        <time>2013-11-11T10:09:49Z</time>
      </trkpt>
      <trkpt lat="47.42967" lon="6.7967">
        <ele>498.58</ele>
        <time>2013-11-11T10:09:50Z</time>
      </trkpt>
      <trkpt lat="47.42973" lon="6.79675">
        <ele>500.5</ele>
        <time>2013-11-11T10:09:53Z</time>
      </trkpt>
      <trkpt lat="47.42973" lon="6.79674">
        <ele>500.98</ele>
        <time>2013-11-11T10:09:54Z</time>
      </trkpt>
      <trkpt lat="47.42974" lon="6.79673">
        <ele>501.46</ele>
        <time>2013-11-11T10:09:55Z</time>
      </trkpt>
      <trkpt lat="47.42974" lon="6.79671">
        <ele>501.46</ele>
        <time>2013-11-11T10:09:56Z</time>
      </trkpt>
      <trkpt lat="47.42974" lon="6.7967">
        <ele>501.95</ele>
        <time>2013-11-11T10:09:57Z</time>
      </trkpt>
      <trkpt lat="47.42973" lon="6.79668">
        <ele>503.39</ele>
        <time>2013-11-11T10:10:09Z</time>
      </trkpt>
      <trkpt lat="47.42973" lon="6.79669">
        <ele>502.91</ele>
        <time>2013-11-11T10:10:28Z</time>
      </trkpt>
      <trkpt lat="47.42972" lon="6.79668">
        <ele>502.91</ele>
        <time>2013-11-11T10:10:29Z</time>
      </trkpt>
      <trkpt lat="47.42969" lon="6.79667">
        <ele>502.43</ele>
        <time>2013-11-11T10:10:30Z</time>
      </trkpt>
      <trkpt lat="47.42965" lon="6.79666">
        <ele>501.46</ele>
        <time>2013-11-11T10:10:31Z</time>
      </trkpt>
      <trkpt lat="47.4296" lon="6.79665">
        <ele>500.98</ele>
        <time>2013-11-11T10:10:32Z</time>
      </trkpt>
      <trkpt lat="47.42917" lon="6.79656">
        <ele>498.1</ele>
        <time>2013-11-11T10:10:41Z</time>
      </trkpt>
      <trkpt lat="47.42905" lon="6.79647">
        <ele>496.66</ele>
        <time>2013-11-11T10:10:45Z</time>
      </trkpt>
      <trkpt lat="47.429" lon="6.79646">
        <ele>496.66</ele>
        <time>2013-11-11T10:10:46Z</time>
      </trkpt>
      <trkpt lat="47.42896" lon="6.79649">
        <ele>496.18</ele>
        <time>2013-11-11T10:10:47Z</time>
      </trkpt>
      <trkpt lat="47.42893" lon="6.79655">
        <ele>496.18</ele>
        <time>2013-11-11T10:10:48Z</time>
      </trkpt>
      <trkpt lat="47.42891" lon="6.79663">
        <ele>496.18</ele>
        <time>2013-11-11T10:10:49Z</time>
      </trkpt>
      <trkpt lat="47.42891" lon="6.79671">
        <ele>495.7</ele>
        <time>2013-11-11T10:10:50Z</time>
      </trkpt>
      <trkpt lat="47.42891" lon="6.79679">
        <ele>495.7</ele>
        <time>2013-11-11T10:10:51Z</time>
      </trkpt>
      <trkpt lat="47.4289" lon="6.79686">
        <ele>495.22</ele>
        <time>2013-11-11T10:10:52Z</time>
      </trkpt>
      <trkpt lat="47.4289" lon="6.79694">
        <ele>494.74</ele>
        <time>2013-11-11T10:10:53Z</time>
      </trkpt>
      <trkpt lat="47.42891" lon="6.797">
        <ele>494.74</ele>
        <time>2013-11-11T10:10:54Z</time>
      </trkpt>
      <trkpt lat="47.42892" lon="6.79707">
        <ele>494.26</ele>
        <time>2013-11-11T10:10:55Z</time>
      </trkpt>
      <trkpt lat="47.42896" lon="6.79713">
        <ele>493.77</ele>
        <time>2013-11-11T10:10:56Z</time>
      </trkpt>
      <trkpt lat="47.42901" lon="6.79718">
        <ele>493.77</ele>
        <time>2013-11-11T10:10:57Z</time>
      </trkpt>
      <trkpt lat="47.42907" lon="6.7972">
        <ele>493.77</ele>
        <time>2013-11-11T10:10:58Z</time>
      </trkpt>
      <trkpt lat="47.42912" lon="6.79721">
        <ele>493.29</ele>
        <time>2013-11-11T10:10:59Z</time>
      </trkpt>
      <trkpt lat="47.42917" lon="6.79721">
        <ele>492.81</ele>
        <time>2013-11-11T10:11:00Z</time>
      </trkpt>
      <trkpt lat="47.42923" lon="6.79721">
        <ele>492.81</ele>
        <time>2013-11-11T10:11:01Z</time>
      </trkpt>
      <trkpt lat="47.42927" lon="6.79722">
        <ele>492.81</ele>
        <time>2013-11-11T10:11:02Z</time>
      </trkpt>
      <trkpt lat="47.42931" lon="6.79724">
        <ele>492.33</ele>
        <time>2013-11-11T10:11:03Z</time>
      </trkpt>
      <trkpt lat="47.42935" lon="6.79727">
        <ele>491.85</ele>
        <time>2013-11-11T10:11:04Z</time>
      </trkpt>
      <trkpt lat="47.42939" lon="6.7973">
        <ele>491.85</ele>
        <time>2013-11-11T10:11:05Z</time>
      </trkpt>
      <trkpt lat="47.42943" lon="6.79732">
        <ele>492.33</ele>
        <time>2013-11-11T10:11:06Z</time>
      </trkpt>
      <trkpt lat="47.42947" lon="6.79733">
        <ele>492.81</ele>
        <time>2013-11-11T10:11:07Z</time>
      </trkpt>
      <trkpt lat="47.42954" lon="6.79734">
        <ele>493.77</ele>
        <time>2013-11-11T10:11:09Z</time>
      </trkpt>
      <trkpt lat="47.42957" lon="6.7973">
        <ele>494.26</ele>
        <time>2013-11-11T10:11:10Z</time>
      </trkpt>
      <trkpt lat="47.42958" lon="6.79724">
        <ele>494.26</ele>
        <time>2013-11-11T10:11:11Z</time>
      </trkpt>
      <trkpt lat="47.42957" lon="6.79717">
        <ele>494.74</ele>
        <time>2013-11-11T10:11:12Z</time>
      </trkpt>
      <trkpt lat="47.42954" lon="6.7971">
        <ele>494.26</ele>
        <time>2013-11-11T10:11:13Z</time>
      </trkpt>
      <trkpt lat="47.42949" lon="6.79705">
        <ele>494.26</ele>
        <time>2013-11-11T10:11:14Z</time>
      </trkpt>
      <trkpt lat="47.42943" lon="6.79702">
        <ele>494.26</ele>
        <time>2013-11-11T10:11:15Z</time>
      </trkpt>
      <trkpt lat="47.42936" lon="6.79696">
        <ele>494.26</ele>
        <time>2013-11-11T10:11:17Z</time>
      </trkpt>
      <trkpt lat="47.42932" lon="6.79696">
        <ele>494.26</ele>
        <time>2013-11-11T10:11:18Z</time>
      </trkpt>
      <trkpt lat="47.42927" lon="6.79696">
        <ele>494.26</ele>
        <time>2013-11-11T10:11:19Z</time>
      </trkpt>
      <trkpt lat="47.42922" lon="6.79696">
        <ele>494.26</ele>
        <time>2013-11-11T10:11:20Z</time>
      </trkpt>
      <trkpt lat="47.42918" lon="6.79696">
        <ele>494.26</ele>
        <time>2013-11-11T10:11:21Z</time>
      </trkpt>
      <trkpt lat="47.42915" lon="6.79695">
        <ele>494.26</ele>
        <time>2013-11-11T10:11:22Z</time>
      </trkpt>
      <trkpt lat="47.42911" lon="6.79694">
        <ele>494.26</ele>
        <time>2013-11-11T10:11:23Z</time>
      </trkpt>
      <trkpt lat="47.42908" lon="6.79692">
        <ele>494.26</ele>
        <time>2013-11-11T10:11:24Z</time>
      </trkpt>
      <trkpt lat="47.42904" lon="6.7969">
        <ele>493.77</ele>
        <time>2013-11-11T10:11:25Z</time>
      </trkpt>
      <trkpt lat="47.429" lon="6.79686">
        <ele>493.77</ele>
        <time>2013-11-11T10:11:26Z</time>
      </trkpt>
      <trkpt lat="47.42899" lon="6.79679">
        <ele>494.26</ele>
        <time>2013-11-11T10:11:27Z</time>
      </trkpt>
      <trkpt lat="47.42903" lon="6.79674">
        <ele>494.74</ele>
        <time>2013-11-11T10:11:28Z</time>
      </trkpt>
      <trkpt lat="47.42909" lon="6.79673">
        <ele>494.74</ele>
        <time>2013-11-11T10:11:29Z</time>
      </trkpt>
      <trkpt lat="47.42914" lon="6.79675">
        <ele>494.74</ele>
        <time>2013-11-11T10:11:30Z</time>
      </trkpt>
      <trkpt lat="47.42919" lon="6.79677">
        <ele>494.74</ele>
        <time>2013-11-11T10:11:31Z</time>
      </trkpt>
      <trkpt lat="47.4293" lon="6.79682">
        <ele>494.74</ele>
        <time>2013-11-11T10:11:34Z</time>
      </trkpt>
      <trkpt lat="47.42944" lon="6.79686">
        <ele>494.26</ele>
        <time>2013-11-11T10:11:38Z</time>
      </trkpt>
      <trkpt lat="47.42947" lon="6.79689">
        <ele>493.77</ele>
        <time>2013-11-11T10:11:39Z</time>
      </trkpt>
      <trkpt lat="47.42951" lon="6.7969">
        <ele>493.77</ele>
        <time>2013-11-11T10:11:40Z</time>
      </trkpt>
      <trkpt lat="47.4296" lon="6.79689">
        <ele>494.74</ele>
        <time>2013-11-11T10:11:43Z</time>
      </trkpt>
      <trkpt lat="47.4296" lon="6.79685">
        <ele>494.74</ele>
        <time>2013-11-11T10:11:46Z</time>
      </trkpt>
      <trkpt lat="47.42958" lon="6.79686">
        <ele>494.74</ele>
        <time>2013-11-11T10:11:48Z</time>
      </trkpt>
      <trkpt lat="47.42957" lon="6.79689">
        <ele>494.74</ele>
        <time>2013-11-11T10:11:49Z</time>
      </trkpt>
      <trkpt lat="47.42958" lon="6.79692">
        <ele>494.74</ele>
        <time>2013-11-11T10:11:50Z</time>
      </trkpt>
      <trkpt lat="47.4296" lon="6.79694">
        <ele>495.22</ele>
        <time>2013-11-11T10:11:51Z</time>
      </trkpt>
      <trkpt lat="47.42962" lon="6.79695">
        <ele>495.22</ele>
        <time>2013-11-11T10:11:52Z</time>
      </trkpt>
      <trkpt lat="47.42964" lon="6.79694">
        <ele>495.22</ele>
        <time>2013-11-11T10:11:53Z</time>
      </trkpt>
      <trkpt lat="47.42978" lon="6.79703">
        <ele>495.7</ele>
        <time>2013-11-11T10:12:05Z</time>
      </trkpt>
      <trkpt lat="47.4298" lon="6.79705">
        <ele>495.22</ele>
        <time>2013-11-11T10:12:33Z</time>
      </trkpt>
      <trkpt lat="47.4298" lon="6.79705">
        <ele>494.26</ele>
        <time>2013-11-11T10:12:54Z</time>
      </trkpt>
      <trkpt lat="47.4298" lon="6.79704">
        <ele>492.81</ele>
        <time>2013-11-11T10:13:23Z</time>
      </trkpt>
      <trkpt lat="47.42979" lon="6.79706">
        <ele>492.81</ele>
        <time>2013-11-11T10:13:35Z</time>
      </trkpt>
      <trkpt lat="47.42977" lon="6.79706">
        <ele>492.81</ele>
        <time>2013-11-11T10:13:36Z</time>
      </trkpt>
      <trkpt lat="47.42976" lon="6.79705">
        <ele>492.81</ele>
        <time>2013-11-11T10:13:37Z</time>
      </trkpt>
      <trkpt lat="47.42975" lon="6.79703">
        <ele>492.81</ele>
        <time>2013-11-11T10:13:38Z</time>
      </trkpt>
      <trkpt lat="47.42974" lon="6.797">
        <ele>492.81</ele>
        <time>2013-11-11T10:13:39Z</time>
      </trkpt>
      <trkpt lat="47.42969" lon="6.79692">
        <ele>493.29</ele>
        <time>2013-11-11T10:13:43Z</time>
      </trkpt>
      <trkpt lat="47.42967" lon="6.79691">
        <ele>493.29</ele>
        <time>2013-11-11T10:13:44Z</time>
      </trkpt>
      <trkpt lat="47.42965" lon="6.79691">
        <ele>493.77</ele>
        <time>2013-11-11T10:13:45Z</time>
      </trkpt>
      <trkpt lat="47.42949" lon="6.79684">
        <ele>494.26</ele>
        <time>2013-11-11T10:13:50Z</time>
      </trkpt>
      <trkpt lat="47.42944" lon="6.79682">
        <ele>494.26</ele>
        <time>2013-11-11T10:13:51Z</time>
      </trkpt>
      <trkpt lat="47.42925" lon="6.79677">
        <ele>496.18</ele>
        <time>2013-11-11T10:13:55Z</time>
      </trkpt>
      <trkpt lat="47.42904" lon="6.79673">
        <ele>493.77</ele>
        <time>2013-11-11T10:14:00Z</time>
      </trkpt>
      <trkpt lat="47.429" lon="6.79678">
        <ele>493.77</ele>
        <time>2013-11-11T10:14:01Z</time>
      </trkpt>
      <trkpt lat="47.42899" lon="6.79685">
        <ele>493.77</ele>
        <time>2013-11-11T10:14:02Z</time>
      </trkpt>
      <trkpt lat="47.42901" lon="6.79693">
        <ele>493.77</ele>
        <time>2013-11-11T10:14:03Z</time>
      </trkpt>
      <trkpt lat="47.42905" lon="6.79698">
        <ele>493.77</ele>
        <time>2013-11-11T10:14:04Z</time>
      </trkpt>
      <trkpt lat="47.4291" lon="6.79701">
        <ele>493.77</ele>
        <time>2013-11-11T10:14:05Z</time>
      </trkpt>
      <trkpt lat="47.42915" lon="6.79702">
        <ele>493.77</ele>
        <time>2013-11-11T10:14:06Z</time>
      </trkpt>
      <trkpt lat="47.4292" lon="6.79704">
        <ele>493.29</ele>
        <time>2013-11-11T10:14:07Z</time>
      </trkpt>
      <trkpt lat="47.42947" lon="6.79709">
        <ele>494.26</ele>
        <time>2013-11-11T10:14:14Z</time>
      </trkpt>
      <trkpt lat="47.42952" lon="6.79709">
        <ele>494.74</ele>
        <time>2013-11-11T10:14:15Z</time>
      </trkpt>
      <trkpt lat="47.42956" lon="6.7971">
        <ele>494.74</ele>
        <time>2013-11-11T10:14:16Z</time>
      </trkpt>
      <trkpt lat="47.42959" lon="6.79715">
        <ele>495.22</ele>
        <time>2013-11-11T10:14:17Z</time>
      </trkpt>
      <trkpt lat="47.4296" lon="6.79721">
        <ele>495.7</ele>
        <time>2013-11-11T10:14:18Z</time>
      </trkpt>
      <trkpt lat="47.42957" lon="6.79727">
        <ele>495.22</ele>
        <time>2013-11-11T10:14:19Z</time>
      </trkpt>
      <trkpt lat="47.42951" lon="6.79731">
        <ele>495.22</ele>
        <time>2013-11-11T10:14:20Z</time>
      </trkpt>
      <trkpt lat="47.42946" lon="6.79732">
        <ele>495.22</ele>
        <time>2013-11-11T10:14:21Z</time>
      </trkpt>
      <trkpt lat="47.42941" lon="6.79732">
        <ele>495.22</ele>
        <time>2013-11-11T10:14:22Z</time>
      </trkpt>
      <trkpt lat="47.42936" lon="6.7973">
        <ele>494.74</ele>
        <time>2013-11-11T10:14:23Z</time>
      </trkpt>
      <trkpt lat="47.4293" lon="6.79727">
        <ele>494.26</ele>
        <time>2013-11-11T10:14:24Z</time>
      </trkpt>
      <trkpt lat="47.42916" lon="6.79719">
        <ele>494.26</ele>
        <time>2013-11-11T10:14:27Z</time>
      </trkpt>
      <trkpt lat="47.42898" lon="6.79713">
        <ele>494.26</ele>
        <time>2013-11-11T10:14:31Z</time>
      </trkpt>
      <trkpt lat="47.42894" lon="6.79711">
        <ele>494.26</ele>
        <time>2013-11-11T10:14:32Z</time>
      </trkpt>
      <trkpt lat="47.42891" lon="6.79706">
        <ele>494.26</ele>
        <time>2013-11-11T10:14:33Z</time>
      </trkpt>
      <trkpt lat="47.4289" lon="6.797">
        <ele>494.74</ele>
        <time>2013-11-11T10:14:34Z</time>
      </trkpt>
      <trkpt lat="47.42889" lon="6.79695">
        <ele>494.74</ele>
        <time>2013-11-11T10:14:35Z</time>
      </trkpt>
      <trkpt lat="47.42889" lon="6.79689">
        <ele>494.74</ele>
        <time>2013-11-11T10:14:36Z</time>
      </trkpt>
      <trkpt lat="47.4289" lon="6.79682">
        <ele>495.22</ele>
        <time>2013-11-11T10:14:37Z</time>
      </trkpt>
      <trkpt lat="47.42891" lon="6.79677">
        <ele>495.7</ele>
        <time>2013-11-11T10:14:38Z</time>
      </trkpt>
      <trkpt lat="47.42893" lon="6.79664">
        <ele>495.7</ele>
        <time>2013-11-11T10:14:40Z</time>
      </trkpt>
      <trkpt lat="47.42895" lon="6.79657">
        <ele>495.7</ele>
        <time>2013-11-11T10:14:41Z</time>
      </trkpt>
      <trkpt lat="47.42899" lon="6.79653">
        <ele>495.7</ele>
        <time>2013-11-11T10:14:42Z</time>
      </trkpt>
      <trkpt lat="47.42904" lon="6.79652">
        <ele>495.7</ele>
        <time>2013-11-11T10:14:43Z</time>
      </trkpt>
      <trkpt lat="47.42909" lon="6.79653">
        <ele>496.18</ele>
        <time>2013-11-11T10:14:44Z</time>
      </trkpt>
      <trkpt lat="47.42912" lon="6.79655">
        <ele>496.18</ele>
        <time>2013-11-11T10:14:45Z</time>
      </trkpt>
      <trkpt lat="47.42916" lon="6.79656">
        <ele>496.66</ele>
        <time>2013-11-11T10:14:46Z</time>
      </trkpt>
      <trkpt lat="47.4292" lon="6.79657">
        <ele>496.66</ele>
        <time>2013-11-11T10:14:47Z</time>
      </trkpt>
      <trkpt lat="47.42924" lon="6.79658">
        <ele>496.66</ele>
        <time>2013-11-11T10:14:48Z</time>
      </trkpt>
      <trkpt lat="47.42929" lon="6.79659">
        <ele>497.14</ele>
        <time>2013-11-11T10:14:49Z</time>
      </trkpt>
      <trkpt lat="47.42933" lon="6.79661">
        <ele>497.62</ele>
        <time>2013-11-11T10:14:50Z</time>
      </trkpt>
      <trkpt lat="47.42959" lon="6.79676">
        <ele>497.62</ele>
        <time>2013-11-11T10:14:58Z</time>
      </trkpt>
      <trkpt lat="47.42959" lon="6.79681">
        <ele>497.14</ele>
        <time>2013-11-11T10:15:01Z</time>
      </trkpt>
      <trkpt lat="47.42971" lon="6.79704">
        <ele>496.66</ele>
        <time>2013-11-11T10:15:14Z</time>
      </trkpt>
      <trkpt lat="47.42977" lon="6.7971">
        <ele>496.66</ele>
        <time>2013-11-11T10:15:18Z</time>
      </trkpt>
      <trkpt lat="47.42978" lon="6.7971">
        <ele>496.66</ele>
        <time>2013-11-11T10:15:19Z</time>
      </trkpt>
      <trkpt lat="47.42979" lon="6.7971">
        <ele>496.66</ele>
        <time>2013-11-11T10:15:20Z</time>
      </trkpt>
      <trkpt lat="47.42974" lon="6.79713">
        <ele>496.18</ele>
        <time>2013-11-11T10:15:28Z</time>
      </trkpt>
      <trkpt lat="47.42975" lon="6.79708">
        <ele>496.18</ele>
        <time>2013-11-11T10:15:30Z</time>
      </trkpt>
      <trkpt lat="47.42973" lon="6.79695">
        <ele>496.66</ele>
        <time>2013-11-11T10:15:38Z</time>
      </trkpt>
      <trkpt lat="47.42975" lon="6.79696">
        <ele>496.66</ele>
        <time>2013-11-11T10:15:39Z</time>
      </trkpt>
      <trkpt lat="47.42977" lon="6.79697">
        <ele>496.66</ele>
        <time>2013-11-11T10:15:40Z</time>
      </trkpt>
      <trkpt lat="47.4298" lon="6.797">
        <ele>496.66</ele>
        <time>2013-11-11T10:15:42Z</time>
      </trkpt>
      <trkpt lat="47.42982" lon="6.79702">
        <ele>496.18</ele>
        <time>2013-11-11T10:15:43Z</time>
      </trkpt>
      <trkpt lat="47.42984" lon="6.79703">
        <ele>496.18</ele>
        <time>2013-11-11T10:15:44Z</time>
      </trkpt>
      <trkpt lat="47.42986" lon="6.79702">
        <ele>496.18</ele>
        <time>2013-11-11T10:15:45Z</time>
      </trkpt>
      <trkpt lat="47.42988" lon="6.79701">
        <ele>496.18</ele>
        <time>2013-11-11T10:15:46Z</time>
      </trkpt>
      <trkpt lat="47.4299" lon="6.79698">
        <ele>496.18</ele>
        <time>2013-11-11T10:15:47Z</time>
      </trkpt>
      <trkpt lat="47.42991" lon="6.79695">
        <ele>496.18</ele>
        <time>2013-11-11T10:15:48Z</time>
      </trkpt>
      <trkpt lat="47.42996" lon="6.7969">
        <ele>496.18</ele>
        <time>2013-11-11T10:15:51Z</time>
      </trkpt>
      <trkpt lat="47.43019" lon="6.79669">
        <ele>496.18</ele>
        <time>2013-11-11T10:16:05Z</time>
      </trkpt>
      <trkpt lat="47.43043" lon="6.79648">
        <ele>495.7</ele>
        <time>2013-11-11T10:16:16Z</time>
      </trkpt>
      <trkpt lat="47.43062" lon="6.79627">
        <ele>498.58</ele>
        <time>2013-11-11T10:16:25Z</time>
      </trkpt>
      <trkpt lat="47.43079" lon="6.79617">
        <ele>500.02</ele>
        <time>2013-11-11T10:16:37Z</time>
      </trkpt>
      <trkpt lat="47.4308" lon="6.79614">
        <ele>499.54</ele>
        <time>2013-11-11T10:16:42Z</time>
      </trkpt>
      <trkpt lat="47.43081" lon="6.79602">
        <ele>498.58</ele>
        <time>2013-11-11T10:16:53Z</time>
      </trkpt>
      <trkpt lat="47.43081" lon="6.79601">
        <ele>498.58</ele>
        <time>2013-11-11T10:16:54Z</time>
      </trkpt>
      <trkpt lat="47.43081" lon="6.7959">
        <ele>498.1</ele>
        <time>2013-11-11T10:16:58Z</time>
      </trkpt>
      <trkpt lat="47.4308" lon="6.79582">
        <ele>498.1</ele>
        <time>2013-11-11T10:17:00Z</time>
      </trkpt>
      <trkpt lat="47.43081" lon="6.7957">
        <ele>498.1</ele>
        <time>2013-11-11T10:17:11Z</time>
      </trkpt>
      <trkpt lat="47.43083" lon="6.79569">
        <ele>499.06</ele>
        <time>2013-11-11T10:17:45Z</time>
      </trkpt>
      <trkpt lat="47.43082" lon="6.79568">
        <ele>495.22</ele>
        <time>2013-11-11T10:18:19Z</time>
      </trkpt>
      <trkpt lat="47.43084" lon="6.79568">
        <ele>496.18</ele>
        <time>2013-11-11T10:18:46Z</time>
      </trkpt>
      <trkpt lat="47.43083" lon="6.7957">
        <ele>496.66</ele>
        <time>2013-11-11T10:19:05Z</time>
      </trkpt>
      <trkpt lat="47.43083" lon="6.7957">
        <ele>495.7</ele>
        <time>2013-11-11T10:19:16Z</time>
      </trkpt>
      <trkpt lat="47.43081" lon="6.7957">
        <ele>495.7</ele>
        <time>2013-11-11T10:19:34Z</time>
      </trkpt>
      <trkpt lat="47.43082" lon="6.79575">
        <ele>494.74</ele>
        <time>2013-11-11T10:19:53Z</time>
      </trkpt>
      <trkpt lat="47.43082" lon="6.79577">
        <ele>494.74</ele>
        <time>2013-11-11T10:19:54Z</time>
      </trkpt>
      <trkpt lat="47.43082" lon="6.79584">
        <ele>494.74</ele>
        <time>2013-11-11T10:20:00Z</time>
      </trkpt>
      <trkpt lat="47.43084" lon="6.7958">
        <ele>495.22</ele>
        <time>2013-11-11T10:20:05Z</time>
      </trkpt>
      <trkpt lat="47.43085" lon="6.79579">
        <ele>493.29</ele>
        <time>2013-11-11T10:20:23Z</time>
      </trkpt>
      <trkpt lat="47.43082" lon="6.79581">
        <ele>495.7</ele>
        <time>2013-11-11T10:20:50Z</time>
      </trkpt>
      <trkpt lat="47.43085" lon="6.79577">
        <ele>494.74</ele>
        <time>2013-11-11T10:21:29Z</time>
      </trkpt>
      <trkpt lat="47.43084" lon="6.7958">
        <ele>495.22</ele>
        <time>2013-11-11T10:21:59Z</time>
      </trkpt>
      <trkpt lat="47.43083" lon="6.79581">
        <ele>495.22</ele>
        <time>2013-11-11T10:22:13Z</time>
      </trkpt>
      <trkpt lat="47.43082" lon="6.79577">
        <ele>494.74</ele>
        <time>2013-11-11T10:22:35Z</time>
      </trkpt>
      <trkpt lat="47.43083" lon="6.79574">
        <ele>497.62</ele>
        <time>2013-11-11T10:22:55Z</time>
      </trkpt>
      <trkpt lat="47.43081" lon="6.79572">
        <ele>496.66</ele>
        <time>2013-11-11T10:23:26Z</time>
      </trkpt>
      <trkpt lat="47.43079" lon="6.79573">
        <ele>495.22</ele>
        <time>2013-11-11T10:24:03Z</time>
      </trkpt>
      <trkpt lat="47.43082" lon="6.79573">
        <ele>495.22</ele>
        <time>2013-11-11T10:24:24Z</time>
      </trkpt>
      <trkpt lat="47.43083" lon="6.79572">
        <ele>495.22</ele>
        <time>2013-11-11T10:24:48Z</time>
      </trkpt>
      <trkpt lat="47.43084" lon="6.79575">
        <ele>494.74</ele>
        <time>2013-11-11T10:24:52Z</time>
      </trkpt>
      <trkpt lat="47.43089" lon="6.79587">
        <ele>495.7</ele>
        <time>2013-11-11T10:25:00Z</time>
      </trkpt>
      <trkpt lat="47.431" lon="6.79588">
        <ele>496.18</ele>
        <time>2013-11-11T10:25:06Z</time>
      </trkpt>
      <trkpt lat="47.43109" lon="6.79586">
        <ele>496.66</ele>
        <time>2013-11-11T10:25:12Z</time>
      </trkpt>
      <trkpt lat="47.43121" lon="6.79594">
        <ele>494.74</ele>
        <time>2013-11-11T10:25:23Z</time>
      </trkpt>
      <trkpt lat="47.43123" lon="6.79597">
        <ele>494.26</ele>
        <time>2013-11-11T10:25:25Z</time>
      </trkpt>
      <trkpt lat="47.43129" lon="6.79603">
        <ele>493.29</ele>
        <time>2013-11-11T10:25:30Z</time>
      </trkpt>
      <trkpt lat="47.43134" lon="6.79611">
        <ele>491.85</ele>
        <time>2013-11-11T10:25:40Z</time>
      </trkpt>
      <trkpt lat="47.43135" lon="6.79613">
        <ele>492.33</ele>
        <time>2013-11-11T10:26:06Z</time>
      </trkpt>
      <trkpt lat="47.43135" lon="6.79613">
        <ele>489.93</ele>
        <time>2013-11-11T10:26:37Z</time>
      </trkpt>
      <trkpt lat="47.43132" lon="6.79612">
        <ele>489.93</ele>
        <time>2013-11-11T10:27:09Z</time>
      </trkpt>
      <trkpt lat="47.43132" lon="6.79611">
        <ele>489.45</ele>
        <time>2013-11-11T10:27:39Z</time>
      </trkpt>
      <trkpt lat="47.43135" lon="6.79613">
        <ele>489.45</ele>
        <time>2013-11-11T10:28:18Z</time>
      </trkpt>
      <trkpt lat="47.43133" lon="6.79614">
        <ele>492.81</ele>
        <time>2013-11-11T10:28:46Z</time>
      </trkpt>
      <trkpt lat="47.43134" lon="6.79613">
        <ele>492.33</ele>
        <time>2013-11-11T10:29:12Z</time>
      </trkpt>
      <trkpt lat="47.43134" lon="6.79612">
        <ele>491.85</ele>
        <time>2013-11-11T10:29:34Z</time>
      </trkpt>
      <trkpt lat="47.43134" lon="6.79611">
        <ele>491.37</ele>
        <time>2013-11-11T10:29:59Z</time>
      </trkpt>
      <trkpt lat="47.43135" lon="6.79609">
        <ele>494.26</ele>
        <time>2013-11-11T10:30:28Z</time>
      </trkpt>
      <trkpt lat="47.43135" lon="6.7961">
        <ele>493.77</ele>
        <time>2013-11-11T10:30:57Z</time>
      </trkpt>
      <trkpt lat="47.43132" lon="6.79614">
        <ele>495.7</ele>
        <time>2013-11-11T10:31:28Z</time>
      </trkpt>
      <trkpt lat="47.4313" lon="6.79611">
        <ele>494.26</ele>
        <time>2013-11-11T10:31:57Z</time>
      </trkpt>
      <trkpt lat="47.43131" lon="6.79613">
        <ele>494.26</ele>
        <time>2013-11-11T10:32:20Z</time>
      </trkpt>
      <trkpt lat="47.43132" lon="6.79609">
        <ele>492.81</ele>
        <time>2013-11-11T10:32:49Z</time>
      </trkpt>
      <trkpt lat="47.43132" lon="6.79611">
        <ele>491.37</ele>
        <time>2013-11-11T10:33:09Z</time>
      </trkpt>
      <trkpt lat="47.43137" lon="6.79613">
        <ele>486.08</ele>
        <time>2013-11-11T10:33:41Z</time>
      </trkpt>
      <trkpt lat="47.43133" lon="6.79613">
        <ele>488.49</ele>
        <time>2013-11-11T10:34:12Z</time>
      </trkpt>
      <trkpt lat="47.43132" lon="6.79612">
        <ele>492.81</ele>
        <time>2013-11-11T10:34:40Z</time>
      </trkpt>
      <trkpt lat="47.43133" lon="6.79612">
        <ele>496.18</ele>
        <time>2013-11-11T10:35:08Z</time>
      </trkpt>
      <trkpt lat="47.43134" lon="6.7961">
        <ele>495.22</ele>
        <time>2013-11-11T10:35:21Z</time>
      </trkpt>
      <trkpt lat="47.43135" lon="6.7961">
        <ele>494.74</ele>
        <time>2013-11-11T10:35:23Z</time>
      </trkpt>
      <trkpt lat="47.43141" lon="6.79613">
        <ele>496.18</ele>
        <time>2013-11-11T10:35:38Z</time>
      </trkpt>
      <trkpt lat="47.43143" lon="6.79614">
        <ele>496.18</ele>
        <time>2013-11-11T10:35:50Z</time>
      </trkpt>
      <trkpt lat="47.43143" lon="6.79633">
        <ele>495.7</ele>
        <time>2013-11-11T10:36:00Z</time>
      </trkpt>
      <trkpt lat="47.43133" lon="6.79655">
        <ele>496.18</ele>
        <time>2013-11-11T10:36:08Z</time>
      </trkpt>
      <trkpt lat="47.43126" lon="6.79673">
        <ele>496.66</ele>
        <time>2013-11-11T10:36:15Z</time>
      </trkpt>
      <trkpt lat="47.4313" lon="6.79685">
        <ele>495.7</ele>
        <time>2013-11-11T10:36:26Z</time>
      </trkpt>
      <trkpt lat="47.43134" lon="6.79692">
        <ele>496.18</ele>
        <time>2013-11-11T10:36:30Z</time>
      </trkpt>
      <trkpt lat="47.43143" lon="6.79699">
        <ele>497.14</ele>
        <time>2013-11-11T10:36:35Z</time>
      </trkpt>
      <trkpt lat="47.43147" lon="6.797">
        <ele>497.14</ele>
        <time>2013-11-11T10:36:37Z</time>
      </trkpt>
      <trkpt lat="47.4317" lon="6.79693">
        <ele>496.66</ele>
        <time>2013-11-11T10:36:51Z</time>
      </trkpt>
      <trkpt lat="47.43187" lon="6.79692">
        <ele>495.22</ele>
        <time>2013-11-11T10:36:58Z</time>
      </trkpt>
      <trkpt lat="47.43233" lon="6.79688">
        <ele>493.29</ele>
        <time>2013-11-11T10:37:11Z</time>
      </trkpt>
      <trkpt lat="47.43265" lon="6.79682">
        <ele>491.85</ele>
        <time>2013-11-11T10:37:22Z</time>
      </trkpt>
      <trkpt lat="47.43276" lon="6.79675">
        <ele>490.41</ele>
        <time>2013-11-11T10:37:32Z</time>
      </trkpt>
      <trkpt lat="47.43281" lon="6.7967">
        <ele>488.49</ele>
        <time>2013-11-11T10:37:44Z</time>
      </trkpt>
      <trkpt lat="47.43298" lon="6.79671">
        <ele>486.08</ele>
        <time>2013-11-11T10:37:49Z</time>
      </trkpt>
      <trkpt lat="47.43326" lon="6.79663">
        <ele>485.12</ele>
        <time>2013-11-11T10:37:57Z</time>
      </trkpt>
      <trkpt lat="47.43331" lon="6.79663">
        <ele>485.6</ele>
        <time>2013-11-11T10:37:59Z</time>
      </trkpt>
      <trkpt lat="47.43361" lon="6.79667">
        <ele>485.6</ele>
        <time>2013-11-11T10:38:12Z</time>
      </trkpt>
      <trkpt lat="47.43357" lon="6.79705">
        <ele>483.68</ele>
        <time>2013-11-11T10:38:20Z</time>
      </trkpt>
      <trkpt lat="47.43353" lon="6.79711">
        <ele>483.68</ele>
        <time>2013-11-11T10:38:22Z</time>
      </trkpt>
      <trkpt lat="47.43348" lon="6.79709">
        <ele>484.16</ele>
        <time>2013-11-11T10:38:24Z</time>
      </trkpt>
      <trkpt lat="47.43345" lon="6.79705">
        <ele>484.16</ele>
        <time>2013-11-11T10:38:25Z</time>
      </trkpt>
      <trkpt lat="47.43338" lon="6.79694">
        <ele>484.64</ele>
        <time>2013-11-11T10:38:28Z</time>
      </trkpt>
      <trkpt lat="47.43332" lon="6.79695">
        <ele>484.16</ele>
        <time>2013-11-11T10:38:32Z</time>
      </trkpt>
      <trkpt lat="47.43326" lon="6.79686">
        <ele>482.72</ele>
        <time>2013-11-11T10:38:41Z</time>
      </trkpt>
      <trkpt lat="47.43316" lon="6.79686">
        <ele>480.8</ele>
        <time>2013-11-11T10:38:46Z</time>
      </trkpt>
      <trkpt lat="47.43307" lon="6.79697">
        <ele>478.39</ele>
        <time>2013-11-11T10:38:51Z</time>
      </trkpt>
      <trkpt lat="47.43322" lon="6.79729">
        <ele>479.84</ele>
        <time>2013-11-11T10:39:00Z</time>
      </trkpt>
      <trkpt lat="47.43323" lon="6.79733">
        <ele>480.32</ele>
        <time>2013-11-11T10:39:04Z</time>
      </trkpt>
      <trkpt lat="47.43322" lon="6.79733">
        <ele>481.76</ele>
        <time>2013-11-11T10:39:12Z</time>
      </trkpt>
      <trkpt lat="47.43322" lon="6.79733">
        <ele>481.28</ele>
        <time>2013-11-11T10:39:13Z</time>
      </trkpt>
      <trkpt lat="47.43318" lon="6.79723">
        <ele>479.84</ele>
        <time>2013-11-11T10:39:18Z</time>
      </trkpt>
      <trkpt lat="47.4331" lon="6.79706">
        <ele>478.39</ele>
        <time>2013-11-11T10:39:23Z</time>
      </trkpt>
      <trkpt lat="47.43303" lon="6.79707">
        <ele>477.91</ele>
        <time>2013-11-11T10:39:27Z</time>
      </trkpt>
      <trkpt lat="47.43291" lon="6.79727">
        <ele>478.87</ele>
        <time>2013-11-11T10:39:34Z</time>
      </trkpt>
      <trkpt lat="47.43288" lon="6.79724">
        <ele>479.84</ele>
        <time>2013-11-11T10:39:41Z</time>
      </trkpt>
      <trkpt lat="47.43288" lon="6.79721">
        <ele>482.24</ele>
        <time>2013-11-11T10:40:00Z</time>
      </trkpt>
      <trkpt lat="47.43289" lon="6.79743">
        <ele>481.28</ele>
        <time>2013-11-11T10:40:08Z</time>
      </trkpt>
      <trkpt lat="47.43307" lon="6.79758">
        <ele>480.32</ele>
        <time>2013-11-11T10:40:17Z</time>
      </trkpt>
      <trkpt lat="47.43309" lon="6.79756">
        <ele>480.32</ele>
        <time>2013-11-11T10:40:18Z</time>
      </trkpt>
      <trkpt lat="47.43325" lon="6.79733">
        <ele>478.87</ele>
        <time>2013-11-11T10:40:30Z</time>
      </trkpt>
      <trkpt lat="47.43327" lon="6.79729">
        <ele>478.87</ele>
        <time>2013-11-11T10:40:32Z</time>
      </trkpt>
      <trkpt lat="47.43326" lon="6.7972">
        <ele>479.84</ele>
        <time>2013-11-11T10:40:35Z</time>
      </trkpt>
      <trkpt lat="47.43332" lon="6.79702">
        <ele>482.24</ele>
        <time>2013-11-11T10:40:45Z</time>
      </trkpt>
      <trkpt lat="47.43336" lon="6.79697">
        <ele>482.72</ele>
        <time>2013-11-11T10:40:48Z</time>
      </trkpt>
      <trkpt lat="47.4335" lon="6.79699">
        <ele>483.68</ele>
        <time>2013-11-11T10:40:59Z</time>
      </trkpt>
      <trkpt lat="47.43357" lon="6.79702">
        <ele>483.2</ele>
        <time>2013-11-11T10:41:03Z</time>
      </trkpt>
      <trkpt lat="47.43359" lon="6.797">
        <ele>483.2</ele>
        <time>2013-11-11T10:41:04Z</time>
      </trkpt>
      <trkpt lat="47.4336" lon="6.79696">
        <ele>483.2</ele>
        <time>2013-11-11T10:41:05Z</time>
      </trkpt>
      <trkpt lat="47.43362" lon="6.79693">
        <ele>483.2</ele>
        <time>2013-11-11T10:41:06Z</time>
      </trkpt>
      <trkpt lat="47.43362" lon="6.79689">
        <ele>483.68</ele>
        <time>2013-11-11T10:41:07Z</time>
      </trkpt>
      <trkpt lat="47.43362" lon="6.79687">
        <ele>483.68</ele>
        <time>2013-11-11T10:41:08Z</time>
      </trkpt>
      <trkpt lat="47.43362" lon="6.79684">
        <ele>483.68</ele>
        <time>2013-11-11T10:41:09Z</time>
      </trkpt>
      <trkpt lat="47.43362" lon="6.79681">
        <ele>483.68</ele>
        <time>2013-11-11T10:41:10Z</time>
      </trkpt>
      <trkpt lat="47.43362" lon="6.79677">
        <ele>483.68</ele>
        <time>2013-11-11T10:41:11Z</time>
      </trkpt>
      <trkpt lat="47.43362" lon="6.79669">
        <ele>484.64</ele>
        <time>2013-11-11T10:41:14Z</time>
      </trkpt>
      <trkpt lat="47.43361" lon="6.79667">
        <ele>485.12</ele>
        <time>2013-11-11T10:41:15Z</time>
      </trkpt>
      <trkpt lat="47.43358" lon="6.79665">
        <ele>485.6</ele>
        <time>2013-11-11T10:41:28Z</time>
      </trkpt>
      <trkpt lat="47.43359" lon="6.79664">
        <ele>485.6</ele>
        <time>2013-11-11T10:41:43Z</time>
      </trkpt>
      <trkpt lat="47.43361" lon="6.79663">
        <ele>485.6</ele>
        <time>2013-11-11T10:41:44Z</time>
      </trkpt>
      <trkpt lat="47.43363" lon="6.79662">
        <ele>485.6</ele>
        <time>2013-11-11T10:41:45Z</time>
      </trkpt>
      <trkpt lat="47.43365" lon="6.7966">
        <ele>485.12</ele>
        <time>2013-11-11T10:41:46Z</time>
      </trkpt>
      <trkpt lat="47.43368" lon="6.79659">
        <ele>485.12</ele>
        <time>2013-11-11T10:41:47Z</time>
      </trkpt>
      <trkpt lat="47.43371" lon="6.79657">
        <ele>485.12</ele>
        <time>2013-11-11T10:41:48Z</time>
      </trkpt>
      <trkpt lat="47.43374" lon="6.79657">
        <ele>484.64</ele>
        <time>2013-11-11T10:41:49Z</time>
      </trkpt>
      <trkpt lat="47.43378" lon="6.79656">
        <ele>484.64</ele>
        <time>2013-11-11T10:41:50Z</time>
      </trkpt>
      <trkpt lat="47.43382" lon="6.79657">
        <ele>484.16</ele>
        <time>2013-11-11T10:41:51Z</time>
      </trkpt>
      <trkpt lat="47.43414" lon="6.79658">
        <ele>483.2</ele>
        <time>2013-11-11T10:42:01Z</time>
      </trkpt>
      <trkpt lat="47.43416" lon="6.79658">
        <ele>482.72</ele>
        <time>2013-11-11T10:42:02Z</time>
      </trkpt>
      <trkpt lat="47.43419" lon="6.79657">
        <ele>482.72</ele>
        <time>2013-11-11T10:42:03Z</time>
      </trkpt>
      <trkpt lat="47.43421" lon="6.79656">
        <ele>482.72</ele>
        <time>2013-11-11T10:42:04Z</time>
      </trkpt>
      <trkpt lat="47.43424" lon="6.79655">
        <ele>482.72</ele>
        <time>2013-11-11T10:42:05Z</time>
      </trkpt>
      <trkpt lat="47.43467" lon="6.7964">
        <ele>482.24</ele>
        <time>2013-11-11T10:42:18Z</time>
      </trkpt>
      <trkpt lat="47.43502" lon="6.79633">
        <ele>483.68</ele>
        <time>2013-11-11T10:42:30Z</time>
      </trkpt>
      <trkpt lat="47.43566" lon="6.79625">
        <ele>483.2</ele>
        <time>2013-11-11T10:42:48Z</time>
      </trkpt>
      <trkpt lat="47.43607" lon="6.79613">
        <ele>483.2</ele>
        <time>2013-11-11T10:42:59Z</time>
      </trkpt>
      <trkpt lat="47.43612" lon="6.79613">
        <ele>483.2</ele>
        <time>2013-11-11T10:43:00Z</time>
      </trkpt>
      <trkpt lat="47.43616" lon="6.79613">
        <ele>483.2</ele>
        <time>2013-11-11T10:43:01Z</time>
      </trkpt>
      <trkpt lat="47.43625" lon="6.79612">
        <ele>482.72</ele>
        <time>2013-11-11T10:43:03Z</time>
      </trkpt>
      <trkpt lat="47.43644" lon="6.79606">
        <ele>482.72</ele>
        <time>2013-11-11T10:43:08Z</time>
      </trkpt>
      <trkpt lat="47.43648" lon="6.79604">
        <ele>482.72</ele>
        <time>2013-11-11T10:43:09Z</time>
      </trkpt>
      <trkpt lat="47.43652" lon="6.79601">
        <ele>482.24</ele>
        <time>2013-11-11T10:43:10Z</time>
      </trkpt>
      <trkpt lat="47.43661" lon="6.79598">
        <ele>481.76</ele>
        <time>2013-11-11T10:43:12Z</time>
      </trkpt>
      <trkpt lat="47.43665" lon="6.79596">
        <ele>481.76</ele>
        <time>2013-11-11T10:43:13Z</time>
      </trkpt>
      <trkpt lat="47.43669" lon="6.79594">
        <ele>481.28</ele>
        <time>2013-11-11T10:43:14Z</time>
      </trkpt>
      <trkpt lat="47.43702" lon="6.79587">
        <ele>479.84</ele>
        <time>2013-11-11T10:43:21Z</time>
      </trkpt>
      <trkpt lat="47.43707" lon="6.79586">
        <ele>479.35</ele>
        <time>2013-11-11T10:43:22Z</time>
      </trkpt>
      <trkpt lat="47.43716" lon="6.79583">
        <ele>478.87</ele>
        <time>2013-11-11T10:43:24Z</time>
      </trkpt>
      <trkpt lat="47.43787" lon="6.79569">
        <ele>472.14</ele>
        <time>2013-11-11T10:43:36Z</time>
      </trkpt>
      <trkpt lat="47.43792" lon="6.79568">
        <ele>471.66</ele>
        <time>2013-11-11T10:43:37Z</time>
      </trkpt>
      <trkpt lat="47.43805" lon="6.79564">
        <ele>470.7</ele>
        <time>2013-11-11T10:43:41Z</time>
      </trkpt>
      <trkpt lat="47.43806" lon="6.79561">
        <ele>470.22</ele>
        <time>2013-11-11T10:43:42Z</time>
      </trkpt>
      <trkpt lat="47.43806" lon="6.79558">
        <ele>470.22</ele>
        <time>2013-11-11T10:43:43Z</time>
      </trkpt>
      <trkpt lat="47.43805" lon="6.79555">
        <ele>470.22</ele>
        <time>2013-11-11T10:43:44Z</time>
      </trkpt>
      <trkpt lat="47.43805" lon="6.79552">
        <ele>469.74</ele>
        <time>2013-11-11T10:43:45Z</time>
      </trkpt>
      <trkpt lat="47.43804" lon="6.79548">
        <ele>469.74</ele>
        <time>2013-11-11T10:43:46Z</time>
      </trkpt>
      <trkpt lat="47.43804" lon="6.79545">
        <ele>469.74</ele>
        <time>2013-11-11T10:43:47Z</time>
      </trkpt>
      <trkpt lat="47.43803" lon="6.79541">
        <ele>469.74</ele>
        <time>2013-11-11T10:43:48Z</time>
      </trkpt>
      <trkpt lat="47.43803" lon="6.79538">
        <ele>469.26</ele>
        <time>2013-11-11T10:43:49Z</time>
      </trkpt>
      <trkpt lat="47.43802" lon="6.79535">
        <ele>469.26</ele>
        <time>2013-11-11T10:43:50Z</time>
      </trkpt>
      <trkpt lat="47.43801" lon="6.79532">
        <ele>469.26</ele>
        <time>2013-11-11T10:43:51Z</time>
      </trkpt>
      <trkpt lat="47.43801" lon="6.79529">
        <ele>468.78</ele>
        <time>2013-11-11T10:43:52Z</time>
      </trkpt>
      <trkpt lat="47.43798" lon="6.7951">
        <ele>466.38</ele>
        <time>2013-11-11T10:43:58Z</time>
      </trkpt>
      <trkpt lat="47.43798" lon="6.79507">
        <ele>465.9</ele>
        <time>2013-11-11T10:43:59Z</time>
      </trkpt>
      <trkpt lat="47.43798" lon="6.79505">
        <ele>465.42</ele>
        <time>2013-11-11T10:44:00Z</time>
      </trkpt>
      <trkpt lat="47.43797" lon="6.79502">
        <ele>465.42</ele>
        <time>2013-11-11T10:44:01Z</time>
      </trkpt>
      <trkpt lat="47.43797" lon="6.79499">
        <ele>465.42</ele>
        <time>2013-11-11T10:44:02Z</time>
      </trkpt>
      <trkpt lat="47.43797" lon="6.79497">
        <ele>465.42</ele>
        <time>2013-11-11T10:44:03Z</time>
      </trkpt>
      <trkpt lat="47.43796" lon="6.79494">
        <ele>465.42</ele>
        <time>2013-11-11T10:44:04Z</time>
      </trkpt>
      <trkpt lat="47.43795" lon="6.79491">
        <ele>465.9</ele>
        <time>2013-11-11T10:44:05Z</time>
      </trkpt>
      <trkpt lat="47.43787" lon="6.79447">
        <ele>469.26</ele>
        <time>2013-11-11T10:44:18Z</time>
      </trkpt>
      <trkpt lat="47.43785" lon="6.79434">
        <ele>469.26</ele>
        <time>2013-11-11T10:44:23Z</time>
      </trkpt>
      <trkpt lat="47.43788" lon="6.79425">
        <ele>470.7</ele>
        <time>2013-11-11T10:44:35Z</time>
      </trkpt>
      <trkpt lat="47.43788" lon="6.79422">
        <ele>472.63</ele>
        <time>2013-11-11T10:45:10Z</time>
      </trkpt>
      <trkpt lat="47.43787" lon="6.7942">
        <ele>474.07</ele>
        <time>2013-11-11T10:45:47Z</time>
      </trkpt>
      <trkpt lat="47.43786" lon="6.79418">
        <ele>474.07</ele>
        <time>2013-11-11T10:46:18Z</time>
      </trkpt>
      <trkpt lat="47.43785" lon="6.79419">
        <ele>474.07</ele>
        <time>2013-11-11T10:46:25Z</time>
      </trkpt>
      <trkpt lat="47.43788" lon="6.79419">
        <ele>473.59</ele>
        <time>2013-11-11T10:46:27Z</time>
      </trkpt>
      <trkpt lat="47.43797" lon="6.79417">
        <ele>474.55</ele>
        <time>2013-11-11T10:46:34Z</time>
      </trkpt>
      <trkpt lat="47.43807" lon="6.79414">
        <ele>474.07</ele>
        <time>2013-11-11T10:46:39Z</time>
      </trkpt>
      <trkpt lat="47.43814" lon="6.79417">
        <ele>473.59</ele>
        <time>2013-11-11T10:46:42Z</time>
      </trkpt>
      <trkpt lat="47.43824" lon="6.79416">
        <ele>473.11</ele>
        <time>2013-11-11T10:46:46Z</time>
      </trkpt>
      <trkpt lat="47.43829" lon="6.79415">
        <ele>473.11</ele>
        <time>2013-11-11T10:46:48Z</time>
      </trkpt>
      <trkpt lat="47.43842" lon="6.79418">
        <ele>472.63</ele>
        <time>2013-11-11T10:46:54Z</time>
      </trkpt>
      <trkpt lat="47.43867" lon="6.79434">
        <ele>472.63</ele>
        <time>2013-11-11T10:47:04Z</time>
      </trkpt>
      <trkpt lat="47.43875" lon="6.79444">
        <ele>471.66</ele>
        <time>2013-11-11T10:47:09Z</time>
      </trkpt>
      <trkpt lat="47.43883" lon="6.79449">
        <ele>471.66</ele>
        <time>2013-11-11T10:47:12Z</time>
      </trkpt>
      <trkpt lat="47.43901" lon="6.79449">
        <ele>472.14</ele>
        <time>2013-11-11T10:47:18Z</time>
      </trkpt>
      <trkpt lat="47.43937" lon="6.7947">
        <ele>471.66</ele>
        <time>2013-11-11T10:47:30Z</time>
      </trkpt>
      <trkpt lat="47.43979" lon="6.79459">
        <ele>473.11</ele>
        <time>2013-11-11T10:47:41Z</time>
      </trkpt>
      <trkpt lat="47.43997" lon="6.79461">
        <ele>472.63</ele>
        <time>2013-11-11T10:47:45Z</time>
      </trkpt>
      <trkpt lat="47.44031" lon="6.79451">
        <ele>472.63</ele>
        <time>2013-11-11T10:47:54Z</time>
      </trkpt>
      <trkpt lat="47.44041" lon="6.79449">
        <ele>472.14</ele>
        <time>2013-11-11T10:47:57Z</time>
      </trkpt>
      <trkpt lat="47.44051" lon="6.79442">
        <ele>471.66</ele>
        <time>2013-11-11T10:48:03Z</time>
      </trkpt>
      <trkpt lat="47.4408" lon="6.79428">
        <ele>470.7</ele>
        <time>2013-11-11T10:48:14Z</time>
      </trkpt>
      <trkpt lat="47.44093" lon="6.79425">
        <ele>468.3</ele>
        <time>2013-11-11T10:48:19Z</time>
      </trkpt>
      <trkpt lat="47.44123" lon="6.79415">
        <ele>464.93</ele>
        <time>2013-11-11T10:48:29Z</time>
      </trkpt>
      <trkpt lat="47.44136" lon="6.79413">
        <ele>464.45</ele>
        <time>2013-11-11T10:48:33Z</time>
      </trkpt>
      <trkpt lat="47.44172" lon="6.79406">
        <ele>461.09</ele>
        <time>2013-11-11T10:48:44Z</time>
      </trkpt>
      <trkpt lat="47.44201" lon="6.79398">
        <ele>456.28</ele>
        <time>2013-11-11T10:48:54Z</time>
      </trkpt>
      <trkpt lat="47.44226" lon="6.79404">
        <ele>447.63</ele>
        <time>2013-11-11T10:49:04Z</time>
      </trkpt>
      <trkpt lat="47.44246" lon="6.79401">
        <ele>443.79</ele>
        <time>2013-11-11T10:49:12Z</time>
      </trkpt>
      <trkpt lat="47.44255" lon="6.79409">
        <ele>441.86</ele>
        <time>2013-11-11T10:49:16Z</time>
      </trkpt>
      <trkpt lat="47.4426" lon="6.79413">
        <ele>440.9</ele>
        <time>2013-11-11T10:49:18Z</time>
      </trkpt>
      <trkpt lat="47.44269" lon="6.79414">
        <ele>439.46</ele>
        <time>2013-11-11T10:49:23Z</time>
      </trkpt>
      <trkpt lat="47.44299" lon="6.7941">
        <ele>434.65</ele>
        <time>2013-11-11T10:49:34Z</time>
      </trkpt>
      <trkpt lat="47.44304" lon="6.79409">
        <ele>433.69</ele>
        <time>2013-11-11T10:49:36Z</time>
      </trkpt>
      <trkpt lat="47.44311" lon="6.79411">
        <ele>431.77</ele>
        <time>2013-11-11T10:49:39Z</time>
      </trkpt>
      <trkpt lat="47.44332" lon="6.7939">
        <ele>428.4</ele>
        <time>2013-11-11T10:49:49Z</time>
      </trkpt>
      <trkpt lat="47.44344" lon="6.79391">
        <ele>427.44</ele>
        <time>2013-11-11T10:49:53Z</time>
      </trkpt>
      <trkpt lat="47.4437" lon="6.79414">
        <ele>422.64</ele>
        <time>2013-11-11T10:50:02Z</time>
      </trkpt>
      <trkpt lat="47.44377" lon="6.7943">
        <ele>420.23</ele>
        <time>2013-11-11T10:50:06Z</time>
      </trkpt>
      <trkpt lat="47.44383" lon="6.79475">
        <ele>412.54</ele>
        <time>2013-11-11T10:50:15Z</time>
      </trkpt>
      <trkpt lat="47.44391" lon="6.79489">
        <ele>408.22</ele>
        <time>2013-11-11T10:50:27Z</time>
      </trkpt>
      <trkpt lat="47.44396" lon="6.79495">
        <ele>405.81</ele>
        <time>2013-11-11T10:50:41Z</time>
      </trkpt>
      <trkpt lat="47.44399" lon="6.795">
        <ele>403.89</ele>
        <time>2013-11-11T10:51:06Z</time>
      </trkpt>
      <trkpt lat="47.44396" lon="6.79502">
        <ele>405.33</ele>
        <time>2013-11-11T10:51:21Z</time>
      </trkpt>
      <trkpt lat="47.44397" lon="6.79507">
        <ele>406.29</ele>
        <time>2013-11-11T10:51:42Z</time>
      </trkpt>
      <trkpt lat="47.44392" lon="6.79508">
        <ele>407.74</ele>
        <time>2013-11-11T10:52:00Z</time>
      </trkpt>
      <trkpt lat="47.44386" lon="6.79516">
        <ele>410.62</ele>
        <time>2013-11-11T10:52:12Z</time>
      </trkpt>
      <trkpt lat="47.44383" lon="6.79522">
        <ele>411.1</ele>
        <time>2013-11-11T10:52:28Z</time>
      </trkpt>
      <trkpt lat="47.44382" lon="6.79524">
        <ele>410.62</ele>
        <time>2013-11-11T10:52:31Z</time>
      </trkpt>
      <trkpt lat="47.44379" lon="6.79536">
        <ele>412.06</ele>
        <time>2013-11-11T10:52:38Z</time>
      </trkpt>
      <trkpt lat="47.4437" lon="6.79555">
        <ele>414.47</ele>
        <time>2013-11-11T10:52:51Z</time>
      </trkpt>
      <trkpt lat="47.4437" lon="6.79558">
        <ele>414.95</ele>
        <time>2013-11-11T10:52:54Z</time>
      </trkpt>
      <trkpt lat="47.44366" lon="6.79574">
        <ele>414.95</ele>
        <time>2013-11-11T10:53:07Z</time>
      </trkpt>
      <trkpt lat="47.44363" lon="6.79583">
        <ele>413.02</ele>
        <time>2013-11-11T10:53:29Z</time>
      </trkpt>
      <trkpt lat="47.44363" lon="6.79585">
        <ele>413.5</ele>
        <time>2013-11-11T10:53:35Z</time>
      </trkpt>
      <trkpt lat="47.44373" lon="6.79614">
        <ele>408.22</ele>
        <time>2013-11-11T10:53:49Z</time>
      </trkpt>
      <trkpt lat="47.44386" lon="6.79652">
        <ele>398.6</ele>
        <time>2013-11-11T10:54:03Z</time>
      </trkpt>
      <trkpt lat="47.44398" lon="6.79694">
        <ele>393.32</ele>
        <time>2013-11-11T10:54:12Z</time>
      </trkpt>
      <trkpt lat="47.44401" lon="6.79746">
        <ele>391.39</ele>
        <time>2013-11-11T10:54:23Z</time>
      </trkpt>
      <trkpt lat="47.44399" lon="6.79802">
        <ele>392.84</ele>
        <time>2013-11-11T10:54:35Z</time>
      </trkpt>
      <trkpt lat="47.44399" lon="6.79809">
        <ele>392.84</ele>
        <time>2013-11-11T10:54:36Z</time>
      </trkpt>
      <trkpt lat="47.44397" lon="6.79815">
        <ele>392.84</ele>
        <time>2013-11-11T10:54:37Z</time>
      </trkpt>
      <trkpt lat="47.44396" lon="6.79822">
        <ele>392.84</ele>
        <time>2013-11-11T10:54:38Z</time>
      </trkpt>
      <trkpt lat="47.44396" lon="6.79828">
        <ele>392.84</ele>
        <time>2013-11-11T10:54:39Z</time>
      </trkpt>
      <trkpt lat="47.44394" lon="6.79834">
        <ele>392.36</ele>
        <time>2013-11-11T10:54:40Z</time>
      </trkpt>
      <trkpt lat="47.44393" lon="6.79839">
        <ele>391.87</ele>
        <time>2013-11-11T10:54:41Z</time>
      </trkpt>
      <trkpt lat="47.44393" lon="6.79843">
        <ele>391.87</ele>
        <time>2013-11-11T10:54:42Z</time>
      </trkpt>
      <trkpt lat="47.44393" lon="6.79846">
        <ele>391.87</ele>
        <time>2013-11-11T10:54:43Z</time>
      </trkpt>
      <trkpt lat="47.44394" lon="6.79849">
        <ele>391.87</ele>
        <time>2013-11-11T10:54:44Z</time>
      </trkpt>
      <trkpt lat="47.44395" lon="6.79852">
        <ele>391.87</ele>
        <time>2013-11-11T10:54:45Z</time>
      </trkpt>
      <trkpt lat="47.44396" lon="6.79856">
        <ele>391.87</ele>
        <time>2013-11-11T10:54:46Z</time>
      </trkpt>
      <trkpt lat="47.44398" lon="6.79859">
        <ele>391.87</ele>
        <time>2013-11-11T10:54:47Z</time>
      </trkpt>
      <trkpt lat="47.444" lon="6.79862">
        <ele>391.87</ele>
        <time>2013-11-11T10:54:48Z</time>
      </trkpt>
      <trkpt lat="47.44403" lon="6.79866">
        <ele>391.39</ele>
        <time>2013-11-11T10:54:49Z</time>
      </trkpt>
      <trkpt lat="47.44406" lon="6.79869">
        <ele>390.91</ele>
        <time>2013-11-11T10:54:50Z</time>
      </trkpt>
      <trkpt lat="47.44454" lon="6.79896">
        <ele>379.38</ele>
        <time>2013-11-11T10:55:02Z</time>
      </trkpt>
      <trkpt lat="47.44476" lon="6.79905">
        <ele>376.97</ele>
        <time>2013-11-11T10:55:07Z</time>
      </trkpt>
      <trkpt lat="47.44498" lon="6.79913">
        <ele>374.09</ele>
        <time>2013-11-11T10:55:12Z</time>
      </trkpt>
      <trkpt lat="47.44503" lon="6.79914">
        <ele>373.61</ele>
        <time>2013-11-11T10:55:13Z</time>
      </trkpt>
      <trkpt lat="47.44514" lon="6.79915">
        <ele>372.17</ele>
        <time>2013-11-11T10:55:15Z</time>
      </trkpt>
      <trkpt lat="47.44519" lon="6.79916">
        <ele>371.69</ele>
        <time>2013-11-11T10:55:16Z</time>
      </trkpt>
      <trkpt lat="47.44525" lon="6.79916">
        <ele>371.21</ele>
        <time>2013-11-11T10:55:17Z</time>
      </trkpt>
      <trkpt lat="47.44605" lon="6.79942">
        <ele>367.36</ele>
        <time>2013-11-11T10:55:32Z</time>
      </trkpt>
      <trkpt lat="47.44618" lon="6.79947">
        <ele>367.36</ele>
        <time>2013-11-11T10:55:35Z</time>
      </trkpt>
      <trkpt lat="47.44621" lon="6.79948">
        <ele>366.88</ele>
        <time>2013-11-11T10:55:36Z</time>
      </trkpt>
      <trkpt lat="47.44625" lon="6.79949">
        <ele>366.88</ele>
        <time>2013-11-11T10:55:37Z</time>
      </trkpt>
      <trkpt lat="47.44631" lon="6.79952">
        <ele>366.88</ele>
        <time>2013-11-11T10:55:39Z</time>
      </trkpt>
      <trkpt lat="47.44634" lon="6.79954">
        <ele>366.88</ele>
        <time>2013-11-11T10:55:40Z</time>
      </trkpt>
      <trkpt lat="47.44636" lon="6.79955">
        <ele>366.88</ele>
        <time>2013-11-11T10:55:41Z</time>
      </trkpt>
      <trkpt lat="47.44639" lon="6.79956">
        <ele>366.88</ele>
        <time>2013-11-11T10:55:42Z</time>
      </trkpt>
      <trkpt lat="47.4464" lon="6.79959">
        <ele>366.88</ele>
        <time>2013-11-11T10:55:44Z</time>
      </trkpt>
      <trkpt lat="47.44639" lon="6.79961">
        <ele>366.88</ele>
        <time>2013-11-11T10:55:46Z</time>
      </trkpt>
      <trkpt lat="47.44637" lon="6.79962">
        <ele>367.36</ele>
        <time>2013-11-11T10:55:47Z</time>
      </trkpt>
      <trkpt lat="47.44636" lon="6.79962">
        <ele>367.36</ele>
        <time>2013-11-11T10:55:48Z</time>
      </trkpt>
      <trkpt lat="47.44635" lon="6.79963">
        <ele>367.84</ele>
        <time>2013-11-11T10:55:49Z</time>
      </trkpt>
      <trkpt lat="47.44636" lon="6.79966">
        <ele>368.8</ele>
        <time>2013-11-11T10:56:02Z</time>
      </trkpt>
      <trkpt lat="47.44636" lon="6.79968">
        <ele>369.28</ele>
        <time>2013-11-11T10:56:24Z</time>
      </trkpt>
      <trkpt lat="47.44637" lon="6.79969">
        <ele>368.8</ele>
        <time>2013-11-11T10:56:25Z</time>
      </trkpt>
      <trkpt lat="47.44638" lon="6.79969">
        <ele>368.32</ele>
        <time>2013-11-11T10:56:26Z</time>
      </trkpt>
      <trkpt lat="47.44639" lon="6.79968">
        <ele>368.32</ele>
        <time>2013-11-11T10:56:27Z</time>
      </trkpt>
      <trkpt lat="47.44641" lon="6.79966">
        <ele>368.32</ele>
        <time>2013-11-11T10:56:28Z</time>
      </trkpt>
      <trkpt lat="47.44641" lon="6.79963">
        <ele>368.32</ele>
        <time>2013-11-11T10:56:29Z</time>
      </trkpt>
      <trkpt lat="47.44641" lon="6.7996">
        <ele>368.32</ele>
        <time>2013-11-11T10:56:30Z</time>
      </trkpt>
      <trkpt lat="47.44639" lon="6.79959">
        <ele>368.32</ele>
        <time>2013-11-11T10:56:31Z</time>
      </trkpt>
      <trkpt lat="47.44636" lon="6.79958">
        <ele>368.32</ele>
        <time>2013-11-11T10:56:32Z</time>
      </trkpt>
      <trkpt lat="47.44604" lon="6.79946">
        <ele>369.76</ele>
        <time>2013-11-11T10:56:44Z</time>
      </trkpt>
      <trkpt lat="47.44535" lon="6.7992">
        <ele>369.76</ele>
        <time>2013-11-11T10:57:04Z</time>
      </trkpt>
      <trkpt lat="47.445" lon="6.79913">
        <ele>371.21</ele>
        <time>2013-11-11T10:57:17Z</time>
      </trkpt>
      <trkpt lat="47.44472" lon="6.79903">
        <ele>374.09</ele>
        <time>2013-11-11T10:57:32Z</time>
      </trkpt>
      <trkpt lat="47.44442" lon="6.7989">
        <ele>376.01</ele>
        <time>2013-11-11T10:57:49Z</time>
      </trkpt>
      <trkpt lat="47.4441" lon="6.79877">
        <ele>377.94</ele>
        <time>2013-11-11T10:58:05Z</time>
      </trkpt>
      <trkpt lat="47.44394" lon="6.79869">
        <ele>378.9</ele>
        <time>2013-11-11T10:58:14Z</time>
      </trkpt>
      <trkpt lat="47.44393" lon="6.79868">
        <ele>379.38</ele>
        <time>2013-11-11T10:58:15Z</time>
      </trkpt>
      <trkpt lat="47.44392" lon="6.79867">
        <ele>379.38</ele>
        <time>2013-11-11T10:58:16Z</time>
      </trkpt>
      <trkpt lat="47.4439" lon="6.79865">
        <ele>379.86</ele>
        <time>2013-11-11T10:58:17Z</time>
      </trkpt>
      <trkpt lat="47.4439" lon="6.79863">
        <ele>380.34</ele>
        <time>2013-11-11T10:58:18Z</time>
      </trkpt>
      <trkpt lat="47.44389" lon="6.79851">
        <ele>382.26</ele>
        <time>2013-11-11T10:58:24Z</time>
      </trkpt>
      <trkpt lat="47.44391" lon="6.79843">
        <ele>384.18</ele>
        <time>2013-11-11T10:58:29Z</time>
      </trkpt>
      <trkpt lat="47.44391" lon="6.79841">
        <ele>384.66</ele>
        <time>2013-11-11T10:58:30Z</time>
      </trkpt>
      <trkpt lat="47.44394" lon="6.79833">
        <ele>386.59</ele>
        <time>2013-11-11T10:58:34Z</time>
      </trkpt>
      <trkpt lat="47.44394" lon="6.7983">
        <ele>386.59</ele>
        <time>2013-11-11T10:58:35Z</time>
      </trkpt>
      <trkpt lat="47.44395" lon="6.79827">
        <ele>387.07</ele>
        <time>2013-11-11T10:58:36Z</time>
      </trkpt>
      <trkpt lat="47.44395" lon="6.79825">
        <ele>387.55</ele>
        <time>2013-11-11T10:58:37Z</time>
      </trkpt>
      <trkpt lat="47.44396" lon="6.79823">
        <ele>388.03</ele>
        <time>2013-11-11T10:58:38Z</time>
      </trkpt>
      <trkpt lat="47.44396" lon="6.79819">
        <ele>388.51</ele>
        <time>2013-11-11T10:58:51Z</time>
      </trkpt>
      <trkpt lat="47.44395" lon="6.79817">
        <ele>390.91</ele>
        <time>2013-11-11T10:59:17Z</time>
      </trkpt>
      <trkpt lat="47.44395" lon="6.7982">
        <ele>390.43</ele>
        <time>2013-11-11T10:59:23Z</time>
      </trkpt>
      <trkpt lat="47.44395" lon="6.79822">
        <ele>390.43</ele>
        <time>2013-11-11T10:59:24Z</time>
      </trkpt>
      <trkpt lat="47.44395" lon="6.79824">
        <ele>390.91</ele>
        <time>2013-11-11T10:59:25Z</time>
      </trkpt>
      <trkpt lat="47.44386" lon="6.79861">
        <ele>389.47</ele>
        <time>2013-11-11T10:59:34Z</time>
      </trkpt>
      <trkpt lat="47.44378" lon="6.79886">
        <ele>392.36</ele>
        <time>2013-11-11T10:59:43Z</time>
      </trkpt>
      <trkpt lat="47.44368" lon="6.79917">
        <ele>396.68</ele>
        <time>2013-11-11T10:59:52Z</time>
      </trkpt>
      <trkpt lat="47.44358" lon="6.79947">
        <ele>400.53</ele>
        <time>2013-11-11T11:00:02Z</time>
      </trkpt>
      <trkpt lat="47.4435" lon="6.79994">
        <ele>407.26</ele>
        <time>2013-11-11T11:00:16Z</time>
      </trkpt>
      <trkpt lat="47.44342" lon="6.80045">
        <ele>411.1</ele>
        <time>2013-11-11T11:00:28Z</time>
      </trkpt>
      <trkpt lat="47.44338" lon="6.80074">
        <ele>413.5</ele>
        <time>2013-11-11T11:00:35Z</time>
      </trkpt>
      <trkpt lat="47.44335" lon="6.80093">
        <ele>413.98</ele>
        <time>2013-11-11T11:00:41Z</time>
      </trkpt>
      <trkpt lat="47.44329" lon="6.80113">
        <ele>412.54</ele>
        <time>2013-11-11T11:00:48Z</time>
      </trkpt>
      <trkpt lat="47.44316" lon="6.80135">
        <ele>410.62</ele>
        <time>2013-11-11T11:00:55Z</time>
      </trkpt>
      <trkpt lat="47.44304" lon="6.80153">
        <ele>409.18</ele>
        <time>2013-11-11T11:01:02Z</time>
      </trkpt>
      <trkpt lat="47.44293" lon="6.80183">
        <ele>407.74</ele>
        <time>2013-11-11T11:01:13Z</time>
      </trkpt>
      <trkpt lat="47.4429" lon="6.80193">
        <ele>407.26</ele>
        <time>2013-11-11T11:01:17Z</time>
      </trkpt>
      <trkpt lat="47.44281" lon="6.80226">
        <ele>405.81</ele>
        <time>2013-11-11T11:01:27Z</time>
      </trkpt>
      <trkpt lat="47.44272" lon="6.80253">
        <ele>404.37</ele>
        <time>2013-11-11T11:01:39Z</time>
      </trkpt>
      <trkpt lat="47.44272" lon="6.80257">
        <ele>404.85</ele>
        <time>2013-11-11T11:01:40Z</time>
      </trkpt>
      <trkpt lat="47.44278" lon="6.80276">
        <ele>403.89</ele>
        <time>2013-11-11T11:01:47Z</time>
      </trkpt>
      <trkpt lat="47.44278" lon="6.80301">
        <ele>393.8</ele>
        <time>2013-11-11T11:01:56Z</time>
      </trkpt>
      <trkpt lat="47.44277" lon="6.80306">
        <ele>391.87</ele>
        <time>2013-11-11T11:01:58Z</time>
      </trkpt>
      <trkpt lat="47.44259" lon="6.80308">
        <ele>385.63</ele>
        <time>2013-11-11T11:02:09Z</time>
      </trkpt>
      <trkpt lat="47.4424" lon="6.803">
        <ele>384.18</ele>
        <time>2013-11-11T11:02:21Z</time>
      </trkpt>
      <trkpt lat="47.44213" lon="6.80286">
        <ele>384.66</ele>
        <time>2013-11-11T11:02:37Z</time>
      </trkpt>
      <trkpt lat="47.44206" lon="6.80281">
        <ele>385.15</ele>
        <time>2013-11-11T11:02:44Z</time>
      </trkpt>
      <trkpt lat="47.44194" lon="6.80275">
        <ele>386.11</ele>
        <time>2013-11-11T11:02:53Z</time>
      </trkpt>
      <trkpt lat="47.44181" lon="6.80266">
        <ele>387.55</ele>
        <time>2013-11-11T11:03:00Z</time>
      </trkpt>
      <trkpt lat="47.44179" lon="6.80265">
        <ele>387.55</ele>
        <time>2013-11-11T11:03:01Z</time>
      </trkpt>
      <trkpt lat="47.44176" lon="6.80263">
        <ele>388.03</ele>
        <time>2013-11-11T11:03:03Z</time>
      </trkpt>
      <trkpt lat="47.44175" lon="6.80263">
        <ele>388.03</ele>
        <time>2013-11-11T11:03:04Z</time>
      </trkpt>
      <trkpt lat="47.44173" lon="6.80262">
        <ele>388.51</ele>
        <time>2013-11-11T11:03:05Z</time>
      </trkpt>
      <trkpt lat="47.44172" lon="6.80261">
        <ele>388.51</ele>
        <time>2013-11-11T11:03:06Z</time>
      </trkpt>
      <trkpt lat="47.4417" lon="6.8026">
        <ele>388.99</ele>
        <time>2013-11-11T11:03:07Z</time>
      </trkpt>
      <trkpt lat="47.44168" lon="6.80259">
        <ele>388.99</ele>
        <time>2013-11-11T11:03:08Z</time>
      </trkpt>
      <trkpt lat="47.44166" lon="6.80258">
        <ele>389.47</ele>
        <time>2013-11-11T11:03:09Z</time>
      </trkpt>
      <trkpt lat="47.44164" lon="6.80257">
        <ele>389.47</ele>
        <time>2013-11-11T11:03:10Z</time>
      </trkpt>
      <trkpt lat="47.44143" lon="6.80243">
        <ele>391.87</ele>
        <time>2013-11-11T11:03:22Z</time>
      </trkpt>
      <trkpt lat="47.44123" lon="6.80229">
        <ele>394.76</ele>
        <time>2013-11-11T11:03:34Z</time>
      </trkpt>
      <trkpt lat="47.44121" lon="6.80228">
        <ele>395.24</ele>
        <time>2013-11-11T11:03:35Z</time>
      </trkpt>
      <trkpt lat="47.44113" lon="6.80223">
        <ele>396.68</ele>
        <time>2013-11-11T11:03:41Z</time>
      </trkpt>
      <trkpt lat="47.44112" lon="6.80225">
        <ele>397.16</ele>
        <time>2013-11-11T11:03:42Z</time>
      </trkpt>
      <trkpt lat="47.44111" lon="6.80233">
        <ele>401.97</ele>
        <time>2013-11-11T11:03:53Z</time>
      </trkpt>
      <trkpt lat="47.44114" lon="6.80234">
        <ele>403.89</ele>
        <time>2013-11-11T11:04:14Z</time>
      </trkpt>
      <trkpt lat="47.44113" lon="6.80238">
        <ele>403.89</ele>
        <time>2013-11-11T11:04:20Z</time>
      </trkpt>
      <trkpt lat="47.44113" lon="6.8024">
        <ele>404.37</ele>
        <time>2013-11-11T11:04:21Z</time>
      </trkpt>
      <trkpt lat="47.44112" lon="6.80243">
        <ele>404.37</ele>
        <time>2013-11-11T11:04:22Z</time>
      </trkpt>
      <trkpt lat="47.44112" lon="6.80245">
        <ele>404.37</ele>
        <time>2013-11-11T11:04:23Z</time>
      </trkpt>
      <trkpt lat="47.44111" lon="6.80246">
        <ele>404.37</ele>
        <time>2013-11-11T11:04:24Z</time>
      </trkpt>
      <trkpt lat="47.4411" lon="6.80249">
        <ele>404.37</ele>
        <time>2013-11-11T11:04:25Z</time>
      </trkpt>
      <trkpt lat="47.4411" lon="6.80251">
        <ele>403.89</ele>
        <time>2013-11-11T11:04:26Z</time>
      </trkpt>
      <trkpt lat="47.44109" lon="6.80254">
        <ele>403.89</ele>
        <time>2013-11-11T11:04:27Z</time>
      </trkpt>
      <trkpt lat="47.44108" lon="6.80257">
        <ele>403.41</ele>
        <time>2013-11-11T11:04:28Z</time>
      </trkpt>
      <trkpt lat="47.44106" lon="6.80261">
        <ele>403.41</ele>
        <time>2013-11-11T11:04:29Z</time>
      </trkpt>
      <trkpt lat="47.44105" lon="6.80265">
        <ele>402.93</ele>
        <time>2013-11-11T11:04:30Z</time>
      </trkpt>
      <trkpt lat="47.44088" lon="6.80317">
        <ele>403.89</ele>
        <time>2013-11-11T11:04:43Z</time>
      </trkpt>
      <trkpt lat="47.44071" lon="6.80355">
        <ele>403.89</ele>
        <time>2013-11-11T11:04:53Z</time>
      </trkpt>
      <trkpt lat="47.44053" lon="6.80389">
        <ele>403.89</ele>
        <time>2013-11-11T11:05:03Z</time>
      </trkpt>
      <trkpt lat="47.44037" lon="6.80418">
        <ele>402.45</ele>
        <time>2013-11-11T11:05:14Z</time>
      </trkpt>
      <trkpt lat="47.44021" lon="6.80443">
        <ele>401.01</ele>
        <time>2013-11-11T11:05:26Z</time>
      </trkpt>
      <trkpt lat="47.43992" lon="6.80464">
        <ele>399.08</ele>
        <time>2013-11-11T11:05:39Z</time>
      </trkpt>
      <trkpt lat="47.43984" lon="6.80468">
        <ele>396.68</ele>
        <time>2013-11-11T11:05:50Z</time>
      </trkpt>
      <trkpt lat="47.43984" lon="6.8047">
        <ele>396.2</ele>
        <time>2013-11-11T11:05:52Z</time>
      </trkpt>
      <trkpt lat="47.43983" lon="6.80473">
        <ele>395.72</ele>
        <time>2013-11-11T11:05:54Z</time>
      </trkpt>
      <trkpt lat="47.43972" lon="6.80484">
        <ele>394.76</ele>
        <time>2013-11-11T11:06:03Z</time>
      </trkpt>
      <trkpt lat="47.43961" lon="6.80518">
        <ele>395.24</ele>
        <time>2013-11-11T11:06:12Z</time>
      </trkpt>
      <trkpt lat="47.43963" lon="6.80527">
        <ele>396.2</ele>
        <time>2013-11-11T11:06:22Z</time>
      </trkpt>
      <trkpt lat="47.43969" lon="6.80535">
        <ele>399.08</ele>
        <time>2013-11-11T11:06:34Z</time>
      </trkpt>
      <trkpt lat="47.43971" lon="6.80539">
        <ele>399.57</ele>
        <time>2013-11-11T11:06:37Z</time>
      </trkpt>
      <trkpt lat="47.43988" lon="6.80567">
        <ele>401.49</ele>
        <time>2013-11-11T11:06:52Z</time>
      </trkpt>
      <trkpt lat="47.43989" lon="6.80569">
        <ele>401.97</ele>
        <time>2013-11-11T11:06:53Z</time>
      </trkpt>
      <trkpt lat="47.43989" lon="6.80579">
        <ele>401.01</ele>
        <time>2013-11-11T11:06:58Z</time>
      </trkpt>
      <trkpt lat="47.43985" lon="6.80608">
        <ele>401.49</ele>
        <time>2013-11-11T11:07:14Z</time>
      </trkpt>
      <trkpt lat="47.4398" lon="6.80637">
        <ele>406.77</ele>
        <time>2013-11-11T11:07:29Z</time>
      </trkpt>
      <trkpt lat="47.4398" lon="6.80651">
        <ele>407.26</ele>
        <time>2013-11-11T11:07:36Z</time>
      </trkpt>
      <trkpt lat="47.43983" lon="6.80664">
        <ele>404.85</ele>
        <time>2013-11-11T11:07:41Z</time>
      </trkpt>
      <trkpt lat="47.43979" lon="6.80672">
        <ele>399.08</ele>
        <time>2013-11-11T11:07:57Z</time>
      </trkpt>
      <trkpt lat="47.43979" lon="6.80673">
        <ele>399.08</ele>
        <time>2013-11-11T11:07:58Z</time>
      </trkpt>
      <trkpt lat="47.43979" lon="6.8068">
        <ele>397.64</ele>
        <time>2013-11-11T11:08:02Z</time>
      </trkpt>
      <trkpt lat="47.43969" lon="6.80706">
        <ele>397.64</ele>
        <time>2013-11-11T11:08:13Z</time>
      </trkpt>
      <trkpt lat="47.43957" lon="6.80739">
        <ele>397.16</ele>
        <time>2013-11-11T11:08:26Z</time>
      </trkpt>
      <trkpt lat="47.43946" lon="6.80766">
        <ele>397.16</ele>
        <time>2013-11-11T11:08:36Z</time>
      </trkpt>
      <trkpt lat="47.43935" lon="6.80797">
        <ele>398.6</ele>
        <time>2013-11-11T11:08:48Z</time>
      </trkpt>
      <trkpt lat="47.43935" lon="6.80799">
        <ele>398.6</ele>
        <time>2013-11-11T11:08:49Z</time>
      </trkpt>
      <trkpt lat="47.43926" lon="6.80818">
        <ele>399.08</ele>
        <time>2013-11-11T11:08:58Z</time>
      </trkpt>
      <trkpt lat="47.43921" lon="6.80833">
        <ele>399.08</ele>
        <time>2013-11-11T11:09:04Z</time>
      </trkpt>
      <trkpt lat="47.43911" lon="6.80874">
        <ele>402.93</ele>
        <time>2013-11-11T11:09:17Z</time>
      </trkpt>
      <trkpt lat="47.43894" lon="6.8091">
        <ele>407.26</ele>
        <time>2013-11-11T11:09:28Z</time>
      </trkpt>
      <trkpt lat="47.43881" lon="6.80938">
        <ele>409.66</ele>
        <time>2013-11-11T11:09:38Z</time>
      </trkpt>
      <trkpt lat="47.43872" lon="6.80954">
        <ele>410.14</ele>
        <time>2013-11-11T11:09:46Z</time>
      </trkpt>
      <trkpt lat="47.43862" lon="6.80973">
        <ele>408.7</ele>
        <time>2013-11-11T11:09:54Z</time>
      </trkpt>
      <trkpt lat="47.43845" lon="6.80989">
        <ele>407.74</ele>
        <time>2013-11-11T11:10:06Z</time>
      </trkpt>
      <trkpt lat="47.4384" lon="6.80992">
        <ele>407.26</ele>
        <time>2013-11-11T11:10:09Z</time>
      </trkpt>
      <trkpt lat="47.43821" lon="6.81021">
        <ele>409.18</ele>
        <time>2013-11-11T11:10:22Z</time>
      </trkpt>
      <trkpt lat="47.43815" lon="6.81031">
        <ele>410.62</ele>
        <time>2013-11-11T11:10:26Z</time>
      </trkpt>
      <trkpt lat="47.43793" lon="6.81073">
        <ele>411.58</ele>
        <time>2013-11-11T11:10:37Z</time>
      </trkpt>
      <trkpt lat="47.4377" lon="6.81104">
        <ele>409.18</ele>
        <time>2013-11-11T11:10:46Z</time>
      </trkpt>
      <trkpt lat="47.43746" lon="6.8114">
        <ele>409.18</ele>
        <time>2013-11-11T11:10:58Z</time>
      </trkpt>
      <trkpt lat="47.43735" lon="6.81161">
        <ele>413.02</ele>
        <time>2013-11-11T11:11:06Z</time>
      </trkpt>
      <trkpt lat="47.43729" lon="6.81172">
        <ele>414.47</ele>
        <time>2013-11-11T11:11:10Z</time>
      </trkpt>
      <trkpt lat="47.43701" lon="6.81219">
        <ele>412.06</ele>
        <time>2013-11-11T11:11:22Z</time>
      </trkpt>
      <trkpt lat="47.43674" lon="6.8126">
        <ele>409.18</ele>
        <time>2013-11-11T11:11:33Z</time>
      </trkpt>
      <trkpt lat="47.43654" lon="6.81288">
        <ele>402.93</ele>
        <time>2013-11-11T11:11:43Z</time>
      </trkpt>
      <trkpt lat="47.43654" lon="6.81293">
        <ele>401.97</ele>
        <time>2013-11-11T11:11:46Z</time>
      </trkpt>
      <trkpt lat="47.43645" lon="6.81308">
        <ele>401.97</ele>
        <time>2013-11-11T11:11:56Z</time>
      </trkpt>
      <trkpt lat="47.43642" lon="6.81312">
        <ele>400.05</ele>
        <time>2013-11-11T11:12:07Z</time>
      </trkpt>
      <trkpt lat="47.43641" lon="6.81316">
        <ele>399.57</ele>
        <time>2013-11-11T11:12:22Z</time>
      </trkpt>
      <trkpt lat="47.43635" lon="6.81334">
        <ele>397.64</ele>
        <time>2013-11-11T11:12:34Z</time>
      </trkpt>
      <trkpt lat="47.43628" lon="6.81366">
        <ele>396.2</ele>
        <time>2013-11-11T11:12:44Z</time>
      </trkpt>
      <trkpt lat="47.43611" lon="6.81411">
        <ele>396.68</ele>
        <time>2013-11-11T11:12:55Z</time>
      </trkpt>
      <trkpt lat="47.43611" lon="6.81461">
        <ele>393.8</ele>
        <time>2013-11-11T11:13:05Z</time>
      </trkpt>
      <trkpt lat="47.43627" lon="6.81481">
        <ele>388.03</ele>
        <time>2013-11-11T11:13:14Z</time>
      </trkpt>
      <trkpt lat="47.43629" lon="6.81482">
        <ele>388.03</ele>
        <time>2013-11-11T11:13:15Z</time>
      </trkpt>
      <trkpt lat="47.43637" lon="6.81498">
        <ele>387.07</ele>
        <time>2013-11-11T11:13:22Z</time>
      </trkpt>
      <trkpt lat="47.43638" lon="6.81504">
        <ele>386.59</ele>
        <time>2013-11-11T11:13:24Z</time>
      </trkpt>
      <trkpt lat="47.43635" lon="6.81511">
        <ele>385.63</ele>
        <time>2013-11-11T11:13:27Z</time>
      </trkpt>
      <trkpt lat="47.43608" lon="6.81497">
        <ele>381.3</ele>
        <time>2013-11-11T11:13:36Z</time>
      </trkpt>
      <trkpt lat="47.4359" lon="6.81489">
        <ele>378.9</ele>
        <time>2013-11-11T11:13:41Z</time>
      </trkpt>
      <trkpt lat="47.43586" lon="6.81488">
        <ele>378.42</ele>
        <time>2013-11-11T11:13:42Z</time>
      </trkpt>
      <trkpt lat="47.43582" lon="6.81488">
        <ele>377.94</ele>
        <time>2013-11-11T11:13:43Z</time>
      </trkpt>
      <trkpt lat="47.43579" lon="6.8149">
        <ele>377.45</ele>
        <time>2013-11-11T11:13:44Z</time>
      </trkpt>
      <trkpt lat="47.43577" lon="6.81491">
        <ele>376.97</ele>
        <time>2013-11-11T11:13:45Z</time>
      </trkpt>
      <trkpt lat="47.43576" lon="6.81492">
        <ele>376.49</ele>
        <time>2013-11-11T11:13:46Z</time>
      </trkpt>
      <trkpt lat="47.43573" lon="6.81498">
        <ele>372.17</ele>
        <time>2013-11-11T11:14:01Z</time>
      </trkpt>
      <trkpt lat="47.43568" lon="6.81498">
        <ele>368.8</ele>
        <time>2013-11-11T11:14:27Z</time>
      </trkpt>
      <trkpt lat="47.4357" lon="6.81499">
        <ele>369.76</ele>
        <time>2013-11-11T11:14:52Z</time>
      </trkpt>
      <trkpt lat="47.43569" lon="6.81504">
        <ele>370.73</ele>
        <time>2013-11-11T11:14:57Z</time>
      </trkpt>
      <trkpt lat="47.43571" lon="6.81506">
        <ele>370.73</ele>
        <time>2013-11-11T11:14:58Z</time>
      </trkpt>
      <trkpt lat="47.43572" lon="6.81509">
        <ele>370.73</ele>
        <time>2013-11-11T11:14:59Z</time>
      </trkpt>
      <trkpt lat="47.43574" lon="6.81514">
        <ele>370.73</ele>
        <time>2013-11-11T11:15:00Z</time>
      </trkpt>
      <trkpt lat="47.43575" lon="6.8152">
        <ele>370.73</ele>
        <time>2013-11-11T11:15:01Z</time>
      </trkpt>
      <trkpt lat="47.43577" lon="6.81525">
        <ele>370.73</ele>
        <time>2013-11-11T11:15:02Z</time>
      </trkpt>
      <trkpt lat="47.43583" lon="6.81541">
        <ele>371.69</ele>
        <time>2013-11-11T11:15:06Z</time>
      </trkpt>
      <trkpt lat="47.43611" lon="6.81564">
        <ele>370.24</ele>
        <time>2013-11-11T11:15:16Z</time>
      </trkpt>
      <trkpt lat="47.43629" lon="6.81596">
        <ele>370.73</ele>
        <time>2013-11-11T11:15:25Z</time>
      </trkpt>
      <trkpt lat="47.43636" lon="6.81607">
        <ele>370.73</ele>
        <time>2013-11-11T11:15:34Z</time>
      </trkpt>
      <trkpt lat="47.43646" lon="6.81627">
        <ele>369.28</ele>
        <time>2013-11-11T11:15:45Z</time>
      </trkpt>
      <trkpt lat="47.43646" lon="6.8163">
        <ele>369.28</ele>
        <time>2013-11-11T11:15:46Z</time>
      </trkpt>
      <trkpt lat="47.43646" lon="6.81632">
        <ele>369.76</ele>
        <time>2013-11-11T11:15:47Z</time>
      </trkpt>
      <trkpt lat="47.43646" lon="6.81634">
        <ele>369.76</ele>
        <time>2013-11-11T11:15:48Z</time>
      </trkpt>
      <trkpt lat="47.43646" lon="6.81637">
        <ele>370.24</ele>
        <time>2013-11-11T11:15:49Z</time>
      </trkpt>
      <trkpt lat="47.43646" lon="6.8164">
        <ele>370.24</ele>
        <time>2013-11-11T11:15:50Z</time>
      </trkpt>
      <trkpt lat="47.43647" lon="6.81643">
        <ele>370.73</ele>
        <time>2013-11-11T11:15:51Z</time>
      </trkpt>
      <trkpt lat="47.43648" lon="6.81645">
        <ele>370.73</ele>
        <time>2013-11-11T11:15:52Z</time>
      </trkpt>
      <trkpt lat="47.43652" lon="6.81657">
        <ele>372.65</ele>
        <time>2013-11-11T11:15:59Z</time>
      </trkpt>
      <trkpt lat="47.43653" lon="6.81659">
        <ele>372.65</ele>
        <time>2013-11-11T11:16:00Z</time>
      </trkpt>
      <trkpt lat="47.43654" lon="6.81662">
        <ele>372.65</ele>
        <time>2013-11-11T11:16:01Z</time>
      </trkpt>
      <trkpt lat="47.43662" lon="6.81688">
        <ele>375.05</ele>
        <time>2013-11-11T11:16:10Z</time>
      </trkpt>
      <trkpt lat="47.43678" lon="6.81725">
        <ele>376.01</ele>
        <time>2013-11-11T11:16:21Z</time>
      </trkpt>
      <trkpt lat="47.43689" lon="6.81761">
        <ele>373.61</ele>
        <time>2013-11-11T11:16:31Z</time>
      </trkpt>
      <trkpt lat="47.43703" lon="6.81815">
        <ele>369.76</ele>
        <time>2013-11-11T11:16:43Z</time>
      </trkpt>
      <trkpt lat="47.43707" lon="6.81829">
        <ele>368.32</ele>
        <time>2013-11-11T11:16:47Z</time>
      </trkpt>
      <trkpt lat="47.43721" lon="6.8184">
        <ele>366.4</ele>
        <time>2013-11-11T11:16:54Z</time>
      </trkpt>
      <trkpt lat="47.43722" lon="6.81845">
        <ele>365.92</ele>
        <time>2013-11-11T11:16:55Z</time>
      </trkpt>
      <trkpt lat="47.43723" lon="6.81851">
        <ele>365.92</ele>
        <time>2013-11-11T11:16:56Z</time>
      </trkpt>
      <trkpt lat="47.43724" lon="6.81858">
        <ele>365.92</ele>
        <time>2013-11-11T11:16:57Z</time>
      </trkpt>
      <trkpt lat="47.43724" lon="6.81867">
        <ele>364.48</ele>
        <time>2013-11-11T11:16:58Z</time>
      </trkpt>
      <trkpt lat="47.43723" lon="6.81876">
        <ele>363.52</ele>
        <time>2013-11-11T11:16:59Z</time>
      </trkpt>
      <trkpt lat="47.43715" lon="6.81978">
        <ele>353.42</ele>
        <time>2013-11-11T11:17:12Z</time>
      </trkpt>
      <trkpt lat="47.43714" lon="6.81991">
        <ele>352.46</ele>
        <time>2013-11-11T11:17:14Z</time>
      </trkpt>
      <trkpt lat="47.43712" lon="6.82004">
        <ele>352.46</ele>
        <time>2013-11-11T11:17:16Z</time>
      </trkpt>
      <trkpt lat="47.43713" lon="6.82037">
        <ele>352.46</ele>
        <time>2013-11-11T11:17:22Z</time>
      </trkpt>
      <trkpt lat="47.43737" lon="6.82055">
        <ele>352.46</ele>
        <time>2013-11-11T11:17:29Z</time>
      </trkpt>
      <trkpt lat="47.43778" lon="6.82083">
        <ele>351.5</ele>
        <time>2013-11-11T11:17:41Z</time>
      </trkpt>
      <trkpt lat="47.438" lon="6.82101">
        <ele>351.5</ele>
        <time>2013-11-11T11:17:51Z</time>
      </trkpt>
      <trkpt lat="47.43843" lon="6.82118">
        <ele>349.58</ele>
        <time>2013-11-11T11:18:03Z</time>
      </trkpt>
      <trkpt lat="47.4386" lon="6.82128">
        <ele>349.58</ele>
        <time>2013-11-11T11:18:07Z</time>
      </trkpt>
      <trkpt lat="47.43869" lon="6.82136">
        <ele>349.58</ele>
        <time>2013-11-11T11:18:09Z</time>
      </trkpt>
      <trkpt lat="47.43873" lon="6.82141">
        <ele>349.58</ele>
        <time>2013-11-11T11:18:10Z</time>
      </trkpt>
      <trkpt lat="47.43877" lon="6.82146">
        <ele>349.58</ele>
        <time>2013-11-11T11:18:11Z</time>
      </trkpt>
      <trkpt lat="47.43885" lon="6.82156">
        <ele>349.58</ele>
        <time>2013-11-11T11:18:13Z</time>
      </trkpt>
      <trkpt lat="47.43888" lon="6.82161">
        <ele>349.1</ele>
        <time>2013-11-11T11:18:14Z</time>
      </trkpt>
      <trkpt lat="47.43929" lon="6.82204">
        <ele>345.73</ele>
        <time>2013-11-11T11:18:26Z</time>
      </trkpt>
      <trkpt lat="47.43933" lon="6.82206">
        <ele>345.73</ele>
        <time>2013-11-11T11:18:27Z</time>
      </trkpt>
      <trkpt lat="47.43937" lon="6.82208">
        <ele>345.73</ele>
        <time>2013-11-11T11:18:28Z</time>
      </trkpt>
      <trkpt lat="47.43941" lon="6.82209">
        <ele>345.25</ele>
        <time>2013-11-11T11:18:29Z</time>
      </trkpt>
      <trkpt lat="47.43946" lon="6.82209">
        <ele>345.25</ele>
        <time>2013-11-11T11:18:30Z</time>
      </trkpt>
      <trkpt lat="47.4395" lon="6.82209">
        <ele>344.77</ele>
        <time>2013-11-11T11:18:31Z</time>
      </trkpt>
      <trkpt lat="47.43958" lon="6.82212">
        <ele>344.77</ele>
        <time>2013-11-11T11:18:34Z</time>
      </trkpt>
      <trkpt lat="47.43959" lon="6.82215">
        <ele>345.25</ele>
        <time>2013-11-11T11:18:35Z</time>
      </trkpt>
      <trkpt lat="47.43959" lon="6.82219">
        <ele>345.25</ele>
        <time>2013-11-11T11:18:36Z</time>
      </trkpt>
      <trkpt lat="47.43959" lon="6.82222">
        <ele>345.25</ele>
        <time>2013-11-11T11:18:37Z</time>
      </trkpt>
      <trkpt lat="47.43958" lon="6.82224">
        <ele>345.73</ele>
        <time>2013-11-11T11:18:38Z</time>
      </trkpt>
      <trkpt lat="47.43957" lon="6.82226">
        <ele>345.73</ele>
        <time>2013-11-11T11:18:39Z</time>
      </trkpt>
      <trkpt lat="47.43957" lon="6.82228">
        <ele>345.73</ele>
        <time>2013-11-11T11:18:40Z</time>
      </trkpt>
      <trkpt lat="47.43958" lon="6.82228">
        <ele>346.21</ele>
        <time>2013-11-11T11:18:41Z</time>
      </trkpt>
      <trkpt lat="47.4396" lon="6.82227">
        <ele>345.73</ele>
        <time>2013-11-11T11:18:43Z</time>
      </trkpt>
      <trkpt lat="47.4396" lon="6.82224">
        <ele>345.73</ele>
        <time>2013-11-11T11:18:44Z</time>
      </trkpt>
      <trkpt lat="47.43961" lon="6.8222">
        <ele>345.25</ele>
        <time>2013-11-11T11:18:45Z</time>
      </trkpt>
      <trkpt lat="47.43962" lon="6.82215">
        <ele>345.25</ele>
        <time>2013-11-11T11:18:46Z</time>
      </trkpt>
      <trkpt lat="47.43966" lon="6.82211">
        <ele>344.77</ele>
        <time>2013-11-11T11:18:47Z</time>
      </trkpt>
      <trkpt lat="47.4397" lon="6.82208">
        <ele>344.77</ele>
        <time>2013-11-11T11:18:48Z</time>
      </trkpt>
      <trkpt lat="47.43974" lon="6.82206">
        <ele>344.29</ele>
        <time>2013-11-11T11:18:49Z</time>
      </trkpt>
      <trkpt lat="47.43979" lon="6.82204">
        <ele>344.29</ele>
        <time>2013-11-11T11:18:50Z</time>
      </trkpt>
      <trkpt lat="47.43983" lon="6.82202">
        <ele>343.81</ele>
        <time>2013-11-11T11:18:51Z</time>
      </trkpt>
      <trkpt lat="47.4403" lon="6.82193">
        <ele>342.37</ele>
        <time>2013-11-11T11:19:00Z</time>
      </trkpt>
      <trkpt lat="47.44035" lon="6.82194">
        <ele>342.37</ele>
        <time>2013-11-11T11:19:01Z</time>
      </trkpt>
      <trkpt lat="47.44056" lon="6.82197">
        <ele>341.41</ele>
        <time>2013-11-11T11:19:05Z</time>
      </trkpt>
      <trkpt lat="47.44129" lon="6.8222">
        <ele>340.92</ele>
        <time>2013-11-11T11:19:20Z</time>
      </trkpt>
      <trkpt lat="47.44133" lon="6.82223">
        <ele>340.92</ele>
        <time>2013-11-11T11:19:21Z</time>
      </trkpt>
      <trkpt lat="47.44135" lon="6.82227">
        <ele>341.41</ele>
        <time>2013-11-11T11:19:22Z</time>
      </trkpt>
      <trkpt lat="47.44136" lon="6.8223">
        <ele>341.41</ele>
        <time>2013-11-11T11:19:23Z</time>
      </trkpt>
      <trkpt lat="47.44138" lon="6.82234">
        <ele>341.41</ele>
        <time>2013-11-11T11:19:24Z</time>
      </trkpt>
      <trkpt lat="47.44139" lon="6.82238">
        <ele>341.41</ele>
        <time>2013-11-11T11:19:25Z</time>
      </trkpt>
      <trkpt lat="47.44139" lon="6.82243">
        <ele>341.89</ele>
        <time>2013-11-11T11:19:26Z</time>
      </trkpt>
      <trkpt lat="47.4414" lon="6.82247">
        <ele>341.89</ele>
        <time>2013-11-11T11:19:27Z</time>
      </trkpt>
      <trkpt lat="47.44145" lon="6.82284">
        <ele>343.81</ele>
        <time>2013-11-11T11:19:39Z</time>
      </trkpt>
      <trkpt lat="47.44147" lon="6.82297">
        <ele>344.29</ele>
        <time>2013-11-11T11:19:45Z</time>
      </trkpt>
      <trkpt lat="47.44147" lon="6.82299">
        <ele>344.29</ele>
        <time>2013-11-11T11:19:46Z</time>
      </trkpt>
      <trkpt lat="47.44148" lon="6.82301">
        <ele>344.29</ele>
        <time>2013-11-11T11:19:47Z</time>
      </trkpt>
      <trkpt lat="47.44148" lon="6.82303">
        <ele>344.77</ele>
        <time>2013-11-11T11:19:48Z</time>
      </trkpt>
      <trkpt lat="47.44149" lon="6.82306">
        <ele>344.77</ele>
        <time>2013-11-11T11:19:49Z</time>
      </trkpt>
      <trkpt lat="47.44149" lon="6.82308">
        <ele>344.77</ele>
        <time>2013-11-11T11:19:50Z</time>
      </trkpt>
      <trkpt lat="47.44155" lon="6.82342">
        <ele>347.65</ele>
        <time>2013-11-11T11:20:03Z</time>
      </trkpt>
      <trkpt lat="47.44151" lon="6.82347">
        <ele>348.13</ele>
        <time>2013-11-11T11:20:06Z</time>
      </trkpt>
      <trkpt lat="47.4415" lon="6.82347">
        <ele>348.13</ele>
        <time>2013-11-11T11:20:07Z</time>
      </trkpt>
      <trkpt lat="47.44148" lon="6.82345">
        <ele>348.62</ele>
        <time>2013-11-11T11:20:08Z</time>
      </trkpt>
      <trkpt lat="47.44147" lon="6.82343">
        <ele>349.1</ele>
        <time>2013-11-11T11:20:09Z</time>
      </trkpt>
      <trkpt lat="47.44146" lon="6.82341">
        <ele>349.58</ele>
        <time>2013-11-11T11:20:10Z</time>
      </trkpt>
      <trkpt lat="47.44135" lon="6.82314">
        <ele>350.54</ele>
        <time>2013-11-11T11:20:24Z</time>
      </trkpt>
      <trkpt lat="47.44134" lon="6.82313">
        <ele>351.02</ele>
        <time>2013-11-11T11:20:25Z</time>
      </trkpt>
      <trkpt lat="47.44132" lon="6.82313">
        <ele>351.02</ele>
        <time>2013-11-11T11:20:26Z</time>
      </trkpt>
      <trkpt lat="47.44128" lon="6.82313">
        <ele>351.5</ele>
        <time>2013-11-11T11:20:28Z</time>
      </trkpt>
      <trkpt lat="47.44127" lon="6.82315">
        <ele>351.98</ele>
        <time>2013-11-11T11:20:29Z</time>
      </trkpt>
      <trkpt lat="47.44126" lon="6.82317">
        <ele>352.46</ele>
        <time>2013-11-11T11:20:30Z</time>
      </trkpt>
      <trkpt lat="47.44126" lon="6.8232">
        <ele>352.94</ele>
        <time>2013-11-11T11:20:31Z</time>
      </trkpt>
      <trkpt lat="47.44126" lon="6.82322">
        <ele>352.94</ele>
        <time>2013-11-11T11:20:32Z</time>
      </trkpt>
      <trkpt lat="47.44126" lon="6.82325">
        <ele>353.42</ele>
        <time>2013-11-11T11:20:33Z</time>
      </trkpt>
      <trkpt lat="47.44126" lon="6.82327">
        <ele>353.42</ele>
        <time>2013-11-11T11:20:34Z</time>
      </trkpt>
      <trkpt lat="47.44127" lon="6.8233">
        <ele>353.42</ele>
        <time>2013-11-11T11:20:35Z</time>
      </trkpt>
      <trkpt lat="47.44127" lon="6.82332">
        <ele>353.42</ele>
        <time>2013-11-11T11:20:36Z</time>
      </trkpt>
      <trkpt lat="47.44129" lon="6.82358">
        <ele>354.86</ele>
        <time>2013-11-11T11:20:47Z</time>
      </trkpt>
      <trkpt lat="47.4413" lon="6.8236">
        <ele>354.86</ele>
        <time>2013-11-11T11:20:48Z</time>
      </trkpt>
      <trkpt lat="47.4413" lon="6.82362">
        <ele>354.86</ele>
        <time>2013-11-11T11:20:49Z</time>
      </trkpt>
      <trkpt lat="47.4413" lon="6.82364">
        <ele>355.34</ele>
        <time>2013-11-11T11:20:50Z</time>
      </trkpt>
      <trkpt lat="47.4413" lon="6.82366">
        <ele>355.34</ele>
        <time>2013-11-11T11:20:51Z</time>
      </trkpt>
      <trkpt lat="47.44132" lon="6.82388">
        <ele>356.79</ele>
        <time>2013-11-11T11:21:00Z</time>
      </trkpt>
      <trkpt lat="47.44132" lon="6.8239">
        <ele>356.31</ele>
        <time>2013-11-11T11:21:01Z</time>
      </trkpt>
      <trkpt lat="47.44132" lon="6.82393">
        <ele>356.79</ele>
        <time>2013-11-11T11:21:02Z</time>
      </trkpt>
      <trkpt lat="47.44133" lon="6.82396">
        <ele>356.31</ele>
        <time>2013-11-11T11:21:03Z</time>
      </trkpt>
      <trkpt lat="47.44133" lon="6.82399">
        <ele>356.31</ele>
        <time>2013-11-11T11:21:04Z</time>
      </trkpt>
      <trkpt lat="47.44133" lon="6.82401">
        <ele>356.79</ele>
        <time>2013-11-11T11:21:05Z</time>
      </trkpt>
      <trkpt lat="47.44136" lon="6.8243">
        <ele>358.23</ele>
        <time>2013-11-11T11:21:15Z</time>
      </trkpt>
      <trkpt lat="47.44136" lon="6.82433">
        <ele>358.71</ele>
        <time>2013-11-11T11:21:16Z</time>
      </trkpt>
      <trkpt lat="47.44143" lon="6.82481">
        <ele>361.59</ele>
        <time>2013-11-11T11:21:32Z</time>
      </trkpt>
      <trkpt lat="47.44146" lon="6.82523">
        <ele>363.52</ele>
        <time>2013-11-11T11:21:46Z</time>
      </trkpt>
      <trkpt lat="47.44145" lon="6.82539">
        <ele>364.48</ele>
        <time>2013-11-11T11:21:51Z</time>
      </trkpt>
      <trkpt lat="47.44133" lon="6.8258">
        <ele>365.92</ele>
        <time>2013-11-11T11:22:06Z</time>
      </trkpt>
      <trkpt lat="47.44134" lon="6.82641">
        <ele>367.36</ele>
        <time>2013-11-11T11:22:20Z</time>
      </trkpt>
      <trkpt lat="47.44133" lon="6.8274">
        <ele>369.76</ele>
        <time>2013-11-11T11:22:39Z</time>
      </trkpt>
      <trkpt lat="47.44102" lon="6.82804">
        <ele>372.17</ele>
        <time>2013-11-11T11:22:55Z</time>
      </trkpt>
      <trkpt lat="47.44066" lon="6.82866">
        <ele>373.61</ele>
        <time>2013-11-11T11:23:12Z</time>
      </trkpt>
      <trkpt lat="47.44059" lon="6.8289">
        <ele>372.17</ele>
        <time>2013-11-11T11:23:16Z</time>
      </trkpt>
      <trkpt lat="47.44048" lon="6.82927">
        <ele>371.21</ele>
        <time>2013-11-11T11:23:21Z</time>
      </trkpt>
      <trkpt lat="47.44045" lon="6.82934">
        <ele>371.21</ele>
        <time>2013-11-11T11:23:22Z</time>
      </trkpt>
      <trkpt lat="47.44042" lon="6.8294">
        <ele>371.69</ele>
        <time>2013-11-11T11:23:23Z</time>
      </trkpt>
      <trkpt lat="47.44018" lon="6.82987">
        <ele>372.17</ele>
        <time>2013-11-11T11:23:31Z</time>
      </trkpt>
      <trkpt lat="47.44016" lon="6.82992">
        <ele>372.17</ele>
        <time>2013-11-11T11:23:32Z</time>
      </trkpt>
      <trkpt lat="47.44013" lon="6.82998">
        <ele>372.17</ele>
        <time>2013-11-11T11:23:33Z</time>
      </trkpt>
      <trkpt lat="47.44008" lon="6.83016">
        <ele>372.65</ele>
        <time>2013-11-11T11:23:36Z</time>
      </trkpt>
      <trkpt lat="47.44006" lon="6.83022">
        <ele>372.65</ele>
        <time>2013-11-11T11:23:37Z</time>
      </trkpt>
      <trkpt lat="47.44" lon="6.83066">
        <ele>374.57</ele>
        <time>2013-11-11T11:23:44Z</time>
      </trkpt>
      <trkpt lat="47.43994" lon="6.83127">
        <ele>374.09</ele>
        <time>2013-11-11T11:23:54Z</time>
      </trkpt>
      <trkpt lat="47.43988" lon="6.83169">
        <ele>371.69</ele>
        <time>2013-11-11T11:24:00Z</time>
      </trkpt>
      <trkpt lat="47.43988" lon="6.83176">
        <ele>371.69</ele>
        <time>2013-11-11T11:24:01Z</time>
      </trkpt>
      <trkpt lat="47.43989" lon="6.83183">
        <ele>371.21</ele>
        <time>2013-11-11T11:24:02Z</time>
      </trkpt>
      <trkpt lat="47.4399" lon="6.8319">
        <ele>371.21</ele>
        <time>2013-11-11T11:24:03Z</time>
      </trkpt>
      <trkpt lat="47.43991" lon="6.83197">
        <ele>371.21</ele>
        <time>2013-11-11T11:24:04Z</time>
      </trkpt>
      <trkpt lat="47.43992" lon="6.83204">
        <ele>371.21</ele>
        <time>2013-11-11T11:24:05Z</time>
      </trkpt>
      <trkpt lat="47.43995" lon="6.83223">
        <ele>371.21</ele>
        <time>2013-11-11T11:24:08Z</time>
      </trkpt>
      <trkpt lat="47.43996" lon="6.83229">
        <ele>371.21</ele>
        <time>2013-11-11T11:24:09Z</time>
      </trkpt>
      <trkpt lat="47.44003" lon="6.83289">
        <ele>368.8</ele>
        <time>2013-11-11T11:24:22Z</time>
      </trkpt>
      <trkpt lat="47.44002" lon="6.83295">
        <ele>368.8</ele>
        <time>2013-11-11T11:24:23Z</time>
      </trkpt>
      <trkpt lat="47.44" lon="6.83301">
        <ele>368.8</ele>
        <time>2013-11-11T11:24:24Z</time>
      </trkpt>
      <trkpt lat="47.43984" lon="6.8334">
        <ele>371.21</ele>
        <time>2013-11-11T11:24:36Z</time>
      </trkpt>
      <trkpt lat="47.43977" lon="6.83353">
        <ele>372.17</ele>
        <time>2013-11-11T11:24:42Z</time>
      </trkpt>
      <trkpt lat="47.43976" lon="6.83353">
        <ele>372.17</ele>
        <time>2013-11-11T11:24:43Z</time>
      </trkpt>
      <trkpt lat="47.43976" lon="6.83351">
        <ele>372.17</ele>
        <time>2013-11-11T11:24:44Z</time>
      </trkpt>
      <trkpt lat="47.43977" lon="6.8335">
        <ele>372.17</ele>
        <time>2013-11-11T11:24:45Z</time>
      </trkpt>
      <trkpt lat="47.43977" lon="6.83348">
        <ele>372.17</ele>
        <time>2013-11-11T11:24:46Z</time>
      </trkpt>
      <trkpt lat="47.43978" lon="6.83347">
        <ele>371.69</ele>
        <time>2013-11-11T11:24:47Z</time>
      </trkpt>
      <trkpt lat="47.43979" lon="6.83345">
        <ele>371.69</ele>
        <time>2013-11-11T11:24:48Z</time>
      </trkpt>
      <trkpt lat="47.43979" lon="6.83343">
        <ele>371.69</ele>
        <time>2013-11-11T11:24:49Z</time>
      </trkpt>
      <trkpt lat="47.4398" lon="6.83341">
        <ele>371.69</ele>
        <time>2013-11-11T11:24:50Z</time>
      </trkpt>
      <trkpt lat="47.4398" lon="6.8334">
        <ele>371.69</ele>
        <time>2013-11-11T11:24:51Z</time>
      </trkpt>
      <trkpt lat="47.43981" lon="6.83339">
        <ele>371.21</ele>
        <time>2013-11-11T11:24:52Z</time>
      </trkpt>
      <trkpt lat="47.43982" lon="6.83339">
        <ele>371.21</ele>
        <time>2013-11-11T11:24:53Z</time>
      </trkpt>
      <trkpt lat="47.43984" lon="6.83342">
        <ele>372.17</ele>
        <time>2013-11-11T11:25:04Z</time>
      </trkpt>
      <trkpt lat="47.43983" lon="6.83341">
        <ele>369.76</ele>
        <time>2013-11-11T11:25:37Z</time>
      </trkpt>
      <trkpt lat="47.43983" lon="6.83342">
        <ele>369.28</ele>
        <time>2013-11-11T11:26:05Z</time>
      </trkpt>
      <trkpt lat="47.43983" lon="6.83342">
        <ele>367.36</ele>
        <time>2013-11-11T11:26:25Z</time>
      </trkpt>
      <trkpt lat="47.43982" lon="6.83342">
        <ele>368.32</ele>
        <time>2013-11-11T11:26:53Z</time>
      </trkpt>
      <trkpt lat="47.43981" lon="6.83339">
        <ele>369.28</ele>
        <time>2013-11-11T11:27:09Z</time>
      </trkpt>
      <trkpt lat="47.43982" lon="6.83337">
        <ele>369.76</ele>
        <time>2013-11-11T11:27:13Z</time>
      </trkpt>
      <trkpt lat="47.43982" lon="6.83336">
        <ele>369.76</ele>
        <time>2013-11-11T11:27:14Z</time>
      </trkpt>
      <trkpt lat="47.43997" lon="6.83305">
        <ele>368.32</ele>
        <time>2013-11-11T11:27:25Z</time>
      </trkpt>
      <trkpt lat="47.44" lon="6.83301">
        <ele>368.32</ele>
        <time>2013-11-11T11:27:26Z</time>
      </trkpt>
      <trkpt lat="47.44004" lon="6.83299">
        <ele>367.84</ele>
        <time>2013-11-11T11:27:27Z</time>
      </trkpt>
      <trkpt lat="47.4401" lon="6.83299">
        <ele>367.36</ele>
        <time>2013-11-11T11:27:28Z</time>
      </trkpt>
      <trkpt lat="47.44082" lon="6.83296">
        <ele>360.15</ele>
        <time>2013-11-11T11:27:37Z</time>
      </trkpt>
      <trkpt lat="47.44119" lon="6.83282">
        <ele>354.38</ele>
        <time>2013-11-11T11:27:44Z</time>
      </trkpt>
      <trkpt lat="47.44121" lon="6.83281">
        <ele>354.38</ele>
        <time>2013-11-11T11:27:57Z</time>
      </trkpt>
      <trkpt lat="47.44118" lon="6.83282">
        <ele>356.31</ele>
        <time>2013-11-11T11:28:08Z</time>
      </trkpt>
      <trkpt lat="47.44117" lon="6.83282">
        <ele>356.79</ele>
        <time>2013-11-11T11:28:09Z</time>
      </trkpt>
      <trkpt lat="47.44115" lon="6.83283">
        <ele>357.27</ele>
        <time>2013-11-11T11:28:10Z</time>
      </trkpt>
      <trkpt lat="47.44113" lon="6.83283">
        <ele>358.23</ele>
        <time>2013-11-11T11:28:11Z</time>
      </trkpt>
      <trkpt lat="47.4411" lon="6.83284">
        <ele>358.71</ele>
        <time>2013-11-11T11:28:12Z</time>
      </trkpt>
      <trkpt lat="47.44107" lon="6.83286">
        <ele>359.67</ele>
        <time>2013-11-11T11:28:13Z</time>
      </trkpt>
      <trkpt lat="47.44104" lon="6.83288">
        <ele>360.63</ele>
        <time>2013-11-11T11:28:14Z</time>
      </trkpt>
      <trkpt lat="47.44102" lon="6.83289">
        <ele>361.59</ele>
        <time>2013-11-11T11:28:15Z</time>
      </trkpt>
      <trkpt lat="47.44096" lon="6.83291">
        <ele>364.96</ele>
        <time>2013-11-11T11:28:18Z</time>
      </trkpt>
      <trkpt lat="47.44095" lon="6.83293">
        <ele>365.92</ele>
        <time>2013-11-11T11:28:19Z</time>
      </trkpt>
      <trkpt lat="47.44098" lon="6.83306">
        <ele>367.36</ele>
        <time>2013-11-11T11:28:25Z</time>
      </trkpt>
      <trkpt lat="47.44105" lon="6.83327">
        <ele>364.96</ele>
        <time>2013-11-11T11:28:38Z</time>
      </trkpt>
      <trkpt lat="47.44108" lon="6.83329">
        <ele>365.44</ele>
        <time>2013-11-11T11:28:51Z</time>
      </trkpt>
      <trkpt lat="47.44105" lon="6.83331">
        <ele>366.88</ele>
        <time>2013-11-11T11:29:06Z</time>
      </trkpt>
      <trkpt lat="47.44105" lon="6.83333">
        <ele>366.4</ele>
        <time>2013-11-11T11:29:10Z</time>
      </trkpt>
      <trkpt lat="47.44104" lon="6.83344">
        <ele>367.36</ele>
        <time>2013-11-11T11:29:16Z</time>
      </trkpt>
      <trkpt lat="47.44109" lon="6.83353">
        <ele>368.32</ele>
        <time>2013-11-11T11:29:21Z</time>
      </trkpt>
      <trkpt lat="47.44116" lon="6.83356">
        <ele>369.28</ele>
        <time>2013-11-11T11:29:27Z</time>
      </trkpt>
      <trkpt lat="47.44124" lon="6.83353">
        <ele>371.69</ele>
        <time>2013-11-11T11:29:37Z</time>
      </trkpt>
      <trkpt lat="47.44127" lon="6.83349">
        <ele>371.21</ele>
        <time>2013-11-11T11:29:41Z</time>
      </trkpt>
      <trkpt lat="47.44141" lon="6.83343">
        <ele>370.73</ele>
        <time>2013-11-11T11:29:54Z</time>
      </trkpt>
      <trkpt lat="47.44165" lon="6.83351">
        <ele>372.65</ele>
        <time>2013-11-11T11:30:09Z</time>
      </trkpt>
      <trkpt lat="47.4419" lon="6.83364">
        <ele>372.65</ele>
        <time>2013-11-11T11:30:20Z</time>
      </trkpt>
      <trkpt lat="47.44223" lon="6.83388">
        <ele>372.17</ele>
        <time>2013-11-11T11:30:32Z</time>
      </trkpt>
      <trkpt lat="47.44252" lon="6.83424">
        <ele>370.73</ele>
        <time>2013-11-11T11:30:43Z</time>
      </trkpt>
      <trkpt lat="47.44268" lon="6.83429">
        <ele>369.28</ele>
        <time>2013-11-11T11:30:54Z</time>
      </trkpt>
      <trkpt lat="47.4427" lon="6.8343">
        <ele>368.8</ele>
        <time>2013-11-11T11:30:55Z</time>
      </trkpt>
      <trkpt lat="47.44283" lon="6.83451">
        <ele>365.92</ele>
        <time>2013-11-11T11:31:01Z</time>
      </trkpt>
      <trkpt lat="47.44295" lon="6.83492">
        <ele>364.48</ele>
        <time>2013-11-11T11:31:12Z</time>
      </trkpt>
      <trkpt lat="47.44309" lon="6.83514">
        <ele>363.52</ele>
        <time>2013-11-11T11:31:21Z</time>
      </trkpt>
      <trkpt lat="47.44319" lon="6.83523">
        <ele>365.92</ele>
        <time>2013-11-11T11:31:54Z</time>
      </trkpt>
      <trkpt lat="47.44317" lon="6.83525">
        <ele>362.07</ele>
        <time>2013-11-11T11:32:23Z</time>
      </trkpt>
      <trkpt lat="47.44317" lon="6.83527">
        <ele>364.96</ele>
        <time>2013-11-11T11:32:43Z</time>
      </trkpt>
      <trkpt lat="47.44329" lon="6.83531">
        <ele>368.32</ele>
        <time>2013-11-11T11:33:09Z</time>
      </trkpt>
      <trkpt lat="47.44346" lon="6.83546">
        <ele>367.36</ele>
        <time>2013-11-11T11:33:21Z</time>
      </trkpt>
      <trkpt lat="47.44349" lon="6.8355">
        <ele>367.36</ele>
        <time>2013-11-11T11:33:24Z</time>
      </trkpt>
      <trkpt lat="47.44358" lon="6.83559">
        <ele>368.8</ele>
        <time>2013-11-11T11:33:30Z</time>
      </trkpt>
      <trkpt lat="47.44372" lon="6.83571">
        <ele>365.92</ele>
        <time>2013-11-11T11:33:42Z</time>
      </trkpt>
      <trkpt lat="47.44386" lon="6.8358">
        <ele>363.04</ele>
        <time>2013-11-11T11:34:02Z</time>
      </trkpt>
      <trkpt lat="47.44404" lon="6.83592">
        <ele>357.27</ele>
        <time>2013-11-11T11:34:15Z</time>
      </trkpt>
      <trkpt lat="47.44407" lon="6.83595">
        <ele>356.31</ele>
        <time>2013-11-11T11:34:24Z</time>
      </trkpt>
      <trkpt lat="47.44408" lon="6.83596">
        <ele>355.34</ele>
        <time>2013-11-11T11:34:26Z</time>
      </trkpt>
      <trkpt lat="47.44419" lon="6.83603">
        <ele>352.46</ele>
        <time>2013-11-11T11:34:36Z</time>
      </trkpt>
      <trkpt lat="47.44425" lon="6.83609">
        <ele>350.54</ele>
        <time>2013-11-11T11:34:59Z</time>
      </trkpt>
      <trkpt lat="47.44431" lon="6.83612">
        <ele>349.1</ele>
        <time>2013-11-11T11:35:14Z</time>
      </trkpt>
      <trkpt lat="47.44434" lon="6.83611">
        <ele>347.65</ele>
        <time>2013-11-11T11:35:31Z</time>
      </trkpt>
      <trkpt lat="47.44435" lon="6.83614">
        <ele>347.65</ele>
        <time>2013-11-11T11:35:43Z</time>
      </trkpt>
      <trkpt lat="47.44435" lon="6.83615">
        <ele>345.73</ele>
        <time>2013-11-11T11:36:09Z</time>
      </trkpt>
      <trkpt lat="47.44432" lon="6.83617">
        <ele>346.21</ele>
        <time>2013-11-11T11:36:21Z</time>
      </trkpt>
      <trkpt lat="47.44423" lon="6.83616">
        <ele>349.1</ele>
        <time>2013-11-11T11:36:34Z</time>
      </trkpt>
      <trkpt lat="47.44416" lon="6.83611">
        <ele>350.54</ele>
        <time>2013-11-11T11:36:47Z</time>
      </trkpt>
      <trkpt lat="47.44414" lon="6.83606">
        <ele>351.5</ele>
        <time>2013-11-11T11:36:54Z</time>
      </trkpt>
      <trkpt lat="47.44409" lon="6.83602">
        <ele>353.42</ele>
        <time>2013-11-11T11:37:01Z</time>
      </trkpt>
      <trkpt lat="47.44398" lon="6.83595">
        <ele>355.34</ele>
        <time>2013-11-11T11:37:14Z</time>
      </trkpt>
      <trkpt lat="47.44387" lon="6.83587">
        <ele>359.67</ele>
        <time>2013-11-11T11:37:30Z</time>
      </trkpt>
      <trkpt lat="47.44383" lon="6.83579">
        <ele>363.04</ele>
        <time>2013-11-11T11:37:44Z</time>
      </trkpt>
      <trkpt lat="47.4438" lon="6.83579">
        <ele>361.59</ele>
        <time>2013-11-11T11:37:56Z</time>
      </trkpt>
      <trkpt lat="47.44377" lon="6.83559">
        <ele>360.15</ele>
        <time>2013-11-11T11:38:08Z</time>
      </trkpt>
      <trkpt lat="47.44377" lon="6.83555">
        <ele>360.15</ele>
        <time>2013-11-11T11:38:10Z</time>
      </trkpt>
      <trkpt lat="47.4437" lon="6.83536">
        <ele>360.63</ele>
        <time>2013-11-11T11:38:22Z</time>
      </trkpt>
      <trkpt lat="47.44364" lon="6.83521">
        <ele>360.15</ele>
        <time>2013-11-11T11:38:32Z</time>
      </trkpt>
      <trkpt lat="47.44361" lon="6.83514">
        <ele>359.19</ele>
        <time>2013-11-11T11:38:36Z</time>
      </trkpt>
      <trkpt lat="47.44361" lon="6.83507">
        <ele>359.19</ele>
        <time>2013-11-11T11:38:49Z</time>
      </trkpt>
      <trkpt lat="47.44358" lon="6.83503">
        <ele>357.75</ele>
        <time>2013-11-11T11:39:01Z</time>
      </trkpt>
      <trkpt lat="47.44353" lon="6.83498">
        <ele>356.79</ele>
        <time>2013-11-11T11:39:15Z</time>
      </trkpt>
      <trkpt lat="47.44345" lon="6.83488">
        <ele>355.83</ele>
        <time>2013-11-11T11:39:34Z</time>
      </trkpt>
      <trkpt lat="47.44342" lon="6.83484">
        <ele>354.86</ele>
        <time>2013-11-11T11:39:48Z</time>
      </trkpt>
      <trkpt lat="47.44336" lon="6.8348">
        <ele>355.34</ele>
        <time>2013-11-11T11:40:04Z</time>
      </trkpt>
      <trkpt lat="47.44331" lon="6.83466">
        <ele>358.71</ele>
        <time>2013-11-11T11:40:18Z</time>
      </trkpt>
      <trkpt lat="47.44329" lon="6.83455">
        <ele>359.67</ele>
        <time>2013-11-11T11:40:28Z</time>
      </trkpt>
      <trkpt lat="47.44321" lon="6.83439">
        <ele>360.63</ele>
        <time>2013-11-11T11:40:41Z</time>
      </trkpt>
      <trkpt lat="47.44314" lon="6.83425">
        <ele>358.71</ele>
        <time>2013-11-11T11:40:55Z</time>
      </trkpt>
      <trkpt lat="47.44309" lon="6.83411">
        <ele>358.71</ele>
        <time>2013-11-11T11:41:02Z</time>
      </trkpt>
      <trkpt lat="47.44308" lon="6.83405">
        <ele>359.19</ele>
        <time>2013-11-11T11:41:06Z</time>
      </trkpt>
      <trkpt lat="47.44302" lon="6.83391">
        <ele>357.75</ele>
        <time>2013-11-11T11:41:18Z</time>
      </trkpt>
      <trkpt lat="47.443" lon="6.83383">
        <ele>358.23</ele>
        <time>2013-11-11T11:41:35Z</time>
      </trkpt>
      <trkpt lat="47.44295" lon="6.83384">
        <ele>352.46</ele>
        <time>2013-11-11T11:42:09Z</time>
      </trkpt>
      <trkpt lat="47.44292" lon="6.83386">
        <ele>354.86</ele>
        <time>2013-11-11T11:42:24Z</time>
      </trkpt>
      <trkpt lat="47.44287" lon="6.83382">
        <ele>356.31</ele>
        <time>2013-11-11T11:42:40Z</time>
      </trkpt>
      <trkpt lat="47.44279" lon="6.83366">
        <ele>361.11</ele>
        <time>2013-11-11T11:43:02Z</time>
      </trkpt>
      <trkpt lat="47.44277" lon="6.83361">
        <ele>361.59</ele>
        <time>2013-11-11T11:43:05Z</time>
      </trkpt>
      <trkpt lat="47.44274" lon="6.83339">
        <ele>360.63</ele>
        <time>2013-11-11T11:43:17Z</time>
      </trkpt>
      <trkpt lat="47.44274" lon="6.83329">
        <ele>359.19</ele>
        <time>2013-11-11T11:43:21Z</time>
      </trkpt>
      <trkpt lat="47.44268" lon="6.83306">
        <ele>353.9</ele>
        <time>2013-11-11T11:43:35Z</time>
      </trkpt>
      <trkpt lat="47.44261" lon="6.83295">
        <ele>351.5</ele>
        <time>2013-11-11T11:43:46Z</time>
      </trkpt>
      <trkpt lat="47.44256" lon="6.83278">
        <ele>351.02</ele>
        <time>2013-11-11T11:43:55Z</time>
      </trkpt>
      <trkpt lat="47.44249" lon="6.83274">
        <ele>341.89</ele>
        <time>2013-11-11T11:44:21Z</time>
      </trkpt>
      <trkpt lat="47.4425" lon="6.83271">
        <ele>341.41</ele>
        <time>2013-11-11T11:44:28Z</time>
      </trkpt>
      <trkpt lat="47.44253" lon="6.83267">
        <ele>340.92</ele>
        <time>2013-11-11T11:44:31Z</time>
      </trkpt>
      <trkpt lat="47.44256" lon="6.83264">
        <ele>340.44</ele>
        <time>2013-11-11T11:44:32Z</time>
      </trkpt>
      <trkpt lat="47.44258" lon="6.8326">
        <ele>340.44</ele>
        <time>2013-11-11T11:44:33Z</time>
      </trkpt>
      <trkpt lat="47.44261" lon="6.83254">
        <ele>339.96</ele>
        <time>2013-11-11T11:44:34Z</time>
      </trkpt>
      <trkpt lat="47.44264" lon="6.83247">
        <ele>339.48</ele>
        <time>2013-11-11T11:44:35Z</time>
      </trkpt>
      <trkpt lat="47.44265" lon="6.83241">
        <ele>339</ele>
        <time>2013-11-11T11:44:36Z</time>
      </trkpt>
      <trkpt lat="47.44266" lon="6.83235">
        <ele>338.52</ele>
        <time>2013-11-11T11:44:37Z</time>
      </trkpt>
      <trkpt lat="47.44267" lon="6.83228">
        <ele>337.56</ele>
        <time>2013-11-11T11:44:38Z</time>
      </trkpt>
      <trkpt lat="47.4427" lon="6.83222">
        <ele>337.08</ele>
        <time>2013-11-11T11:44:39Z</time>
      </trkpt>
      <trkpt lat="47.44274" lon="6.83216">
        <ele>336.6</ele>
        <time>2013-11-11T11:44:40Z</time>
      </trkpt>
      <trkpt lat="47.44279" lon="6.83212">
        <ele>336.6</ele>
        <time>2013-11-11T11:44:41Z</time>
      </trkpt>
      <trkpt lat="47.44284" lon="6.83208">
        <ele>336.12</ele>
        <time>2013-11-11T11:44:42Z</time>
      </trkpt>
      <trkpt lat="47.44289" lon="6.83206">
        <ele>336.12</ele>
        <time>2013-11-11T11:44:43Z</time>
      </trkpt>
      <trkpt lat="47.44294" lon="6.83204">
        <ele>335.64</ele>
        <time>2013-11-11T11:44:44Z</time>
      </trkpt>
      <trkpt lat="47.44313" lon="6.83196">
        <ele>335.16</ele>
        <time>2013-11-11T11:44:48Z</time>
      </trkpt>
      <trkpt lat="47.44317" lon="6.83195">
        <ele>335.16</ele>
        <time>2013-11-11T11:44:49Z</time>
      </trkpt>
      <trkpt lat="47.44322" lon="6.83194">
        <ele>335.16</ele>
        <time>2013-11-11T11:44:50Z</time>
      </trkpt>
      <trkpt lat="47.44372" lon="6.83173">
        <ele>334.68</ele>
        <time>2013-11-11T11:45:00Z</time>
      </trkpt>
      <trkpt lat="47.44376" lon="6.83171">
        <ele>334.68</ele>
        <time>2013-11-11T11:45:01Z</time>
      </trkpt>
      <trkpt lat="47.44381" lon="6.8317">
        <ele>335.16</ele>
        <time>2013-11-11T11:45:02Z</time>
      </trkpt>
      <trkpt lat="47.44386" lon="6.83172">
        <ele>335.16</ele>
        <time>2013-11-11T11:45:03Z</time>
      </trkpt>
      <trkpt lat="47.4439" lon="6.83176">
        <ele>335.16</ele>
        <time>2013-11-11T11:45:04Z</time>
      </trkpt>
      <trkpt lat="47.44392" lon="6.83183">
        <ele>335.16</ele>
        <time>2013-11-11T11:45:05Z</time>
      </trkpt>
      <trkpt lat="47.44395" lon="6.83191">
        <ele>335.16</ele>
        <time>2013-11-11T11:45:06Z</time>
      </trkpt>
      <trkpt lat="47.44404" lon="6.83229">
        <ele>334.2</ele>
        <time>2013-11-11T11:45:11Z</time>
      </trkpt>
      <trkpt lat="47.44406" lon="6.83237">
        <ele>334.2</ele>
        <time>2013-11-11T11:45:12Z</time>
      </trkpt>
      <trkpt lat="47.44408" lon="6.83243">
        <ele>334.2</ele>
        <time>2013-11-11T11:45:13Z</time>
      </trkpt>
      <trkpt lat="47.44434" lon="6.83334">
        <ele>331.31</ele>
        <time>2013-11-11T11:45:26Z</time>
      </trkpt>
      <trkpt lat="47.44437" lon="6.8334">
        <ele>330.83</ele>
        <time>2013-11-11T11:45:27Z</time>
      </trkpt>
      <trkpt lat="47.44439" lon="6.83346">
        <ele>330.35</ele>
        <time>2013-11-11T11:45:28Z</time>
      </trkpt>
      <trkpt lat="47.44441" lon="6.83352">
        <ele>329.39</ele>
        <time>2013-11-11T11:45:29Z</time>
      </trkpt>
      <trkpt lat="47.44443" lon="6.83358">
        <ele>328.91</ele>
        <time>2013-11-11T11:45:30Z</time>
      </trkpt>
      <trkpt lat="47.44445" lon="6.83363">
        <ele>328.91</ele>
        <time>2013-11-11T11:45:31Z</time>
      </trkpt>
      <trkpt lat="47.44448" lon="6.83369">
        <ele>328.91</ele>
        <time>2013-11-11T11:45:32Z</time>
      </trkpt>
      <trkpt lat="47.44451" lon="6.83372">
        <ele>328.91</ele>
        <time>2013-11-11T11:45:33Z</time>
      </trkpt>
      <trkpt lat="47.44456" lon="6.83373">
        <ele>328.43</ele>
        <time>2013-11-11T11:45:34Z</time>
      </trkpt>
      <trkpt lat="47.4446" lon="6.83371">
        <ele>328.91</ele>
        <time>2013-11-11T11:45:35Z</time>
      </trkpt>
      <trkpt lat="47.44465" lon="6.83369">
        <ele>328.91</ele>
        <time>2013-11-11T11:45:36Z</time>
      </trkpt>
      <trkpt lat="47.44469" lon="6.83366">
        <ele>328.91</ele>
        <time>2013-11-11T11:45:37Z</time>
      </trkpt>
      <trkpt lat="47.44489" lon="6.8335">
        <ele>330.35</ele>
        <time>2013-11-11T11:45:42Z</time>
      </trkpt>
      <trkpt lat="47.44502" lon="6.83341">
        <ele>330.35</ele>
        <time>2013-11-11T11:45:45Z</time>
      </trkpt>
      <trkpt lat="47.44521" lon="6.83326">
        <ele>330.35</ele>
        <time>2013-11-11T11:45:50Z</time>
      </trkpt>
      <trkpt lat="47.44525" lon="6.83326">
        <ele>330.35</ele>
        <time>2013-11-11T11:45:51Z</time>
      </trkpt>
      <trkpt lat="47.44528" lon="6.8333">
        <ele>329.87</ele>
        <time>2013-11-11T11:45:52Z</time>
      </trkpt>
      <trkpt lat="47.44543" lon="6.83365">
        <ele>329.39</ele>
        <time>2013-11-11T11:45:58Z</time>
      </trkpt>
      <trkpt lat="47.44545" lon="6.83371">
        <ele>329.39</ele>
        <time>2013-11-11T11:45:59Z</time>
      </trkpt>
      <trkpt lat="47.44582" lon="6.83457">
        <ele>329.87</ele>
        <time>2013-11-11T11:46:14Z</time>
      </trkpt>
      <trkpt lat="47.44615" lon="6.83539">
        <ele>330.83</ele>
        <time>2013-11-11T11:46:29Z</time>
      </trkpt>
      <trkpt lat="47.44632" lon="6.83573">
        <ele>330.83</ele>
        <time>2013-11-11T11:46:37Z</time>
      </trkpt>
      <trkpt lat="47.44636" lon="6.83573">
        <ele>330.83</ele>
        <time>2013-11-11T11:46:38Z</time>
      </trkpt>
      <trkpt lat="47.4464" lon="6.8357">
        <ele>330.35</ele>
        <time>2013-11-11T11:46:39Z</time>
      </trkpt>
      <trkpt lat="47.44687" lon="6.83528">
        <ele>331.79</ele>
        <time>2013-11-11T11:46:52Z</time>
      </trkpt>
      <trkpt lat="47.44691" lon="6.83531">
        <ele>331.79</ele>
        <time>2013-11-11T11:46:53Z</time>
      </trkpt>
      <trkpt lat="47.44693" lon="6.83535">
        <ele>331.79</ele>
        <time>2013-11-11T11:46:54Z</time>
      </trkpt>
      <trkpt lat="47.44698" lon="6.83545">
        <ele>331.31</ele>
        <time>2013-11-11T11:46:56Z</time>
      </trkpt>
      <trkpt lat="47.44731" lon="6.83603">
        <ele>330.35</ele>
        <time>2013-11-11T11:47:08Z</time>
      </trkpt>
      <trkpt lat="47.44738" lon="6.8362">
        <ele>330.35</ele>
        <time>2013-11-11T11:47:12Z</time>
      </trkpt>
      <trkpt lat="47.44737" lon="6.83624">
        <ele>330.35</ele>
        <time>2013-11-11T11:47:13Z</time>
      </trkpt>
      <trkpt lat="47.44735" lon="6.83628">
        <ele>330.35</ele>
        <time>2013-11-11T11:47:14Z</time>
      </trkpt>
      <trkpt lat="47.44693" lon="6.83688">
        <ele>329.87</ele>
        <time>2013-11-11T11:47:27Z</time>
      </trkpt>
      <trkpt lat="47.4469" lon="6.83694">
        <ele>329.87</ele>
        <time>2013-11-11T11:47:28Z</time>
      </trkpt>
      <trkpt lat="47.44689" lon="6.837">
        <ele>329.39</ele>
        <time>2013-11-11T11:47:29Z</time>
      </trkpt>
      <trkpt lat="47.44691" lon="6.83707">
        <ele>329.39</ele>
        <time>2013-11-11T11:47:30Z</time>
      </trkpt>
      <trkpt lat="47.44694" lon="6.83712">
        <ele>329.39</ele>
        <time>2013-11-11T11:47:31Z</time>
      </trkpt>
      <trkpt lat="47.44697" lon="6.83717">
        <ele>329.39</ele>
        <time>2013-11-11T11:47:32Z</time>
      </trkpt>
      <trkpt lat="47.44702" lon="6.83721">
        <ele>329.39</ele>
        <time>2013-11-11T11:47:33Z</time>
      </trkpt>
      <trkpt lat="47.44706" lon="6.83724">
        <ele>329.39</ele>
        <time>2013-11-11T11:47:34Z</time>
      </trkpt>
      <trkpt lat="47.44711" lon="6.83727">
        <ele>329.87</ele>
        <time>2013-11-11T11:47:35Z</time>
      </trkpt>
      <trkpt lat="47.44716" lon="6.83729">
        <ele>329.87</ele>
        <time>2013-11-11T11:47:36Z</time>
      </trkpt>
      <trkpt lat="47.44721" lon="6.83731">
        <ele>329.39</ele>
        <time>2013-11-11T11:47:37Z</time>
      </trkpt>
      <trkpt lat="47.44725" lon="6.83732">
        <ele>329.39</ele>
        <time>2013-11-11T11:47:38Z</time>
      </trkpt>
      <trkpt lat="47.44755" lon="6.83743">
        <ele>329.39</ele>
        <time>2013-11-11T11:47:45Z</time>
      </trkpt>
      <trkpt lat="47.44759" lon="6.83744">
        <ele>329.39</ele>
        <time>2013-11-11T11:47:46Z</time>
      </trkpt>
      <trkpt lat="47.44771" lon="6.83751">
        <ele>328.91</ele>
        <time>2013-11-11T11:47:49Z</time>
      </trkpt>
      <trkpt lat="47.44775" lon="6.83753">
        <ele>328.91</ele>
        <time>2013-11-11T11:47:50Z</time>
      </trkpt>
      <trkpt lat="47.44789" lon="6.83757">
        <ele>328.43</ele>
        <time>2013-11-11T11:47:53Z</time>
      </trkpt>
      <trkpt lat="47.44862" lon="6.83786">
        <ele>327.47</ele>
        <time>2013-11-11T11:48:09Z</time>
      </trkpt>
      <trkpt lat="47.44895" lon="6.83806">
        <ele>328.43</ele>
        <time>2013-11-11T11:48:18Z</time>
      </trkpt>
      <trkpt lat="47.44897" lon="6.8381">
        <ele>327.95</ele>
        <time>2013-11-11T11:48:19Z</time>
      </trkpt>
      <trkpt lat="47.449" lon="6.83814">
        <ele>327.95</ele>
        <time>2013-11-11T11:48:20Z</time>
      </trkpt>
      <trkpt lat="47.44919" lon="6.83836">
        <ele>327.47</ele>
        <time>2013-11-11T11:48:26Z</time>
      </trkpt>
      <trkpt lat="47.44922" lon="6.8384">
        <ele>326.99</ele>
        <time>2013-11-11T11:48:27Z</time>
      </trkpt>
      <trkpt lat="47.44926" lon="6.83843">
        <ele>327.47</ele>
        <time>2013-11-11T11:48:28Z</time>
      </trkpt>
      <trkpt lat="47.44933" lon="6.83847">
        <ele>326.99</ele>
        <time>2013-11-11T11:48:30Z</time>
      </trkpt>
      <trkpt lat="47.44936" lon="6.83851">
        <ele>326.99</ele>
        <time>2013-11-11T11:48:31Z</time>
      </trkpt>
      <trkpt lat="47.44939" lon="6.83854">
        <ele>326.99</ele>
        <time>2013-11-11T11:48:32Z</time>
      </trkpt>
      <trkpt lat="47.44969" lon="6.83871">
        <ele>326.02</ele>
        <time>2013-11-11T11:48:40Z</time>
      </trkpt>
      <trkpt lat="47.44972" lon="6.83874">
        <ele>326.02</ele>
        <time>2013-11-11T11:48:41Z</time>
      </trkpt>
      <trkpt lat="47.44979" lon="6.83881">
        <ele>325.54</ele>
        <time>2013-11-11T11:48:43Z</time>
      </trkpt>
      <trkpt lat="47.44984" lon="6.83883">
        <ele>325.54</ele>
        <time>2013-11-11T11:48:44Z</time>
      </trkpt>
      <trkpt lat="47.44987" lon="6.83885">
        <ele>326.02</ele>
        <time>2013-11-11T11:48:45Z</time>
      </trkpt>
      <trkpt lat="47.44991" lon="6.83886">
        <ele>326.02</ele>
        <time>2013-11-11T11:48:46Z</time>
      </trkpt>
      <trkpt lat="47.44995" lon="6.83885">
        <ele>326.02</ele>
        <time>2013-11-11T11:48:47Z</time>
      </trkpt>
      <trkpt lat="47.44999" lon="6.83885">
        <ele>325.54</ele>
        <time>2013-11-11T11:48:48Z</time>
      </trkpt>
      <trkpt lat="47.45003" lon="6.83885">
        <ele>325.54</ele>
        <time>2013-11-11T11:48:49Z</time>
      </trkpt>
      <trkpt lat="47.45007" lon="6.83887">
        <ele>326.02</ele>
        <time>2013-11-11T11:48:50Z</time>
      </trkpt>
      <trkpt lat="47.4501" lon="6.83888">
        <ele>326.02</ele>
        <time>2013-11-11T11:48:51Z</time>
      </trkpt>
      <trkpt lat="47.45014" lon="6.83889">
        <ele>326.02</ele>
        <time>2013-11-11T11:48:52Z</time>
      </trkpt>
      <trkpt lat="47.45018" lon="6.83891">
        <ele>326.02</ele>
        <time>2013-11-11T11:48:53Z</time>
      </trkpt>
      <trkpt lat="47.45022" lon="6.83892">
        <ele>326.02</ele>
        <time>2013-11-11T11:48:54Z</time>
      </trkpt>
      <trkpt lat="47.45025" lon="6.83894">
        <ele>326.02</ele>
        <time>2013-11-11T11:48:55Z</time>
      </trkpt>
      <trkpt lat="47.45029" lon="6.83896">
        <ele>326.02</ele>
        <time>2013-11-11T11:48:56Z</time>
      </trkpt>
      <trkpt lat="47.45032" lon="6.83897">
        <ele>325.54</ele>
        <time>2013-11-11T11:48:57Z</time>
      </trkpt>
      <trkpt lat="47.45035" lon="6.83899">
        <ele>325.54</ele>
        <time>2013-11-11T11:48:58Z</time>
      </trkpt>
      <trkpt lat="47.45089" lon="6.83911">
        <ele>326.02</ele>
        <time>2013-11-11T11:49:14Z</time>
      </trkpt>
      <trkpt lat="47.45133" lon="6.83911">
        <ele>326.99</ele>
        <time>2013-11-11T11:49:27Z</time>
      </trkpt>
      <trkpt lat="47.45192" lon="6.83915">
        <ele>327.95</ele>
        <time>2013-11-11T11:49:43Z</time>
      </trkpt>
      <trkpt lat="47.45211" lon="6.83918">
        <ele>327.95</ele>
        <time>2013-11-11T11:49:50Z</time>
      </trkpt>
      <trkpt lat="47.45213" lon="6.83917">
        <ele>327.95</ele>
        <time>2013-11-11T11:49:51Z</time>
      </trkpt>
      <trkpt lat="47.45215" lon="6.83916">
        <ele>327.95</ele>
        <time>2013-11-11T11:49:52Z</time>
      </trkpt>
      <trkpt lat="47.45218" lon="6.83916">
        <ele>327.95</ele>
        <time>2013-11-11T11:49:53Z</time>
      </trkpt>
      <trkpt lat="47.45221" lon="6.83914">
        <ele>327.95</ele>
        <time>2013-11-11T11:49:54Z</time>
      </trkpt>
      <trkpt lat="47.45229" lon="6.83912">
        <ele>327.95</ele>
        <time>2013-11-11T11:49:56Z</time>
      </trkpt>
      <trkpt lat="47.45234" lon="6.8391">
        <ele>327.95</ele>
        <time>2013-11-11T11:49:57Z</time>
      </trkpt>
      <trkpt lat="47.45237" lon="6.83904">
        <ele>327.95</ele>
        <time>2013-11-11T11:49:58Z</time>
      </trkpt>
      <trkpt lat="47.45239" lon="6.83895">
        <ele>327.95</ele>
        <time>2013-11-11T11:49:59Z</time>
      </trkpt>
      <trkpt lat="47.4524" lon="6.83887">
        <ele>327.95</ele>
        <time>2013-11-11T11:50:00Z</time>
      </trkpt>
      <trkpt lat="47.4524" lon="6.8388">
        <ele>327.95</ele>
        <time>2013-11-11T11:50:01Z</time>
      </trkpt>
      <trkpt lat="47.4524" lon="6.83873">
        <ele>328.43</ele>
        <time>2013-11-11T11:50:02Z</time>
      </trkpt>
      <trkpt lat="47.4524" lon="6.83867">
        <ele>328.43</ele>
        <time>2013-11-11T11:50:03Z</time>
      </trkpt>
      <trkpt lat="47.45241" lon="6.83847">
        <ele>328.91</ele>
        <time>2013-11-11T11:50:06Z</time>
      </trkpt>
      <trkpt lat="47.45242" lon="6.83841">
        <ele>328.91</ele>
        <time>2013-11-11T11:50:07Z</time>
      </trkpt>
      <trkpt lat="47.45244" lon="6.83786">
        <ele>329.87</ele>
        <time>2013-11-11T11:50:16Z</time>
      </trkpt>
      <trkpt lat="47.45245" lon="6.83772">
        <ele>329.87</ele>
        <time>2013-11-11T11:50:18Z</time>
      </trkpt>
      <trkpt lat="47.45246" lon="6.83766">
        <ele>329.87</ele>
        <time>2013-11-11T11:50:19Z</time>
      </trkpt>
      <trkpt lat="47.45249" lon="6.83752">
        <ele>329.87</ele>
        <time>2013-11-11T11:50:21Z</time>
      </trkpt>
      <trkpt lat="47.45251" lon="6.83746">
        <ele>330.35</ele>
        <time>2013-11-11T11:50:22Z</time>
      </trkpt>
      <trkpt lat="47.45252" lon="6.83739">
        <ele>330.35</ele>
        <time>2013-11-11T11:50:23Z</time>
      </trkpt>
      <trkpt lat="47.45253" lon="6.83725">
        <ele>330.35</ele>
        <time>2013-11-11T11:50:25Z</time>
      </trkpt>
      <trkpt lat="47.45253" lon="6.83703">
        <ele>329.87</ele>
        <time>2013-11-11T11:50:28Z</time>
      </trkpt>
      <trkpt lat="47.45248" lon="6.83647">
        <ele>328.43</ele>
        <time>2013-11-11T11:50:35Z</time>
      </trkpt>
      <trkpt lat="47.45251" lon="6.83642">
        <ele>327.95</ele>
        <time>2013-11-11T11:50:36Z</time>
      </trkpt>
      <trkpt lat="47.45255" lon="6.83638">
        <ele>327.95</ele>
        <time>2013-11-11T11:50:37Z</time>
      </trkpt>
      <trkpt lat="47.45258" lon="6.83634">
        <ele>327.95</ele>
        <time>2013-11-11T11:50:38Z</time>
      </trkpt>
      <trkpt lat="47.45261" lon="6.83628">
        <ele>327.95</ele>
        <time>2013-11-11T11:50:39Z</time>
      </trkpt>
      <trkpt lat="47.45264" lon="6.83621">
        <ele>327.95</ele>
        <time>2013-11-11T11:50:40Z</time>
      </trkpt>
      <trkpt lat="47.45265" lon="6.83614">
        <ele>327.95</ele>
        <time>2013-11-11T11:50:41Z</time>
      </trkpt>
      <trkpt lat="47.45267" lon="6.83607">
        <ele>327.95</ele>
        <time>2013-11-11T11:50:42Z</time>
      </trkpt>
      <trkpt lat="47.45269" lon="6.836">
        <ele>327.95</ele>
        <time>2013-11-11T11:50:43Z</time>
      </trkpt>
      <trkpt lat="47.45291" lon="6.83484">
        <ele>328.91</ele>
        <time>2013-11-11T11:50:58Z</time>
      </trkpt>
      <trkpt lat="47.45312" lon="6.83365">
        <ele>329.39</ele>
        <time>2013-11-11T11:51:13Z</time>
      </trkpt>
      <trkpt lat="47.45333" lon="6.83249">
        <ele>331.31</ele>
        <time>2013-11-11T11:51:29Z</time>
      </trkpt>
      <trkpt lat="47.45344" lon="6.83198">
        <ele>331.79</ele>
        <time>2013-11-11T11:51:40Z</time>
      </trkpt>
      <trkpt lat="47.45347" lon="6.83197">
        <ele>332.27</ele>
        <time>2013-11-11T11:51:41Z</time>
      </trkpt>
      <trkpt lat="47.4535" lon="6.83199">
        <ele>332.27</ele>
        <time>2013-11-11T11:51:42Z</time>
      </trkpt>
      <trkpt lat="47.45353" lon="6.832">
        <ele>332.27</ele>
        <time>2013-11-11T11:51:43Z</time>
      </trkpt>
      <trkpt lat="47.45356" lon="6.83201">
        <ele>332.27</ele>
        <time>2013-11-11T11:51:44Z</time>
      </trkpt>
      <trkpt lat="47.45405" lon="6.83219">
        <ele>331.79</ele>
        <time>2013-11-11T11:52:00Z</time>
      </trkpt>
      <trkpt lat="47.45418" lon="6.83221">
        <ele>331.79</ele>
        <time>2013-11-11T11:52:04Z</time>
      </trkpt>
      <trkpt lat="47.45421" lon="6.83218">
        <ele>331.79</ele>
        <time>2013-11-11T11:52:05Z</time>
      </trkpt>
      <trkpt lat="47.45423" lon="6.83214">
        <ele>331.79</ele>
        <time>2013-11-11T11:52:06Z</time>
      </trkpt>
      <trkpt lat="47.45423" lon="6.8321">
        <ele>332.27</ele>
        <time>2013-11-11T11:52:07Z</time>
      </trkpt>
      <trkpt lat="47.45422" lon="6.83206">
        <ele>332.27</ele>
        <time>2013-11-11T11:52:08Z</time>
      </trkpt>
      <trkpt lat="47.45423" lon="6.83202">
        <ele>332.75</ele>
        <time>2013-11-11T11:52:09Z</time>
      </trkpt>
      <trkpt lat="47.45424" lon="6.83198">
        <ele>332.27</ele>
        <time>2013-11-11T11:52:10Z</time>
      </trkpt>
      <trkpt lat="47.45437" lon="6.83179">
        <ele>333.23</ele>
        <time>2013-11-11T11:52:17Z</time>
      </trkpt>
      <trkpt lat="47.4546" lon="6.83185">
        <ele>334.2</ele>
        <time>2013-11-11T11:52:26Z</time>
      </trkpt>
      <trkpt lat="47.45496" lon="6.83197">
        <ele>333.71</ele>
        <time>2013-11-11T11:52:35Z</time>
      </trkpt>
      <trkpt lat="47.45575" lon="6.83203">
        <ele>331.31</ele>
        <time>2013-11-11T11:52:49Z</time>
      </trkpt>
      <trkpt lat="47.4558" lon="6.83204">
        <ele>331.31</ele>
        <time>2013-11-11T11:52:50Z</time>
      </trkpt>
      <trkpt lat="47.45586" lon="6.83204">
        <ele>331.31</ele>
        <time>2013-11-11T11:52:51Z</time>
      </trkpt>
      <trkpt lat="47.45611" lon="6.83201">
        <ele>330.83</ele>
        <time>2013-11-11T11:52:56Z</time>
      </trkpt>
      <trkpt lat="47.45684" lon="6.83202">
        <ele>329.39</ele>
        <time>2013-11-11T11:53:12Z</time>
      </trkpt>
      <trkpt lat="47.45698" lon="6.83201">
        <ele>329.87</ele>
        <time>2013-11-11T11:53:16Z</time>
      </trkpt>
      <trkpt lat="47.457" lon="6.83197">
        <ele>329.39</ele>
        <time>2013-11-11T11:53:17Z</time>
      </trkpt>
      <trkpt lat="47.457" lon="6.83192">
        <ele>329.87</ele>
        <time>2013-11-11T11:53:18Z</time>
      </trkpt>
      <trkpt lat="47.45699" lon="6.83188">
        <ele>330.35</ele>
        <time>2013-11-11T11:53:19Z</time>
      </trkpt>
      <trkpt lat="47.45698" lon="6.83183">
        <ele>330.83</ele>
        <time>2013-11-11T11:53:20Z</time>
      </trkpt>
      <trkpt lat="47.45669" lon="6.83119">
        <ele>333.71</ele>
        <time>2013-11-11T11:53:34Z</time>
      </trkpt>
      <trkpt lat="47.45661" lon="6.83102">
        <ele>334.68</ele>
        <time>2013-11-11T11:53:37Z</time>
      </trkpt>
      <trkpt lat="47.45659" lon="6.83096">
        <ele>334.68</ele>
        <time>2013-11-11T11:53:38Z</time>
      </trkpt>
      <trkpt lat="47.45646" lon="6.83067">
        <ele>335.16</ele>
        <time>2013-11-11T11:53:43Z</time>
      </trkpt>
      <trkpt lat="47.45611" lon="6.82998">
        <ele>337.56</ele>
        <time>2013-11-11T11:53:56Z</time>
      </trkpt>
      <trkpt lat="47.45605" lon="6.8298">
        <ele>339</ele>
        <time>2013-11-11T11:54:00Z</time>
      </trkpt>
      <trkpt lat="47.45605" lon="6.82975">
        <ele>339</ele>
        <time>2013-11-11T11:54:01Z</time>
      </trkpt>
      <trkpt lat="47.45605" lon="6.82971">
        <ele>339</ele>
        <time>2013-11-11T11:54:02Z</time>
      </trkpt>
      <trkpt lat="47.45606" lon="6.82968">
        <ele>339</ele>
        <time>2013-11-11T11:54:03Z</time>
      </trkpt>
      <trkpt lat="47.45605" lon="6.82965">
        <ele>339</ele>
        <time>2013-11-11T11:54:04Z</time>
      </trkpt>
      <trkpt lat="47.45605" lon="6.82958">
        <ele>338.04</ele>
        <time>2013-11-11T11:54:15Z</time>
      </trkpt>
      <trkpt lat="47.45604" lon="6.82945">
        <ele>338.04</ele>
        <time>2013-11-11T11:54:27Z</time>
      </trkpt>
      <trkpt lat="47.45595" lon="6.82885">
        <ele>339.96</ele>
        <time>2013-11-11T11:54:43Z</time>
      </trkpt>
      <trkpt lat="47.45597" lon="6.82826">
        <ele>340.92</ele>
        <time>2013-11-11T11:54:58Z</time>
      </trkpt>
      <trkpt lat="47.45621" lon="6.82762">
        <ele>342.85</ele>
        <time>2013-11-11T11:55:14Z</time>
      </trkpt>
      <trkpt lat="47.45634" lon="6.82726">
        <ele>341.41</ele>
        <time>2013-11-11T11:55:26Z</time>
      </trkpt>
      <trkpt lat="47.45636" lon="6.82727">
        <ele>339.96</ele>
        <time>2013-11-11T11:55:49Z</time>
      </trkpt>
      <trkpt lat="47.45635" lon="6.82726">
        <ele>341.41</ele>
        <time>2013-11-11T11:56:10Z</time>
      </trkpt>
      <trkpt lat="47.45633" lon="6.82725">
        <ele>342.37</ele>
        <time>2013-11-11T11:56:33Z</time>
      </trkpt>
      <trkpt lat="47.45634" lon="6.82728">
        <ele>341.89</ele>
        <time>2013-11-11T11:57:02Z</time>
      </trkpt>
      <trkpt lat="47.45635" lon="6.82727">
        <ele>342.85</ele>
        <time>2013-11-11T11:57:29Z</time>
      </trkpt>
    </trkseg>
  </trk>
</gpx>